GFSNW_925_rhum_000.txt.gz
RH
58 54 48 48 46 42 52 64 56 33 43 58 62 73 58 55 55 47 50 51 48 49 50 49 47 59 59 49 46 50 53 53 60 51 38 37 31 31 30 42 39 38 41 43
65 59 53 44 45 50 73 57 50 36 43 67 69 59 59 57 56 59 51 56 51 45 56 63 57 63 52 50 60 60 51 52 67 64 50 43 47 36 33 39 42 53 46 40
86 64 57 47 44 46 61 58 54 55 54 46 51 52 55 62 53 56 50 53 47 47 57 53 64 61 61 56 55 62 52 50 52 53 46 40 49 46 42 45 52 46 43 38
90 80 63 49 42 45 66 54 58 53 62 57 49 46 42 51 56 51 46 51 46 44 56 56 57 54 57 49 48 47 52 50 44 43 38 35 38 41 40 50 45 51 35 35
96 87 74 58 40 48 57 61 48 49 48 42 34 40 48 46 47 50 50 56 46 43 54 50 56 49 43 49 45 44 50 51 40 40 31 27 33 31 29 34 37 38 37 37
98 88 85 68 44 54 48 48 44 51 57 44 38 51 49 51 42 48 50 47 47 58 49 40 38 39 43 44 44 45 46 44 43 44 33 38 49 38 38 36 33 33 39 32
93 96 92 81 56 55 58 58 55 53 49 38 43 44 41 46 47 45 43 41 42 44 30 30 32 31 30 31 33 37 48 48 48 56 48 68 38 31 32 38 33 32 33 33
92 100 97 93 79 47 66 66 57 60 48 41 43 43 44 43 42 49 46 44 44 38 32 43 45 44 43 40 52 48 34 46 54 69 65 51 44 36 37 38 42 34 38 36
98 97 99 97 93 66 64 58 67 62 60 53 36 38 36 44 46 49 50 45 50 44 43 49 71 76 52 56 66 54 52 43 57 97 82 86 40 40 37 35 60 45 42 42
96 94 98 99 94 87 83 80 61 68 76 53 46 58 55 44 48 53 52 52 49 50 52 65 83 70 47 63 54 77 72 66 72 68 76 65 41 43 36 58 58 46 47 45
93 95 96 97 100 98 92 95 64 81 83 71 58 55 59 54 56 68 62 64 62 62 63 65 67 67 57 57 46 53 71 83 83 71 71 82 36 43 50 46 43 43 49 43
93 96 96 98 96 100 99 98 82 72 92 91 81 71 64 49 51 63 59 66 58 60 75 66 69 69 63 57 70 41 65 52 60 67 74 47 35 40 41 43 49 48 49 40
91 95 95 96 98 98 99 99 97 83 96 93 91 79 70 66 55 50 66 61 52 56 65 74 78 83 70 80 74 65 54 45 58 56 41 43 42 38 49 51 53 56 59 60
89 90 98 99 100 100 99 98 97 90 94 99 87 71 67 68 70 66 58 58 58 65 74 86 89 89 74 86 77 76 61 61 61 62 54 49 45 48 53 51 56 62 57 56
90 88 94 97 98 100 100 99 98 96 99 98 93 76 68 72 70 72 70 60 65 79 86 91 94 87 85 90 89 86 65 66 74 69 50 56 54 52 56 60 61 58 59 73
88 86 87 94 97 100 99 99 100 100 100 98 99 75 70 72 72 69 70 71 71 83 91 93 90 77 85 98 98 74 54 50 50 54 49 54 54 51 55 59 58 63 72 78
89 84 81 81 92 100 99 99 98 100 100 99 100 98 77 70 74 83 86 80 90 89 94 98 94 95 92 98 86 58 50 50 52 52 55 61 59 72 69 74 89 97 98 98
85 83 82 92 100 100 99 100 100 100 95 97 100 98 89 76 89 97 88 98 97 98 95 95 96 95 96 98 75 58 56 55 54 57 73 73 74 88 95 98 99 99 94 80
86 92 98 99 93 98 100 95 100 99 93 99 99 100 97 81 81 85 86 82 97 95 99 96 95 96 98 80 74 71 64 61 72 95 96 96 98 98 98 96 97 90 90 65
98 97 94 100 100 95 88 86 97 100 99 97 99 92 96 86 82 89 89 88 90 99 90 90 99 94 72 66 68 71 70 79 86 99 99 100 100 99 96 90 87 76 39 38
93 95 100 99 92 92 89 100 100 100 100 97 96 91 93 87 93 96 92 97 94 96 96 93 91 88 79 70 74 74 80 72 73 82 84 82 82 93 84 80 45 39 39 41
86 87 94 90 95 99 99 95 99 100 97 97 97 94 92 98 95 96 99 99 95 94 86 95 82 81 74 55 51 57 68 73 73 68 74 78 79 81 70 46 42 39 36 35
80 94 100 95 99 96 98 99 98 99 99 99 99 99 93 97 98 99 99 100 95 77 94 83 85 89 75 68 57 62 70 72 60 56 52 59 66 55 37 38 33 33 37 39
97 98 99 97 99 94 92 93 96 99 99 98 93 97 93 92 99 97 98 98 89 91 97 89 88 80 58 54 59 68 78 75 60 54 40 38 38 38 34 34 36 39 42 42
99 99 92 95 92 99 98 97 94 97 97 96 96 93 81 92 96 92 93 99 96 86 87 89 91 81 75 55 66 76 81 82 62 49 44 41 38 40 42 43 45 46 46 46
100 99 100 94 97 98 98 98 100 98 94 97 97 87 89 90 89 98 94 93 90 85 90 94 88 64 59 61 64 74 77 81 71 47 40 39 41 44 45 44 48 49 49 49
100 100 94 93 100 99 96 90 92 85 93 98 92 96 92 90 92 98 88 92 88 96 96 93 83 77 73 60 60 71 75 78 73 56 44 46 48 48 52 60 52 50 50 53

GFSNW_925_rhum_003.txt.gz
RH
89 68 54 54 49 45 54 80 58 34 60 74 86 87 67 57 66 59 56 59 63 68 71 55 73 76 66 54 52 57 54 61 70 56 39 38 35 36 36 48 45 49 49 45
89 85 62 60 52 58 70 79 64 33 39 87 87 66 67 66 66 65 60 62 55 53 58 70 68 68 59 59 59 57 52 60 77 62 48 45 48 42 38 44 50 53 49 45
88 89 77 65 48 51 70 77 61 68 68 66 68 68 66 71 58 59 55 56 51 56 64 61 70 68 62 57 55 60 50 50 52 60 48 49 54 48 44 48 58 52 53 42
98 86 85 71 45 45 72 70 63 61 69 57 55 52 55 62 65 54 51 54 50 54 64 60 65 64 60 50 48 47 50 49 45 41 38 34 38 42 44 56 53 51 32 37
99 87 86 83 48 48 59 71 64 64 61 48 51 60 55 56 56 56 57 63 60 58 65 59 61 58 54 54 46 49 50 53 39 37 33 33 34 34 36 39 42 49 47 44
98 90 88 86 52 53 67 60 56 56 56 51 56 57 53 53 55 50 51 50 60 61 50 42 40 43 48 51 49 51 50 46 47 43 44 44 49 42 41 39 34 34 43 34
97 97 91 90 71 60 70 64 72 64 57 56 58 50 52 51 50 52 46 49 54 47 36 32 34 36 35 36 43 44 54 52 56 60 52 68 39 36 34 41 40 38 37 37
99 100 95 95 87 56 58 62 73 70 60 56 52 52 53 48 52 54 55 54 50 51 36 51 51 57 50 55 64 61 46 55 60 71 73 59 46 47 42 41 45 42 41 47
98 100 99 94 93 71 63 60 68 81 65 56 40 47 43 53 56 54 50 47 51 47 51 60 74 79 62 62 68 60 54 57 62 92 82 78 54 42 38 39 56 47 46 48
94 96 100 100 89 86 80 78 65 82 84 66 54 60 54 53 60 65 53 48 45 46 59 75 86 76 52 69 66 78 76 73 75 79 82 71 52 42 38 53 55 52 50 50
92 95 98 99 98 91 85 95 70 83 91 80 62 55 59 59 65 71 67 65 64 66 68 78 77 75 67 61 56 75 79 89 86 80 82 84 44 43 50 54 54 59 59 57
92 93 96 98 99 99 91 98 76 75 93 93 84 75 68 54 60 69 65 72 68 70 82 78 79 73 74 70 74 49 62 64 77 76 73 52 47 52 48 51 54 55 54 54
90 91 91 92 99 99 95 93 83 81 94 92 88 85 72 62 52 52 71 65 58 63 75 79 82 76 80 84 83 62 58 54 67 60 51 51 53 58 56 55 58 60 58 57
90 85 91 96 100 100 99 96 89 83 93 95 93 71 73 70 68 59 57 57 62 70 79 91 88 85 76 89 82 84 72 66 71 74 60 55 52 53 53 57 57 60 58 58
87 85 80 94 98 100 100 98 97 93 90 94 95 80 76 70 72 71 59 61 70 78 84 91 93 90 82 88 93 99 77 73 86 87 64 65 64 56 58 63 63 67 66 73
86 84 80 76 94 100 99 99 99 99 89 93 98 82 78 74 72 76 79 75 78 86 91 92 92 80 80 97 88 76 73 66 63 69 52 59 61 61 60 61 60 60 68 73
86 82 79 78 100 100 99 98 100 100 91 97 99 100 82 73 79 87 88 85 92 90 92 94 94 91 89 98 98 68 68 55 56 58 57 62 71 71 72 76 97 97 98 98
85 81 80 91 100 95 97 100 98 100 94 94 100 100 90 77 95 98 90 99 94 96 95 96 96 97 96 98 84 71 62 64 62 83 76 71 73 84 92 95 94 94 98 98
83 87 94 98 93 96 95 100 100 96 88 100 99 100 100 82 91 92 91 90 96 97 98 97 93 97 98 85 80 73 71 65 66 89 94 96 97 95 89 91 94 98 96 81
91 99 95 100 100 98 90 87 91 100 99 98 99 95 98 88 92 97 93 87 92 99 91 91 99 98 79 79 77 76 74 83 88 77 74 97 97 97 93 97 87 86 85 68
96 98 100 100 94 89 92 98 97 98 100 99 98 95 98 88 93 96 90 95 99 96 91 80 93 94 82 67 70 80 86 80 78 75 83 85 88 90 92 89 84 74 43 43
80 87 91 90 93 100 95 91 97 99 89 99 98 96 94 97 94 96 98 91 97 92 92 96 89 83 76 63 57 61 68 68 72 70 77 79 81 87 90 79 50 44 40 37
75 91 100 93 100 99 94 92 88 99 99 100 100 100 96 98 95 99 98 97 95 87 96 90 86 85 82 72 60 60 71 69 60 54 50 58 84 82 67 53 44 40 37 37
97 98 99 93 96 94 94 92 93 97 98 98 96 98 96 96 99 97 95 99 90 96 99 89 85 86 70 68 58 58 54 68 70 59 50 39 41 38 36 37 35 36 40 40
100 97 91 99 91 100 100 99 95 99 96 93 96 96 89 96 94 90 96 99 97 92 87 86 92 86 77 53 57 63 69 77 83 66 57 46 41 41 40 38 39 41 44 47
100 98 99 97 95 100 97 98 100 99 93 97 94 91 93 93 92 97 94 95 92 83 91 91 94 68 65 64 60 62 69 77 84 79 59 47 44 44 42 41 44 47 50 50
99 99 96 96 98 94 96 93 93 93 94 99 92 96 86 95 96 100 94 94 86 91 96 97 90 83 77 65 58 62 69 77 80 83 66 48 41 41 49 62 53 52 51 52

GFSNW_925_rhum_006.txt.gz
RH
84 85 89 75 71 56 60 85 62 95 81 85 88 92 90 87 89 86 83 53 58 70 72 64 77 77 68 58 52 56 54 63 70 53 40 37 38 40 38 48 45 54 52 46
86 88 90 80 72 70 65 81 70 90 77 83 87 67 73 87 90 78 68 79 68 60 68 75 71 71 60 60 56 58 53 68 80 60 52 47 50 42 40 47 52 56 55 49
94 94 89 87 73 63 77 79 58 62 72 74 73 70 68 74 77 73 62 62 62 66 67 65 72 71 62 55 54 61 48 54 59 63 54 55 58 55 47 45 59 49 57 40
98 99 88 89 74 56 81 72 62 63 57 59 59 56 60 66 65 63 61 58 54 59 65 63 71 66 57 50 50 48 44 49 45 42 39 39 45 49 56 57 50 46 39 44
98 100 90 89 65 58 67 67 62 66 65 53 56 62 55 61 62 58 62 65 54 54 62 59 65 62 56 53 47 50 48 51 37 37 35 36 36 35 37 44 48 52 47 43
99 100 93 90 70 61 73 72 68 52 65 56 55 59 56 54 58 51 52 54 50 51 46 42 43 49 50 50 49 51 47 43 41 38 48 44 45 44 44 38 36 34 36 31
99 99 99 90 84 63 75 74 78 59 60 60 59 54 50 51 49 54 51 51 50 47 41 34 36 40 50 52 56 51 53 55 58 56 51 60 38 40 39 40 39 37 39 42
99 99 99 97 90 60 58 70 72 68 69 65 58 52 56 49 52 57 53 52 52 53 40 54 56 62 50 57 68 63 52 58 68 69 70 56 46 44 42 41 52 50 51 48
98 98 98 100 92 78 69 70 79 78 66 57 48 52 48 56 57 53 49 43 51 47 57 67 70 76 60 64 66 62 58 60 60 90 80 69 47 42 40 37 54 53 52 52
95 95 99 98 99 88 83 74 78 83 79 71 56 54 58 57 64 68 53 45 43 49 69 80 85 78 58 70 71 71 69 70 72 81 81 72 53 48 40 54 50 62 61 61
96 94 97 100 100 94 90 84 78 82 91 86 75 64 58 64 66 75 65 68 63 68 74 79 80 78 70 64 66 75 74 87 83 83 81 80 48 47 52 57 58 56 56 55
95 96 94 99 98 98 93 90 74 80 92 90 86 76 70 58 63 72 70 73 69 68 83 84 82 77 77 75 74 58 68 72 80 72 72 55 54 54 51 54 54 52 50 49
94 96 95 93 94 100 96 90 80 81 94 92 89 87 73 62 58 57 74 73 65 74 76 86 84 74 82 83 82 66 59 60 69 62 57 66 56 53 53 54 56 55 54 54
91 94 96 92 97 99 96 94 91 82 92 95 95 72 76 72 68 58 55 61 66 73 80 87 85 81 78 87 80 80 70 66 73 78 67 58 65 58 61 60 58 60 61 59
88 91 98 100 99 99 97 93 94 91 86 96 98 80 75 72 73 63 56 62 70 76 84 88 90 91 86 93 93 99 85 77 82 83 69 66 66 56 58 62 64 68 68 63
85 85 88 99 99 99 94 97 88 91 91 88 99 85 80 81 78 77 78 78 82 87 88 93 92 83 82 97 85 74 78 72 66 69 61 61 59 65 62 62 64 67 72 71
84 83 78 84 100 96 96 95 99 98 87 94 100 99 82 76 82 89 89 86 93 88 94 95 91 86 88 96 90 76 71 71 56 60 61 64 66 68 71 80 97 95 92 92
82 81 80 99 97 91 95 100 100 99 90 92 99 100 91 76 96 98 92 98 92 95 98 95 94 94 94 98 84 69 66 62 70 75 73 69 75 85 94 90 88 89 89 86
84 85 92 91 83 93 96 100 100 90 86 100 99 99 99 83 96 95 93 91 97 98 98 95 92 98 98 84 81 78 76 65 70 85 90 98 97 96 94 88 88 94 92 95
89 99 90 100 100 98 92 82 92 99 100 98 98 92 98 89 94 98 92 91 99 100 94 93 100 98 83 81 80 76 72 70 87 79 80 94 95 97 99 90 90 96 88 84
97 98 100 100 95 84 92 100 97 96 100 99 98 92 97 87 94 98 87 97 99 97 92 91 92 96 86 75 80 84 90 85 83 70 79 82 84 88 89 91 91 88 75 53
84 89 93 91 91 99 89 92 96 99 90 99 98 97 92 99 90 94 95 89 95 90 90 90 94 84 76 65 68 72 74 72 74 77 73 76 82 84 89 91 88 71 44 41
77 88 100 92 99 99 93 98 86 96 98 100 100 100 96 99 95 95 98 95 94 90 97 92 90 84 80 76 62 62 66 66 66 62 62 67 84 86 86 77 59 46 43 38
98 99 99 95 95 91 93 90 92 95 99 99 97 99 96 98 99 97 96 98 89 97 99 92 84 85 70 69 67 58 52 69 69 69 60 51 60 69 59 59 50 44 41 38
99 97 93 98 91 97 100 99 98 100 95 90 93 96 91 98 97 92 97 98 97 89 87 86 90 87 87 67 59 58 59 61 68 72 72 62 49 44 41 38 37 37 39 42
100 98 98 97 95 100 99 100 99 99 95 92 93 90 95 95 94 94 94 91 90 85 92 92 94 72 69 62 57 56 58 64 69 72 76 71 57 49 44 38 42 43 44 48
100 97 96 98 96 97 97 94 98 90 93 100 90 94 84 92 92 100 95 91 89 90 90 96 91 81 75 68 69 64 58 65 69 72 76 81 65 50 47 54 45 47 50 53

GFSNW_925_rhum_009.txt.gz
RH
94 92 92 96 89 60 61 92 75 100 100 100 96 95 94 65 67 88 87 65 61 68 67 72 79 85 69 59 58 62 52 61 63 50 44 40 39 40 40 53 48 57 58 50
91 96 94 96 95 70 74 87 98 97 97 93 94 96 96 88 92 86 73 60 59 64 71 83 78 75 62 60 56 60 57 68 80 63 56 51 50 44 40 50 54 60 57 48
90 99 99 96 96 78 72 89 78 98 98 84 78 76 94 95 89 73 70 72 66 64 68 68 79 76 63 55 55 62 51 62 60 57 59 60 60 55 48 47 62 55 58 43
91 99 100 94 94 66 71 82 63 67 84 74 64 62 75 90 85 76 73 71 67 64 71 68 78 68 60 51 50 48 42 50 47 46 46 52 54 58 57 52 47 48 40 50
92 98 100 93 94 67 73 74 68 69 70 56 57 59 60 67 67 73 80 72 67 64 61 60 71 64 59 55 49 47 46 54 39 38 40 36 35 37 60 57 52 51 50 46
91 97 99 98 93 65 77 78 74 56 67 59 57 61 63 60 56 54 62 56 61 64 49 45 50 52 52 53 51 52 44 45 40 38 47 42 41 46 42 38 39 39 36 30
92 97 98 100 97 62 72 78 83 58 58 63 58 58 52 64 51 57 55 50 49 47 40 37 41 44 50 54 59 50 51 52 54 51 50 53 34 43 40 40 45 37 49 49
91 94 98 99 100 68 63 76 78 68 69 69 56 54 59 52 53 54 53 52 54 50 43 51 58 62 48 54 69 59 51 56 68 64 61 48 49 44 48 47 59 53 52 51
92 92 95 99 99 83 68 75 82 75 70 61 52 54 50 57 57 52 49 43 52 48 63 66 64 70 58 68 68 56 54 56 57 87 76 64 46 42 41 37 74 58 57 62
90 92 95 96 100 89 84 75 85 82 74 74 55 53 54 57 64 65 52 45 45 52 75 83 88 79 60 76 76 68 61 65 68 75 73 66 50 45 42 56 50 61 57 59
92 92 92 93 99 97 90 83 84 85 89 87 81 66 59 66 66 71 62 65 64 72 77 80 82 77 66 68 71 68 65 77 77 81 77 70 51 50 57 60 62 58 56 53
91 92 92 95 100 98 89 87 79 85 90 86 89 82 73 63 62 71 70 74 70 72 87 85 86 80 79 75 76 66 73 66 70 68 68 58 55 56 57 57 59 54 50 50
95 94 92 93 98 99 92 85 84 82 94 93 89 90 76 67 66 60 78 79 69 80 74 86 84 71 82 82 80 69 61 64 69 66 65 61 56 56 53 52 52 52 53 52
95 95 95 92 98 100 93 88 90 83 92 96 94 76 77 73 68 57 57 66 74 82 88 87 87 81 79 86 76 78 71 71 76 75 67 69 61 57 54 55 57 58 60 59
94 96 97 90 98 97 89 88 93 88 85 96 98 83 75 78 72 61 60 66 75 84 86 88 89 93 86 96 92 96 86 78 82 80 69 67 67 61 58 63 62 62 67 66
92 97 100 96 99 96 94 92 91 88 85 88 99 87 84 85 76 82 87 85 89 93 90 93 93 85 78 95 94 74 78 76 70 70 67 63 61 67 64 65 78 90 87 85
92 90 92 100 100 95 91 88 94 91 84 89 100 96 82 78 82 90 89 86 95 91 95 94 90 88 85 94 94 72 73 77 61 62 68 69 65 74 85 89 97 94 93 93
86 84 82 100 90 90 95 100 100 88 86 88 99 99 92 78 96 98 94 96 93 97 98 94 91 91 91 86 83 74 71 74 74 77 79 79 81 84 92 92 90 90 91 87
85 86 92 82 78 93 100 100 88 79 78 99 99 100 98 84 97 96 93 92 97 97 98 94 84 99 97 80 82 79 76 65 71 92 96 99 98 97 95 94 90 91 87 87
89 89 86 100 100 99 87 77 90 99 99 97 97 91 100 90 94 98 91 93 99 100 98 92 99 99 84 83 78 75 76 75 86 86 82 93 92 99 92 93 92 85 90 95
94 98 99 100 94 78 91 100 98 99 98 99 96 92 97 88 95 98 88 98 98 97 90 95 94 95 88 76 83 86 91 85 82 73 77 69 67 77 85 88 92 94 94 91
86 92 96 92 90 97 91 94 98 99 94 99 98 97 93 99 86 97 91 90 93 79 92 93 90 88 78 70 70 74 79 77 72 74 73 68 73 80 87 90 91 90 87 59
83 92 100 91 99 99 95 99 99 94 96 100 100 100 97 99 91 97 92 95 81 88 94 90 90 88 82 82 69 69 67 66 67 69 68 69 73 81 89 91 87 82 58 46
98 100 98 97 99 94 91 91 91 92 99 99 96 99 98 98 98 98 96 98 95 98 100 95 92 85 72 77 69 59 63 68 66 67 62 58 57 69 78 83 75 59 53 46
100 100 98 98 95 96 99 97 97 99 94 91 93 94 92 100 98 90 97 98 95 86 90 90 90 86 85 76 68 61 54 56 60 64 72 69 61 56 52 46 45 50 49 41
100 98 99 97 95 99 99 99 98 99 89 93 92 97 97 98 95 98 93 93 94 86 92 92 92 80 74 59 56 55 56 60 62 63 66 70 74 66 56 48 42 40 39 41
100 99 96 97 97 96 95 94 98 91 79 99 92 97 95 92 95 100 93 90 85 92 94 96 87 76 71 66 64 68 66 63 59 62 65 68 70 74 62 59 47 42 43 48

GFSNW_925_rhum_012.txt.gz
RH
88 97 96 92 99 88 80 91 89 100 100 98 94 96 90 79 77 82 82 66 64 68 79 78 87 87 76 55 56 56 47 60 65 49 45 40 38 42 44 60 56 63 62 54
86 93 93 98 100 88 72 90 95 100 100 100 99 93 89 76 83 87 81 66 58 55 71 87 86 88 66 64 58 61 57 65 81 65 55 54 49 45 43 52 56 64 60 51
84 89 94 99 100 91 83 92 98 100 99 96 95 95 91 90 94 89 72 69 60 67 73 76 88 86 64 60 57 62 53 64 59 65 55 60 63 55 49 49 64 62 60 43
84 88 92 99 100 93 92 90 74 80 98 96 83 73 89 94 93 80 69 70 62 65 78 78 82 71 67 55 66 52 44 57 51 48 53 55 56 57 56 53 48 53 46 51
85 87 94 99 100 86 89 81 76 77 72 60 71 63 85 88 68 77 74 77 71 66 68 65 80 69 63 62 52 50 48 55 42 42 42 38 44 53 60 54 54 44 50 50
86 86 94 99 100 85 87 81 79 62 66 60 59 62 72 64 60 80 63 64 68 61 54 49 55 55 56 56 51 52 46 47 47 50 45 41 38 44 67 58 52 55 61 47
84 89 93 96 99 93 76 76 81 65 59 61 57 57 57 64 55 72 56 59 66 54 38 42 45 46 54 54 58 48 47 48 49 53 49 46 32 44 40 44 45 38 50 50
87 88 93 92 98 99 75 76 80 69 66 68 58 59 62 54 55 68 54 54 66 57 43 62 81 68 55 58 62 58 51 55 67 58 56 45 49 51 52 49 60 52 60 61
88 87 90 92 97 100 80 78 83 74 73 66 52 57 52 58 58 54 55 45 53 48 64 58 88 93 78 56 60 50 55 56 52 85 75 58 45 46 41 44 70 59 60 64
88 89 89 90 96 100 93 80 90 78 75 76 57 57 58 56 60 64 51 46 47 55 76 81 85 78 61 64 64 59 65 71 64 73 70 63 46 46 42 56 55 67 63 62
87 88 87 93 95 100 98 89 89 86 87 88 83 66 61 63 64 58 56 61 59 72 75 79 86 78 71 70 68 62 61 75 78 81 73 68 51 51 54 59 62 60 58 57
89 87 88 91 95 100 99 89 86 88 88 89 92 84 75 66 63 68 72 69 69 69 86 84 86 82 79 74 75 70 64 59 65 68 68 59 57 54 63 59 62 58 56 54
90 87 87 92 97 100 99 88 85 85 94 93 90 92 78 72 74 64 77 82 70 78 76 86 84 71 82 82 79 69 64 66 70 67 65 61 61 60 57 53 56 57 57 55
91 88 90 92 96 100 97 87 90 82 92 95 94 78 78 77 70 61 61 68 79 85 86 87 87 80 81 83 74 72 69 71 75 75 73 66 61 58 58 61 62 64 64 62
91 90 90 94 98 100 97 90 93 87 84 96 98 82 78 81 65 67 66 70 78 87 85 87 88 92 91 97 90 93 85 77 80 76 71 70 70 62 61 65 67 76 70 69
90 91 88 95 100 99 89 93 89 88 88 93 100 87 86 83 77 83 88 89 92 92 90 94 94 87 81 91 88 73 83 80 74 70 68 70 75 75 67 77 88 88 90 87
90 94 95 98 100 99 91 87 91 87 76 91 100 99 83 78 83 92 89 86 94 90 94 94 92 91 84 88 84 67 79 78 68 72 74 74 68 77 86 92 96 92 91 91
92 99 100 100 97 93 96 95 97 78 80 84 100 100 92 79 97 98 94 94 92 96 97 95 90 92 88 86 80 77 80 82 82 84 80 78 87 90 93 93 92 90 90 86
95 98 99 87 84 95 99 85 78 73 73 98 99 97 99 84 98 96 92 91 98 96 96 94 86 94 96 74 83 84 82 76 87 93 98 94 94 96 99 97 96 88 91 84
94 93 84 100 100 98 86 75 88 99 98 95 98 93 98 93 94 98 90 92 99 100 97 94 98 97 84 80 77 80 82 80 90 88 84 94 82 96 85 83 85 89 88 90
84 98 99 100 91 78 92 99 98 96 98 98 96 93 98 88 95 97 90 98 98 98 92 96 99 95 87 79 82 88 88 86 78 75 77 64 55 69 76 81 87 92 93 98
82 94 96 87 88 94 89 92 98 99 96 99 98 97 97 98 86 92 90 97 92 90 95 98 96 86 80 79 82 90 89 86 77 68 69 70 71 76 83 85 87 88 89 89
85 92 100 92 99 99 94 99 98 99 96 100 100 99 98 97 90 96 92 89 93 90 93 82 89 89 86 82 77 78 77 74 74 73 65 64 64 71 81 85 86 88 88 78
98 100 98 97 99 96 88 92 92 93 100 99 93 99 98 98 96 96 92 95 91 97 88 97 92 84 80 80 70 68 68 67 67 63 61 58 59 62 66 79 82 78 71 60
100 99 97 99 98 99 100 97 99 99 94 92 94 96 94 99 96 93 98 100 97 77 90 88 90 86 85 78 73 59 58 66 66 66 70 68 63 62 59 54 54 59 63 59
100 98 97 94 96 98 99 93 99 99 90 91 92 97 95 100 96 99 96 90 91 87 92 92 92 85 81 76 68 62 59 60 60 60 63 64 72 72 67 60 53 47 44 46
99 99 94 96 98 98 98 93 96 92 82 100 93 92 92 94 96 97 94 94 88 92 95 96 88 78 73 66 66 68 68 69 66 62 62 65 70 73 73 74 64 53 47 46

GFSNW_925_rhum_015.txt.gz
RH
86 87 93 96 95 100 82 94 92 99 99 97 94 97 87 82 84 69 69 66 76 79 63 80 86 89 78 61 62 54 45 59 75 56 47 45 43 49 47 58 60 62 57 49
84 86 91 96 95 100 73 94 95 100 97 99 97 87 90 84 83 71 83 75 61 64 73 90 84 79 63 66 65 60 52 66 79 64 52 57 50 44 44 51 53 61 56 48
82 85 91 95 96 100 76 95 99 100 98 96 99 94 91 92 88 89 88 68 61 72 80 76 88 84 72 70 59 59 48 61 64 70 61 61 60 52 49 43 58 57 53 41
81 86 91 92 96 100 83 97 89 86 97 97 97 97 92 88 95 87 88 72 62 68 93 89 86 82 70 61 70 51 48 55 53 49 50 52 56 57 53 49 43 44 44 49
76 86 91 90 97 100 94 91 85 82 76 68 98 96 95 88 92 88 78 74 63 66 80 76 86 75 69 65 57 55 49 57 45 45 51 53 58 59 50 46 52 49 48 49
80 85 90 89 99 100 96 83 84 66 61 62 73 70 84 91 89 86 69 62 68 74 59 52 59 55 57 57 54 55 51 50 54 58 45 42 50 50 62 50 56 43 52 39
81 82 87 90 96 100 78 78 83 70 59 66 62 58 73 83 73 84 62 62 63 70 44 48 43 48 51 49 53 48 58 46 50 56 46 54 42 44 51 52 49 49 44 46
85 82 85 91 94 100 100 79 86 72 61 64 60 61 62 60 71 81 75 66 72 57 48 74 79 78 54 61 64 56 51 51 62 62 57 45 50 52 54 50 55 47 64 68
85 84 84 92 92 100 100 79 82 75 70 65 56 61 54 62 64 82 78 67 76 62 76 68 94 98 85 68 63 52 53 64 71 82 63 47 39 46 44 46 56 61 61 66
84 84 86 92 92 100 100 84 87 81 70 75 58 62 59 54 60 69 68 73 75 74 81 77 80 81 66 69 67 70 66 67 60 72 64 58 47 48 42 54 47 67 66 70
84 83 89 92 94 100 100 93 88 85 84 89 88 68 62 64 57 59 59 66 57 85 88 81 81 78 71 70 63 60 61 70 71 77 70 56 51 49 52 56 65 63 61 58
83 84 90 90 96 100 100 95 90 96 86 89 95 85 80 72 63 65 71 64 64 64 82 85 86 79 81 74 73 68 62 57 66 63 63 63 60 57 65 59 62 60 61 60
83 84 90 88 91 98 99 97 91 91 94 93 90 92 79 76 80 70 73 82 69 77 77 86 85 71 82 81 78 71 67 68 73 61 64 64 67 62 60 57 62 63 61 61
85 85 85 87 90 99 100 94 87 85 91 95 87 80 79 81 68 65 65 71 82 82 83 86 86 77 80 81 72 72 70 68 77 79 74 67 60 60 69 71 72 72 69 65
86 86 85 87 91 100 100 99 96 87 85 94 98 82 83 81 70 71 69 74 81 87 84 86 86 90 90 97 86 84 84 75 75 74 71 70 69 69 69 72 76 75 73 75
87 87 85 88 94 100 100 100 94 89 81 92 100 87 85 82 80 85 88 89 92 92 90 96 96 89 83 91 88 70 82 78 68 69 72 78 79 78 71 84 87 85 86 79
87 88 86 93 100 100 94 90 99 92 79 91 100 100 83 79 83 93 92 88 94 88 94 93 92 93 84 86 82 63 81 79 76 79 74 77 70 78 84 91 92 89 92 92
90 90 96 100 100 94 95 99 88 83 78 83 100 100 96 79 97 98 94 93 91 97 96 95 89 96 90 90 77 77 82 84 83 79 76 76 89 92 95 96 95 90 89 91
92 100 99 96 86 96 94 84 76 71 72 97 94 99 100 85 98 95 89 91 97 96 95 94 90 92 95 77 84 88 91 81 90 95 92 90 88 94 100 98 95 80 87 91
100 96 84 100 99 93 84 72 84 94 97 92 98 92 99 91 94 98 91 94 99 100 98 94 99 95 82 79 79 77 84 86 88 92 99 99 98 97 98 94 83 82 85 91
91 97 99 100 91 74 90 100 93 96 97 93 95 91 97 90 94 96 90 98 97 98 93 96 96 98 90 84 86 90 90 84 80 74 79 69 58 72 77 82 86 89 90 94
80 93 94 81 84 92 85 93 99 94 95 98 98 98 96 96 88 89 90 98 91 90 92 99 99 86 81 82 84 90 90 85 77 62 69 72 72 73 77 80 84 86 88 91
81 92 99 90 99 98 92 98 93 100 99 100 100 99 98 96 91 98 90 88 94 91 99 94 89 89 86 87 91 94 90 80 74 74 69 68 72 72 74 81 82 86 90 90
98 100 99 96 99 97 90 92 92 93 99 98 96 99 99 96 94 92 88 93 88 94 95 88 91 87 84 82 83 90 88 75 75 72 69 67 67 67 70 75 77 81 81 76
100 99 98 99 96 100 99 97 99 100 94 92 96 97 94 97 95 90 97 99 87 80 90 88 91 91 89 76 66 70 72 73 70 70 68 65 62 62 61 58 60 67 68 65
100 98 97 94 96 100 99 97 99 100 88 92 91 98 96 100 95 98 96 89 89 86 91 92 94 85 78 74 65 60 62 63 61 61 62 63 68 68 67 63 59 54 50 53
99 98 92 95 97 98 96 91 98 89 80 97 94 88 88 96 97 94 93 92 88 91 93 95 90 82 79 72 66 64 63 65 66 64 64 65 69 72 73 73 70 60 52 48

GFSNW_925_rhum_018.txt.gz
RH
84 85 86 89 96 100 98 84 96 100 100 97 97 98 92 79 81 79 80 59 41 45 48 54 93 58 64 45 46 64 54 38 55 78 47 47 51 58 56 59 51 42 37 31
86 85 84 88 98 99 80 75 95 100 91 98 97 90 90 85 86 89 84 73 41 40 43 52 83 54 44 55 54 50 42 44 60 60 53 43 54 52 49 40 38 42 43 34
87 87 82 88 97 100 76 81 98 100 98 94 95 94 93 94 79 77 83 74 52 42 44 47 65 66 59 59 53 58 45 44 39 50 41 40 54 49 44 46 50 41 38 30
87 89 81 88 97 100 80 77 78 80 98 95 94 90 87 88 94 87 91 82 54 44 46 66 62 63 68 64 60 58 51 47 42 41 43 38 42 48 45 47 42 44 35 35
87 89 81 88 97 100 92 69 75 75 79 81 91 95 88 89 83 86 87 92 56 44 43 58 67 66 61 67 59 60 48 51 43 43 46 43 44 39 41 44 42 38 33 33
88 89 85 86 96 100 93 87 78 63 54 60 94 92 92 92 78 88 68 67 57 56 46 48 44 45 48 50 58 60 51 50 47 50 41 45 51 43 42 36 33 32 39 30
94 86 87 87 95 100 84 78 68 68 55 57 76 73 88 94 91 84 59 56 53 59 42 44 44 46 50 46 48 43 52 46 44 50 42 83 37 37 32 37 33 30 31 32
98 87 85 86 92 100 100 84 74 71 64 56 58 68 83 90 89 82 69 69 69 47 48 57 76 83 86 78 65 48 66 56 60 52 47 38 34 42 40 45 40 36 36 36
98 88 83 84 90 98 100 98 76 69 65 52 57 61 75 87 95 89 82 69 74 68 67 76 98 99 90 79 92 56 61 84 74 68 61 52 33 40 34 34 38 38 36 43
100 87 83 84 89 97 100 95 78 73 69 60 56 53 56 55 88 94 86 74 85 83 84 88 90 91 60 77 90 85 61 72 75 83 90 37 39 41 39 41 41 47 43 46
100 89 83 83 88 96 100 98 82 82 71 73 83 69 55 52 57 86 88 78 83 93 90 91 73 82 65 52 54 67 62 66 75 76 63 59 43 44 41 47 52 51 50 49
100 89 83 82 88 93 100 100 94 94 79 82 94 87 84 72 66 60 84 80 67 82 92 83 73 62 66 54 54 55 54 48 42 42 43 55 54 52 53 47 51 50 49 48
100 91 82 83 88 94 100 100 99 95 88 85 80 79 82 82 81 68 60 79 67 70 65 73 73 66 58 58 57 56 55 54 49 52 57 58 56 54 49 45 49 48 48 50
100 92 84 84 85 93 100 98 91 86 83 82 80 79 78 81 73 71 66 63 68 62 61 71 73 65 67 63 57 52 51 54 55 64 64 58 55 50 53 55 54 55 53 52
100 95 85 84 86 91 100 100 94 87 83 85 85 78 83 84 76 72 69 62 64 65 72 73 76 74 75 80 67 61 54 51 49 44 46 46 48 52 53 56 58 55 59 63
99 94 85 85 87 97 100 99 100 96 86 87 97 80 78 79 78 74 75 74 72 74 76 84 83 80 67 79 68 54 52 54 48 46 46 54 49 54 55 60 63 62 59 62
100 92 85 87 92 100 98 94 99 99 86 91 99 99 80 77 77 80 75 74 82 76 83 82 80 80 69 69 66 47 57 56 60 57 59 67 58 61 62 64 68 72 73 73
99 87 86 92 100 100 97 100 99 91 85 88 100 100 96 78 91 89 82 82 80 88 86 84 77 84 74 79 60 58 65 64 62 60 64 53 61 68 79 78 78 78 70 69
92 87 96 99 92 97 96 83 81 76 79 96 95 100 100 80 95 91 87 89 95 91 86 84 79 80 93 72 61 62 69 67 71 82 84 83 84 92 94 87 74 61 65 69
94 100 93 100 98 93 84 79 83 95 96 89 90 84 100 90 91 96 89 90 98 100 98 94 98 90 68 65 60 58 66 70 76 89 96 96 100 99 85 67 58 56 61 68
90 95 98 100 92 71 87 98 92 90 99 88 89 81 94 86 91 92 86 96 97 100 89 94 90 92 78 78 78 76 77 73 67 62 64 63 64 68 63 64 64 69 74 76
80 92 92 79 82 88 86 93 99 96 91 97 93 91 82 87 81 87 85 95 88 92 83 95 92 74 75 78 80 75 70 68 63 60 57 46 48 50 54 61 68 74 79 86
77 89 99 88 99 97 92 98 94 98 98 100 99 99 87 83 78 88 80 88 88 83 95 87 78 72 76 76 81 82 70 57 55 54 55 56 64 66 63 66 74 79 82 87
98 100 100 98 99 90 87 82 90 86 99 98 95 98 93 86 88 81 87 84 80 88 92 81 62 70 71 75 83 75 64 55 56 58 58 62 63 66 69 69 77 77 76 80
100 99 97 100 94 98 95 95 98 99 93 92 95 96 84 93 89 80 86 96 90 78 75 70 74 79 78 79 82 74 63 62 60 54 53 54 55 55 57 63 69 72 70 68
100 99 96 95 96 98 97 97 100 99 85 87 88 94 92 97 88 92 92 84 85 74 83 76 76 70 64 69 72 62 59 54 54 56 56 58 58 57 60 62 59 57 58 59
99 96 82 87 91 93 90 86 96 86 82 90 89 86 88 92 96 94 80 85 77 81 79 76 78 71 62 55 53 53 53 53 55 58 59 61 68 71 68 63 68 60 54 50

GFSNW_925_rhum_021.txt.gz
RH
99 90 86 82 85 98 100 94 96 99 92 98 96 98 95 84 82 83 89 78 54 39 34 42 52 49 42 36 46 86 75 81 100 93 62 49 57 54 48 47 49 35 33 32
97 99 87 82 90 100 89 96 90 100 89 98 97 94 94 90 90 88 91 86 57 32 35 45 54 52 32 46 49 57 58 57 99 99 83 67 63 59 54 42 39 40 36 34
97 100 87 83 93 99 70 90 98 100 98 86 89 96 95 96 79 87 82 64 44 37 37 34 48 57 43 45 39 56 46 46 42 54 55 66 67 63 50 46 48 41 35 30
97 100 87 85 92 100 90 94 86 68 97 94 93 90 87 95 94 85 76 87 53 42 40 39 44 46 47 46 52 47 52 48 37 31 35 40 47 52 53 54 45 44 33 31
96 100 86 86 91 100 94 91 68 75 85 73 84 92 93 95 89 89 94 93 59 40 33 35 51 49 48 57 55 51 50 49 40 42 38 36 37 37 41 43 40 36 32 31
99 100 85 87 94 99 97 93 73 57 50 62 85 83 90 87 83 80 74 76 70 45 29 27 41 41 38 44 54 57 56 57 46 48 38 42 50 38 36 36 34 33 39 31
98 94 97 88 95 98 89 78 75 79 57 39 50 83 91 90 91 82 80 76 69 45 36 39 48 46 44 44 44 44 54 52 52 61 43 74 36 30 30 33 30 30 32 28
95 99 96 92 96 99 98 78 82 73 59 39 57 81 92 94 94 90 66 61 56 41 44 50 80 85 76 74 57 50 47 58 63 59 50 36 32 33 33 36 36 28 28 26
99 99 94 91 95 97 100 97 87 88 63 42 51 53 84 96 98 93 74 62 60 74 58 66 98 99 92 98 93 61 77 60 72 59 58 59 34 34 29 29 41 25 27 29
98 99 98 97 93 93 100 99 99 90 68 45 49 50 73 81 96 96 71 65 76 83 74 78 86 96 70 96 98 93 91 92 97 90 74 56 35 34 32 39 44 34 30 31
97 96 100 94 90 93 100 98 97 85 64 57 66 57 50 61 79 94 82 78 88 89 88 80 74 81 61 65 72 69 77 91 95 94 94 84 36 39 38 47 43 38 37 38
98 96 100 94 88 92 100 100 97 93 86 80 82 74 75 69 70 82 92 90 81 90 95 84 62 67 65 48 74 49 71 47 54 54 57 48 44 46 44 40 44 43 44 44
98 98 100 94 90 92 99 99 100 100 95 84 75 71 76 81 79 76 90 95 82 76 72 90 90 67 52 62 53 50 46 43 40 41 46 48 46 48 45 42 44 42 43 44
98 99 100 95 89 90 98 98 95 96 78 79 76 74 71 80 76 76 63 86 82 85 86 86 84 71 59 55 50 45 45 45 46 48 54 52 50 46 45 44 44 45 43 42
98 96 100 96 90 92 98 100 98 95 89 79 76 70 75 73 67 67 64 54 55 56 75 74 76 68 66 65 56 52 47 41 44 40 39 38 43 46 46 49 51 50 54 56
97 94 100 95 92 94 98 99 100 98 90 82 88 73 70 70 64 61 65 64 64 64 67 75 72 69 64 76 64 46 40 39 41 40 38 41 43 46 44 48 50 49 50 55
98 94 100 94 92 96 99 94 99 100 90 89 99 87 75 70 67 69 66 64 75 72 76 77 71 71 69 65 63 46 43 44 48 46 47 52 50 54 49 53 55 54 54 55
89 98 99 94 96 100 98 97 99 100 94 88 100 100 92 74 79 81 73 75 73 83 80 78 70 73 65 72 53 43 46 50 50 49 52 47 46 52 58 61 64 66 58 58
94 100 100 99 98 98 99 94 100 90 93 98 98 100 100 78 91 82 77 77 84 81 79 74 76 69 89 69 61 54 54 56 57 68 67 65 70 80 84 79 63 50 52 54
100 99 98 100 98 96 85 92 97 99 96 94 91 80 100 88 89 96 86 90 97 100 94 84 92 83 62 59 55 51 55 57 76 90 99 100 99 96 74 55 41 44 53 56
98 97 97 100 99 78 90 100 98 90 98 88 82 74 93 81 89 91 87 97 98 100 89 92 87 78 69 68 64 57 60 66 61 54 63 64 67 61 52 51 53 54 58 61
89 92 93 81 83 91 96 99 99 95 90 89 86 83 71 84 80 89 87 98 92 98 73 93 86 67 68 68 65 62 62 61 60 55 54 54 55 47 49 55 60 62 68 76
91 89 99 85 97 98 100 98 94 92 96 100 98 98 80 77 78 89 82 98 90 76 87 87 74 72 73 72 68 64 60 56 51 47 46 49 53 54 57 61 62 66 69 77
98 100 100 99 100 88 88 78 92 84 97 98 94 93 85 74 87 76 98 79 75 88 90 78 57 66 68 74 71 62 58 52 54 54 57 60 57 58 58 61 64 66 69 78
100 99 100 100 94 96 94 98 96 98 92 90 93 93 78 90 94 73 83 93 90 77 71 69 76 80 77 78 65 54 55 53 52 51 55 57 58 57 62 65 65 63 66 63
100 100 97 92 97 98 97 99 100 97 84 88 88 97 98 96 86 90 86 82 81 76 91 78 72 70 72 75 58 55 54 52 50 49 50 51 53 53 55 55 56 57 56 57
100 97 75 86 91 92 87 83 97 78 83 99 94 95 94 81 91 87 73 81 84 89 80 70 69 75 74 67 57 55 54 50 49 51 52 56 59 59 57 59 60 54 51 52

GFSNW_925_rhum_027.txt.gz
RH
98 86 97 89 91 98 100 99 94 100 99 98 97 100 85 72 79 77 89 92 95 93 77 86 77 85 66 50 63 85 92 99 99 93 79 69 71 75 78 86 100 86 60 51
94 92 96 90 96 96 97 97 98 100 93 98 98 86 77 79 82 93 95 95 90 72 72 87 60 54 47 58 69 85 93 99 100 99 96 91 94 82 74 87 82 69 65 52
96 92 98 99 94 91 87 98 98 99 98 93 90 91 90 95 86 93 89 90 85 87 84 72 73 51 52 63 59 68 82 98 100 100 91 86 97 94 86 77 81 71 60 56
97 98 94 97 98 95 82 97 94 84 98 98 90 86 93 97 99 93 91 95 91 83 89 75 66 54 51 60 56 71 89 99 96 92 81 72 75 74 76 83 77 65 51 50
92 97 98 98 96 100 91 98 98 85 89 79 96 95 96 95 94 93 95 96 82 83 84 67 48 55 60 66 60 62 73 98 89 92 65 66 68 65 71 70 66 58 57 50
88 99 99 92 88 99 98 95 88 83 87 84 94 95 94 84 86 84 82 86 85 84 76 64 56 54 51 50 62 59 65 79 88 84 68 65 72 69 67 65 57 56 62 48
90 99 99 96 99 96 88 85 79 89 94 87 88 83 79 86 87 91 80 82 87 69 55 54 56 59 59 70 64 59 74 72 79 84 58 73 46 38 52 64 55 55 49 40
91 99 97 99 98 100 89 77 85 92 94 82 81 86 76 89 86 88 85 79 72 66 55 78 88 86 71 72 68 72 58 70 81 76 76 58 42 38 40 47 48 44 51 46
91 98 97 99 97 99 96 74 81 93 92 88 73 74 86 90 92 99 94 72 78 67 73 82 98 100 91 91 79 73 68 69 84 89 83 74 45 38 34 36 56 47 42 54
89 97 95 94 96 100 100 91 82 90 95 82 86 73 83 89 95 97 95 91 91 84 87 91 87 90 79 96 97 93 88 90 96 87 91 76 46 37 39 46 47 54 48 54
89 94 96 95 96 100 100 98 88 88 96 86 78 67 71 85 93 98 93 95 96 96 94 84 94 82 83 88 82 88 86 92 95 88 95 91 40 37 39 48 48 62 72 71
88 91 96 93 95 100 99 99 96 94 96 95 89 73 70 69 75 93 97 99 88 87 88 90 87 90 86 84 96 74 93 79 86 83 74 55 52 49 47 51 56 64 73 72
88 89 94 98 98 99 100 98 99 100 99 92 94 87 76 76 75 86 95 97 93 88 90 91 88 76 78 86 84 78 70 63 70 72 58 54 54 50 50 54 64 69 68 68
90 88 93 98 97 100 100 95 96 89 95 97 87 76 78 76 79 85 89 97 96 89 94 96 92 88 73 80 65 72 68 60 61 59 60 54 53 52 61 64 62 65 65 65
92 90 93 97 98 100 100 98 94 90 100 99 94 77 75 74 77 80 79 95 97 98 98 94 94 91 80 79 70 71 56 59 62 66 51 49 54 61 58 58 64 66 70 76
88 92 92 97 98 100 99 99 96 95 100 100 100 81 75 70 72 78 79 93 97 95 96 95 95 85 80 84 77 58 55 49 47 47 51 58 63 63 60 67 70 69 69 69
91 92 95 95 98 100 97 91 97 97 94 99 100 98 81 72 74 82 82 77 88 89 89 92 89 85 82 88 90 59 55 55 60 59 56 64 58 69 67 69 73 71 74 74
91 93 98 99 100 100 99 99 97 100 96 97 100 100 96 76 91 92 88 92 92 90 93 88 90 84 85 88 72 59 61 65 65 65 62 63 69 72 76 72 73 78 80 79
98 98 99 100 100 99 100 98 100 99 94 99 99 100 100 84 94 90 88 90 96 92 94 93 90 90 94 74 72 65 65 62 78 86 79 76 78 82 82 79 76 78 82 79
100 100 100 100 99 91 95 98 97 100 100 97 97 92 99 91 92 97 91 95 98 100 96 90 98 95 78 78 72 66 71 79 78 84 94 91 89 85 75 70 70 71 73 76
99 99 100 100 97 84 91 100 100 100 100 98 94 91 98 86 94 96 95 99 100 97 94 92 98 98 87 75 73 75 84 81 74 78 83 76 76 73 66 73 73 69 71 77
99 95 100 98 94 99 99 100 100 96 96 98 97 97 92 96 90 94 96 98 96 89 88 96 96 86 77 80 74 86 87 83 86 82 85 80 65 63 68 74 78 77 82 80
100 98 100 94 100 99 96 98 99 100 100 100 98 98 86 91 90 94 94 100 97 86 90 93 90 88 84 83 86 87 81 81 79 76 64 60 68 69 72 80 82 84 86 81
99 100 99 96 99 95 88 82 91 91 99 99 94 97 92 88 92 92 88 94 87 96 99 89 93 83 90 85 77 73 75 64 64 65 66 70 72 80 80 85 85 87 89 83
100 100 99 98 98 99 99 100 100 100 93 88 92 94 89 97 91 87 88 93 97 90 85 89 96 94 92 82 74 72 66 64 64 63 67 71 73 78 85 81 78 76 73 68
100 100 99 98 96 99 97 100 100 100 91 95 92 94 92 95 92 96 93 89 88 79 94 97 98 94 84 78 71 66 59 59 61 64 68 70 70 72 76 70 66 62 58 56
100 98 91 94 97 98 95 94 98 86 90 93 94 83 74 93 99 100 92 89 87 97 98 98 96 89 79 71 64 60 60 60 61 63 66 68 66 64 63 67 62 58 55 53

GFSNW_925_rhum_030.txt.gz
RH
71 88 100 96 99 97 97 96 99 100 100 98 97 100 82 67 76 77 83 83 94 95 94 95 85 86 65 53 56 90 87 100 98 89 75 71 72 74 69 76 70 70 98 74
71 90 100 96 95 97 99 98 97 100 90 100 98 94 76 75 81 82 89 95 91 83 92 98 79 63 53 56 62 93 93 100 98 99 99 84 81 70 62 53 80 72 89 71
76 92 99 97 98 94 99 98 100 99 98 90 92 89 83 89 78 78 86 93 90 92 96 78 86 72 51 56 60 77 88 100 99 96 91 89 99 84 70 61 88 69 95 85
79 86 98 97 99 86 99 98 96 85 90 98 90 81 83 88 97 84 87 96 95 95 95 90 90 73 66 68 66 85 92 100 100 97 94 95 78 90 83 78 68 78 61 80
77 82 98 96 93 96 98 99 97 85 84 85 87 87 93 91 91 93 97 99 86 94 94 81 62 61 59 65 70 86 88 100 100 99 84 94 93 82 78 82 85 92 69 59
72 83 92 95 99 99 98 95 86 82 86 85 92 95 84 87 80 84 79 90 95 87 88 74 69 68 64 60 70 75 86 98 100 100 77 90 99 94 88 96 84 80 74 47
70 83 91 96 97 99 100 91 86 90 92 87 87 88 90 92 86 84 82 84 93 75 60 64 68 69 69 65 75 63 68 75 87 98 67 74 48 41 58 60 58 53 54 41
69 84 91 97 98 100 100 89 82 90 94 80 84 87 88 86 78 91 87 73 71 67 72 87 87 82 79 73 68 76 75 76 93 97 86 59 44 41 51 64 59 57 56 54
73 84 92 96 98 96 100 88 80 88 92 91 72 83 87 93 89 88 91 86 82 71 82 86 98 98 97 90 83 78 73 74 87 95 83 73 47 39 36 38 58 48 46 60
73 82 88 97 93 95 100 85 76 84 91 85 86 90 87 86 90 96 96 95 96 82 94 93 93 99 81 96 87 96 85 85 92 93 94 76 53 40 40 48 47 51 50 58
74 82 91 95 97 95 100 95 87 83 95 87 80 78 83 96 93 96 91 100 97 97 94 92 93 87 87 89 83 77 90 93 94 92 94 78 46 37 36 44 61 69 70 73
74 81 92 94 97 95 100 100 94 88 94 94 93 81 71 74 78 89 96 98 95 88 90 90 86 91 88 82 98 78 88 81 87 82 76 59 53 49 50 55 63 70 82 80
73 84 91 93 98 97 100 99 100 98 98 92 97 86 72 77 86 76 97 98 95 91 91 91 90 82 88 96 90 83 77 69 80 73 60 56 52 51 54 57 70 77 77 76
76 86 89 92 97 97 100 98 94 87 93 98 86 80 80 81 80 85 96 99 98 93 96 94 93 87 77 83 71 79 77 71 71 73 57 55 53 52 65 74 73 74 74 72
78 88 91 92 96 98 99 93 90 87 96 99 97 79 77 78 82 84 94 96 98 99 98 94 91 92 86 83 75 76 60 68 69 72 51 51 52 64 65 69 74 73 74 77
94 90 90 92 97 94 100 99 95 91 89 98 100 84 77 76 82 85 90 93 98 99 96 97 97 87 84 92 85 57 54 50 50 50 54 64 65 66 63 73 75 72 74 72
90 88 91 94 95 100 99 90 90 91 89 99 100 98 81 73 80 85 85 89 96 99 98 94 91 91 87 90 94 64 60 58 62 60 58 66 61 73 73 74 76 75 79 78
89 91 95 96 93 99 100 96 100 99 92 98 100 100 93 76 92 95 91 93 93 91 95 90 92 88 88 94 75 62 66 66 68 69 65 64 73 74 78 74 75 82 86 85
92 96 96 99 100 100 99 100 100 97 90 99 99 100 100 85 94 91 90 93 96 92 94 95 95 91 94 74 71 66 69 61 85 88 81 76 80 85 84 82 82 84 88 86
99 99 100 100 99 93 89 97 98 100 100 97 98 92 99 92 92 97 92 96 99 100 96 92 97 96 79 78 77 74 71 80 78 84 93 91 90 86 82 78 76 76 79 81
100 98 100 97 99 86 92 100 100 100 100 99 95 92 98 87 93 94 95 100 99 96 93 93 95 97 89 77 78 76 82 80 72 71 73 70 72 76 78 80 79 76 69 73
98 99 98 100 96 100 100 100 100 99 94 99 99 98 92 95 91 94 96 98 97 96 90 97 98 91 79 82 80 85 86 83 84 80 82 78 70 69 74 77 79 74 76 74
99 100 100 100 100 100 98 96 99 100 100 100 99 99 90 97 93 97 93 97 96 87 95 94 91 88 84 85 90 92 88 89 90 82 69 67 71 67 69 78 77 77 76 73
100 100 99 99 99 93 92 89 95 92 99 99 92 97 92 89 95 94 92 91 87 98 100 84 92 85 87 88 85 89 91 82 73 71 69 71 73 79 77 78 80 79 82 77
100 100 99 99 97 99 99 98 99 100 95 88 91 93 84 96 92 86 90 96 99 89 79 88 95 92 93 86 83 82 77 72 70 67 70 78 79 85 93 90 84 85 82 77
100 100 99 98 98 99 97 100 100 100 92 94 92 90 86 92 91 96 88 88 83 75 91 96 98 93 85 85 80 76 68 66 67 70 73 75 78 80 83 77 75 72 69 65
99 98 98 98 98 98 95 94 97 90 90 92 94 78 73 92 100 99 90 83 83 96 99 99 97 91 84 78 72 70 70 71 67 69 72 75 75 71 68 69 66 59 57 55

GFSNW_925_rhum_033.txt.gz
RH
63 77 91 95 99 99 96 91 99 100 99 100 98 98 84 66 88 77 85 78 77 86 81 86 91 89 66 59 65 91 74 99 97 82 81 68 69 81 78 77 88 74 95 69
68 80 86 96 98 98 94 98 96 100 83 99 100 89 80 75 89 87 81 85 76 75 95 99 86 77 57 59 66 82 87 99 97 95 96 97 100 96 95 69 62 72 69 50
64 75 85 98 85 99 93 99 100 99 95 95 84 94 87 86 74 77 81 86 82 95 97 84 89 85 60 58 57 66 81 100 99 91 85 98 99 95 97 85 76 68 66 50
64 75 86 95 91 97 100 96 97 90 98 98 80 75 81 83 94 79 78 95 95 97 99 93 86 80 75 63 64 81 88 99 98 95 93 95 100 92 84 84 64 69 58 68
70 69 83 92 91 97 96 95 98 89 81 86 90 86 88 80 79 92 95 97 86 94 98 75 82 79 73 62 82 85 92 98 100 97 84 95 100 97 77 72 60 63 75 67
66 68 84 89 97 97 98 92 88 85 88 85 92 93 85 80 79 86 78 92 96 96 87 70 72 70 75 72 76 91 96 99 100 98 99 97 100 95 78 76 65 59 90 67
65 70 84 89 99 96 100 95 99 92 95 83 80 84 77 84 80 92 83 80 92 75 66 67 76 78 82 79 71 74 90 97 99 100 89 97 71 78 78 79 78 77 78 72
65 70 82 88 98 98 100 100 99 90 93 82 82 84 85 81 82 93 88 83 72 68 82 92 90 85 77 82 79 79 70 83 97 100 98 66 52 87 93 95 91 81 80 77
66 69 82 89 97 97 100 100 99 89 91 89 78 81 84 93 95 93 93 84 85 83 88 89 95 97 84 81 75 80 84 88 93 94 98 79 49 43 44 54 80 63 68 65
72 70 80 91 96 94 100 100 94 84 91 86 79 89 90 88 92 96 92 92 100 86 90 93 94 89 83 95 71 83 94 90 94 94 84 78 55 50 42 51 49 51 51 62
78 73 78 94 94 96 100 98 92 86 92 87 79 80 87 95 95 97 90 98 99 98 99 97 93 94 90 88 79 73 79 91 94 88 97 74 54 41 40 45 63 68 68 65
81 74 80 92 92 97 99 100 93 84 89 90 91 84 78 78 80 93 97 96 98 87 90 92 91 91 90 88 90 81 90 80 88 86 79 60 55 53 54 58 64 72 79 84
76 76 78 88 92 97 99 99 99 89 97 92 95 91 79 88 88 86 95 96 90 97 91 90 88 86 89 92 90 84 79 77 82 74 62 62 52 52 62 67 77 84 83 78
81 81 89 90 92 96 99 100 97 84 90 97 87 89 84 82 89 97 96 98 97 98 99 96 90 88 80 85 80 83 78 76 76 78 65 61 55 54 72 79 79 78 77 74
90 94 88 88 91 94 98 100 96 84 93 99 95 90 79 88 94 95 97 97 98 99 100 98 94 93 87 88 81 85 72 77 77 74 59 55 53 66 72 74 77 74 74 76
84 91 91 91 95 90 100 99 91 91 85 95 99 93 80 84 89 88 92 95 97 99 99 96 97 86 85 92 92 65 59 56 56 56 56 66 71 69 67 75 76 73 74 70
84 86 90 92 96 98 100 97 99 96 84 99 100 99 82 77 82 88 88 94 98 99 98 97 92 91 86 87 90 66 62 56 58 65 63 68 63 72 74 75 78 77 79 74
85 89 93 94 97 95 98 96 99 98 90 98 100 100 93 77 94 97 93 94 96 92 97 92 94 92 91 94 79 69 65 71 71 74 68 65 75 77 80 77 76 82 84 80
91 97 90 98 100 100 98 100 100 92 89 99 99 100 99 86 95 92 93 95 98 92 96 96 95 93 95 75 70 68 70 64 83 89 86 81 82 86 86 84 82 83 88 85
96 88 99 100 97 98 98 99 100 99 100 97 98 92 99 93 93 97 94 96 99 100 95 95 98 98 81 77 77 72 71 82 80 84 95 93 93 89 87 80 80 78 82 84
95 99 99 96 100 98 95 100 100 100 100 99 95 93 97 88 92 92 96 100 100 98 93 94 91 95 90 79 80 78 80 82 72 69 76 70 73 80 86 88 85 82 78 74
98 99 99 99 99 100 100 98 100 97 97 99 98 97 92 95 92 94 96 97 97 93 92 97 95 93 81 81 83 84 86 83 77 75 77 77 76 74 77 78 78 76 73 67
98 99 100 100 100 100 98 96 99 100 100 100 100 99 94 96 89 97 93 98 98 88 98 97 92 87 82 84 91 92 88 88 88 80 75 75 79 74 74 81 74 71 69 67
100 100 99 99 99 98 94 94 94 94 100 99 94 97 93 92 97 95 95 92 88 99 100 85 91 82 83 90 91 91 95 86 81 79 77 76 75 83 80 75 72 71 73 70
100 100 98 97 99 98 98 98 98 99 100 92 91 93 84 96 97 88 94 98 98 92 82 88 91 89 94 89 90 91 86 82 81 78 82 82 80 88 90 82 77 76 74 67
100 100 99 98 99 97 98 100 100 100 97 93 92 90 88 88 92 96 90 89 84 76 92 94 99 94 88 88 87 85 81 77 77 76 77 78 79 81 86 83 80 74 65 60
99 98 97 99 98 97 95 93 96 89 93 94 92 84 79 90 95 99 89 83 84 93 100 99 98 93 90 87 84 83 79 78 74 77 79 78 78 75 74 75 72 66 61 58

GFSNW_925_rhum_036.txt.gz
RH
72 65 68 84 94 97 89 92 98 98 100 98 100 100 81 74 87 78 81 73 76 81 77 76 83 94 70 66 79 91 75 96 96 82 58 67 62 90 80 97 93 87 88 57
75 66 73 84 94 92 92 97 96 99 89 99 100 90 83 79 90 86 81 84 75 73 80 97 85 77 62 66 79 88 74 98 98 84 92 78 100 96 96 84 92 81 82 55
74 68 75 82 94 99 95 98 100 99 97 96 91 94 86 94 74 84 78 78 70 85 96 87 92 86 69 65 65 65 70 92 94 85 70 78 100 98 98 97 96 79 74 52
69 65 73 86 97 98 100 97 99 91 97 99 89 76 74 91 95 80 81 92 81 76 98 93 97 93 76 67 63 69 82 99 98 94 85 87 96 100 98 98 86 90 59 55
74 66 71 88 95 83 95 97 99 94 80 88 94 81 93 79 91 84 87 93 70 78 97 91 88 75 74 74 83 89 87 100 100 96 83 96 99 98 100 95 92 79 62 59
84 66 71 84 93 94 96 90 94 96 91 95 98 92 86 81 72 84 75 78 83 91 87 85 80 73 70 80 81 87 96 100 100 92 91 100 100 99 98 95 75 70 79 56
84 69 69 82 91 97 100 92 97 97 98 91 92 83 76 81 78 78 85 79 89 74 69 77 75 74 84 85 84 77 90 98 100 98 99 96 76 79 86 92 70 64 57 57
85 75 71 82 91 98 100 99 98 99 95 78 78 85 82 76 78 82 77 80 74 85 89 94 96 95 90 86 92 89 76 88 100 100 98 86 60 89 90 97 90 76 72 59
82 80 76 80 95 98 100 100 98 99 91 85 68 78 86 94 95 95 90 87 84 92 90 97 99 92 79 81 71 85 86 83 98 94 99 97 58 52 74 72 87 79 75 75
82 82 75 79 94 96 99 98 100 99 94 88 78 85 87 83 90 96 91 89 99 92 97 100 99 79 74 95 66 96 99 99 98 99 97 81 56 55 66 76 51 59 78 76
83 82 75 74 89 93 100 96 99 98 93 88 77 76 90 94 88 97 89 97 97 98 98 98 95 95 88 90 74 70 84 91 87 89 96 80 54 49 54 51 58 62 63 65
83 78 81 79 91 94 97 99 100 94 89 90 91 81 71 68 73 89 98 93 95 90 92 92 94 93 94 89 91 81 86 79 87 84 82 61 59 54 56 63 66 68 74 83
73 83 88 91 87 89 98 99 99 89 94 91 92 88 78 82 80 85 96 98 90 97 91 92 92 93 89 94 90 84 78 78 86 80 64 63 58 55 70 72 80 87 84 80
74 84 87 91 91 92 98 100 99 95 90 95 86 88 89 84 90 97 95 94 95 96 99 98 95 92 83 88 82 86 78 82 80 80 72 68 62 61 79 83 80 79 76 73
78 80 84 88 93 93 92 95 98 99 94 98 94 90 90 93 100 100 100 97 96 97 99 99 96 94 86 91 85 89 82 78 81 76 60 59 56 74 78 81 82 79 76 76
80 79 81 85 92 95 97 100 99 97 87 94 98 94 93 94 100 96 99 97 98 98 99 97 95 86 86 92 92 73 67 62 65 64 56 68 76 73 72 78 77 76 74 70
83 89 87 86 92 97 98 100 99 100 95 97 99 98 83 82 91 95 97 97 98 99 98 99 96 93 89 90 94 64 66 63 61 65 66 69 65 76 77 76 75 72 72 69
88 90 89 93 96 94 99 90 89 100 94 98 100 99 94 79 96 98 93 98 99 96 98 95 96 92 90 97 81 74 66 73 75 75 69 65 76 79 84 76 72 77 77 74
93 98 99 93 100 100 97 100 99 98 90 99 100 100 100 88 95 94 96 96 99 92 97 96 96 94 98 83 78 70 73 68 84 89 86 83 84 88 88 81 77 79 83 79
88 95 100 100 100 100 100 99 98 100 100 97 99 92 99 94 94 97 95 97 99 100 95 93 100 94 85 78 76 76 73 82 84 87 96 95 95 91 83 76 74 74 78 80
91 97 99 92 97 100 97 100 100 100 100 94 94 94 97 91 93 91 94 100 100 98 92 97 87 94 90 81 80 80 80 83 73 68 75 72 74 81 86 88 86 80 75 71
99 99 99 100 99 100 100 100 100 92 95 98 99 96 90 95 92 95 94 93 96 97 92 96 94 91 82 82 87 84 84 82 76 75 81 80 79 77 80 83 83 77 69 66
94 100 100 100 100 99 95 96 100 100 100 100 100 99 96 95 90 96 96 99 97 89 98 96 94 87 81 83 92 92 88 86 85 85 81 79 81 76 76 80 71 66 65 66
97 100 98 99 99 98 98 97 95 98 100 100 96 98 95 93 98 95 100 95 87 99 100 86 90 79 83 92 93 90 93 88 88 86 83 82 82 81 76 70 67 66 68 65
99 100 98 100 99 99 98 98 99 99 100 96 92 95 86 97 97 88 94 97 99 95 85 86 91 90 96 92 94 94 91 90 89 85 86 84 78 77 76 72 71 69 66 63
100 100 99 99 98 97 97 99 100 100 98 95 94 92 92 94 94 95 97 95 90 80 92 94 98 96 90 92 92 90 89 89 86 82 81 78 75 79 82 74 68 64 62 61
99 98 96 98 98 99 95 93 94 91 95 97 94 86 80 90 97 99 89 86 84 92 100 100 99 96 91 91 91 90 88 86 81 78 78 80 78 73 69 72 70 65 62 59

GFSNW_925_rhum_039.txt.gz
RH
84 77 73 72 81 98 86 95 99 84 96 99 100 100 82 78 87 78 80 73 74 76 79 80 76 77 79 66 80 88 77 92 98 82 68 66 64 72 79 96 93 92 81 62
84 78 68 74 83 96 95 98 98 100 71 97 100 94 87 85 85 81 76 84 76 75 83 89 75 74 62 74 79 87 78 97 95 80 80 78 94 79 70 94 94 95 93 58
82 81 71 74 87 98 100 99 100 99 95 95 83 98 96 95 79 84 77 82 70 80 86 79 83 79 67 70 71 66 65 96 87 85 61 62 98 97 99 98 96 76 88 60
84 84 68 75 86 95 100 97 100 94 100 98 82 84 76 93 93 83 78 89 75 77 86 86 90 74 77 74 66 67 85 100 90 78 76 82 96 97 96 98 88 94 59 67
81 84 71 75 86 91 95 98 98 92 84 93 87 87 82 79 90 88 95 84 84 76 87 74 90 81 79 76 77 75 88 98 98 96 82 82 99 95 100 97 88 94 80 76
82 86 76 75 84 96 92 87 96 98 90 96 99 95 88 80 80 80 72 79 80 78 78 72 71 72 75 77 82 88 89 97 100 95 78 84 94 97 99 96 88 80 94 69
85 83 80 77 83 96 99 95 99 98 100 96 91 83 80 81 78 88 85 76 81 72 73 70 82 80 84 83 81 78 86 92 100 96 93 93 65 83 87 96 84 78 69 59
80 82 83 76 85 95 99 99 99 96 96 92 87 82 80 76 77 81 78 81 70 80 86 94 91 92 98 93 86 87 85 87 100 100 98 78 59 64 88 95 82 80 70 63
84 85 84 75 79 91 99 99 100 100 97 92 76 89 85 89 90 90 81 78 89 92 92 97 100 95 81 83 92 92 93 84 90 99 99 97 65 62 71 78 86 74 69 68
83 84 79 85 81 91 98 99 100 97 99 86 74 85 91 82 89 92 92 94 99 93 97 100 100 89 74 94 69 99 99 91 95 96 99 86 61 63 72 75 73 63 74 73
86 75 84 88 91 89 94 96 98 99 95 88 78 74 88 89 87 96 93 95 98 98 99 100 98 93 89 92 77 68 86 96 94 89 96 92 56 53 57 51 62 67 68 77
79 77 78 89 91 92 94 95 86 99 97 86 90 80 73 67 70 86 95 90 92 90 97 97 92 95 96 91 91 83 83 78 85 78 77 60 63 60 54 66 70 69 76 74
75 75 74 79 81 92 94 98 92 100 96 90 90 83 80 78 70 65 93 97 87 96 94 93 91 99 92 98 95 82 78 79 86 81 64 75 64 58 70 80 82 85 84 79
78 83 81 79 81 88 96 99 92 100 96 94 84 87 88 86 87 87 90 93 98 96 98 99 96 92 83 89 81 86 80 84 81 82 72 69 66 63 77 82 78 75 71 70
79 78 80 84 84 86 92 88 91 98 100 98 92 88 92 92 98 100 100 99 96 97 99 99 97 94 87 91 88 91 86 81 82 76 61 61 60 73 77 80 80 73 69 69
79 86 83 86 86 90 94 98 100 100 100 96 99 93 96 98 100 99 99 98 97 98 99 96 93 86 87 96 95 73 74 70 66 65 63 75 77 76 74 80 79 71 67 64
82 88 92 82 84 90 96 96 97 96 99 98 99 96 90 91 95 98 99 98 98 99 97 98 98 94 91 95 94 67 68 64 64 60 70 71 72 76 77 75 73 68 65 61
87 93 95 87 88 92 98 79 80 90 100 98 100 99 93 84 97 99 95 99 99 99 98 97 98 96 95 98 82 73 67 69 71 72 67 66 76 79 80 73 70 74 72 65
92 91 96 95 98 99 97 100 99 98 94 100 99 100 100 88 95 95 99 96 99 94 98 97 97 96 99 83 79 72 78 73 76 88 85 82 84 85 83 79 77 74 75 70
83 91 98 99 98 96 100 100 98 99 98 98 99 92 98 93 94 97 95 97 99 100 96 95 99 98 82 81 78 79 74 80 83 91 98 98 96 90 81 73 71 70 70 68
88 97 99 95 96 99 98 100 100 99 100 93 87 95 98 92 95 92 95 100 100 98 91 97 95 95 88 84 82 84 80 85 74 69 68 75 73 77 81 81 76 71 67 64
96 100 100 98 98 100 100 100 100 100 96 97 98 95 91 93 93 95 95 93 97 95 89 96 93 88 81 84 88 88 84 82 76 76 84 81 78 75 78 76 74 70 66 61
88 99 100 100 100 99 99 98 100 100 100 100 99 99 95 93 90 96 96 92 91 90 98 94 94 86 81 83 91 91 86 84 87 89 86 83 83 77 75 74 69 64 63 63
96 98 98 99 99 99 100 99 97 99 100 100 98 98 97 94 97 96 100 96 89 98 99 90 92 76 82 90 92 90 90 88 90 91 86 85 82 78 71 68 66 64 63 61
99 99 97 100 99 99 99 98 99 97 100 99 95 96 86 98 98 90 94 96 98 97 87 89 92 90 97 93 93 93 92 93 93 89 86 83 76 73 72 67 65 64 62 59
100 99 99 98 98 96 96 97 98 99 99 98 97 95 93 95 94 96 99 100 96 82 92 94 98 98 91 92 92 91 92 92 92 86 81 78 75 74 75 70 67 64 59 57
98 99 95 99 99 98 98 92 93 92 98 100 97 91 89 92 99 100 93 89 85 91 98 100 99 97 90 92 92 93 93 93 88 79 76 79 74 69 67 70 67 62 60 60

GFSNW_925_rhum_045.txt.gz
RH
85 84 80 80 78 85 92 96 98 92 80 93 100 88 92 79 58 57 52 45 47 52 51 57 56 55 48 40 42 58 52 68 81 70 45 41 43 56 59 85 65 70 71 58
85 84 81 82 78 91 98 97 99 86 81 99 100 82 94 80 64 60 55 57 46 41 51 60 50 48 44 44 47 51 53 78 82 79 63 47 58 52 49 66 79 92 90 58
80 83 82 81 82 93 97 97 100 96 92 80 85 94 96 89 65 63 53 54 45 48 55 48 56 56 56 50 46 60 50 65 84 71 59 53 98 71 66 98 96 69 70 56
82 80 83 82 82 93 98 98 99 94 99 81 89 68 92 73 71 60 53 57 50 50 60 60 58 52 66 60 60 56 59 92 69 68 58 56 62 68 68 96 96 97 68 70
82 82 88 82 84 86 90 99 99 96 67 59 78 68 91 74 71 62 58 54 49 45 52 46 56 55 59 64 62 64 70 86 74 92 62 57 68 54 55 73 95 93 95 93
83 84 86 83 86 87 92 89 91 98 77 59 58 56 50 53 57 57 48 48 54 56 53 45 45 45 49 63 65 75 84 97 98 78 55 51 76 69 75 92 90 93 90 58
84 86 80 88 92 94 96 91 96 98 97 79 58 54 49 50 51 56 56 47 50 60 50 50 52 56 65 72 69 68 78 90 90 77 56 75 42 48 60 74 80 69 72 62
87 86 79 90 94 96 96 91 97 95 100 78 70 59 52 49 55 58 59 54 50 53 65 77 71 74 81 72 80 73 73 95 83 78 65 49 40 49 57 80 86 67 70 59
88 84 79 84 84 86 94 95 98 96 98 77 52 58 52 57 56 64 62 61 53 63 78 88 95 75 56 60 78 69 71 78 96 74 84 73 49 49 56 65 97 58 77 74
76 79 79 79 79 81 91 96 100 99 97 75 59 62 60 54 54 64 64 79 81 70 93 97 97 79 46 58 60 93 93 98 95 84 85 55 36 44 62 65 81 61 76 75
76 76 77 85 82 82 87 93 98 98 98 83 68 57 57 53 57 62 80 82 89 98 94 96 95 78 56 52 45 68 82 90 92 98 98 81 41 46 60 52 61 57 86 74
78 77 77 83 80 82 87 95 89 97 98 93 84 77 76 64 60 68 68 70 79 78 92 98 86 75 55 49 52 43 61 59 82 63 55 36 42 47 44 48 53 54 62 87
79 76 75 76 81 81 89 90 88 97 96 84 83 66 73 77 69 66 69 78 69 81 75 90 87 91 61 60 53 47 48 43 55 53 41 43 41 41 49 56 57 58 64 61
79 78 75 89 89 86 85 91 89 98 98 94 67 79 71 84 84 80 79 73 84 85 94 96 89 84 62 57 62 60 50 55 54 51 44 42 49 53 55 59 59 56 58 60
80 80 79 83 90 88 85 87 93 91 99 97 80 68 80 90 93 94 95 90 92 97 99 95 84 79 87 68 71 65 50 50 56 48 48 48 51 56 58 58 63 56 58 60
81 79 86 92 87 75 88 99 100 100 99 100 90 79 80 91 99 99 98 97 96 95 94 82 82 61 67 76 73 47 40 41 43 48 48 52 56 57 55 57 56 54 55 55
78 85 95 94 75 77 90 93 98 100 97 99 97 88 89 96 96 97 98 97 96 97 87 90 82 93 80 67 65 42 43 45 45 46 50 56 57 58 56 60 61 58 52 50
85 93 100 81 79 80 86 79 94 93 98 99 100 96 83 93 95 98 97 97 96 97 94 94 96 84 85 92 65 51 47 46 46 48 48 52 55 59 60 54 53 55 54 52
89 90 91 89 90 92 95 99 100 94 100 96 100 100 98 96 92 97 100 98 98 94 97 96 97 93 98 76 61 57 56 60 58 61 61 63 66 73 71 66 61 59 57 53
80 90 99 98 100 92 98 100 100 100 98 96 98 80 79 82 93 95 94 99 99 100 97 92 99 85 68 57 61 61 60 59 64 78 93 93 95 86 80 74 64 59 56 55
86 85 92 86 92 100 98 99 99 97 100 92 85 83 77 80 92 94 91 96 99 100 92 89 89 74 65 63 64 65 67 62 62 59 63 71 72 77 80 80 70 50 48 48
96 98 99 97 96 100 100 97 100 100 93 88 89 86 81 84 84 100 96 100 96 98 74 88 91 65 68 65 68 72 67 62 60 58 66 80 65 68 69 66 55 50 48 46
90 99 100 98 100 99 100 99 99 100 99 100 99 98 89 85 87 96 94 100 98 78 92 87 74 74 59 68 74 74 70 65 64 66 62 59 64 62 63 58 53 50 47 46
90 100 97 94 100 100 100 98 100 94 99 99 98 99 97 88 98 87 100 87 86 96 95 91 59 64 64 69 74 76 75 70 70 71 67 67 63 63 59 55 51 48 48 51
99 100 95 97 93 100 96 100 98 94 91 99 96 98 88 99 98 88 94 96 96 87 86 81 80 75 79 74 76 74 72 71 71 70 69 66 63 60 55 52 50 51 52 51
100 100 100 91 98 99 98 100 100 91 90 98 98 100 100 100 94 97 98 87 92 90 97 82 75 74 73 74 78 76 72 69 69 67 66 63 60 57 53 52 53 52 52 51
100 100 86 89 94 94 87 84 82 84 97 100 100 100 100 98 98 98 86 93 96 91 86 79 81 88 86 83 77 76 75 73 69 67 65 62 60 57 55 55 55 53 53 52

GFSNW_925_rhum_048.txt.gz
RH
85 82 80 80 78 90 92 95 100 93 73 94 100 98 80 92 85 54 45 42 47 55 53 60 53 60 50 42 44 56 50 70 94 79 54 53 55 62 66 89 82 85 97 71
84 80 79 84 77 93 100 98 98 82 83 94 96 83 94 92 91 59 52 49 42 41 53 66 52 51 44 44 47 58 57 84 80 71 63 49 62 58 58 64 80 85 90 67
82 81 86 81 83 95 96 98 98 96 94 92 76 85 99 96 68 59 49 47 41 48 52 47 55 61 52 48 46 55 51 70 90 95 74 71 91 70 64 80 98 74 75 66
83 83 86 85 88 82 90 98 96 95 95 98 76 83 90 85 71 57 51 54 45 48 55 53 54 63 65 56 64 51 61 90 77 76 66 60 67 73 76 88 84 95 67 69
85 87 81 87 89 78 87 99 99 96 91 85 75 78 95 78 67 65 53 55 47 43 52 51 54 54 60 68 64 64 64 92 82 92 65 62 77 67 66 66 70 95 94 95
89 88 82 91 94 90 89 85 90 99 80 82 79 77 81 65 60 56 46 49 54 57 59 50 49 51 47 54 67 68 84 90 97 86 63 60 76 65 63 83 84 90 97 78
90 86 82 84 90 88 98 88 94 96 87 81 58 50 50 61 64 60 50 45 53 62 47 50 52 55 64 65 67 58 74 84 88 95 72 89 48 54 62 72 77 76 80 67
77 81 81 79 81 84 91 99 96 96 97 73 65 54 50 60 61 59 57 59 59 55 63 70 74 82 76 71 68 69 69 92 100 85 66 58 52 55 57 70 84 76 79 80
76 76 77 80 87 84 88 96 99 98 99 80 68 61 60 67 67 66 73 62 59 61 79 79 83 88 61 84 79 69 73 87 100 95 91 81 49 54 53 70 98 68 84 83
78 78 78 80 88 84 86 94 99 99 98 83 71 69 64 59 58 70 79 78 77 69 90 88 94 76 51 65 83 94 98 100 99 95 93 70 41 61 70 92 79 64 82 84
79 79 78 76 79 83 84 87 96 98 97 87 70 65 72 54 62 74 84 85 84 95 93 92 91 88 63 60 70 78 82 92 92 92 96 92 43 52 66 62 62 67 84 78
79 79 77 80 81 82 78 89 89 90 99 91 87 80 75 71 66 74 76 76 79 82 91 96 91 83 67 66 66 57 76 69 74 78 72 46 46 52 49 55 60 58 62 85
79 78 77 76 86 90 87 83 89 95 98 95 96 81 73 70 68 69 80 81 70 78 77 89 90 86 76 78 69 61 51 51 66 68 52 52 55 54 60 63 65 61 63 78
79 78 78 76 81 85 90 90 88 91 98 100 82 72 70 77 80 78 78 74 81 83 89 91 94 93 77 76 74 73 63 55 61 63 55 52 58 61 60 64 60 59 59 66
82 81 79 78 89 75 85 85 87 88 98 99 88 69 77 86 88 90 88 79 90 96 99 96 87 81 89 83 82 86 60 66 70 65 55 56 65 62 58 62 63 59 62 70
84 82 80 90 94 74 82 97 100 100 100 100 96 80 81 89 94 91 93 94 95 95 95 83 86 67 81 94 87 55 52 51 49 58 51 62 65 62 57 60 60 59 62 66
84 83 94 99 92 76 89 96 99 100 98 100 98 95 91 92 94 96 98 99 97 99 94 88 84 85 85 87 81 52 49 47 46 53 57 63 64 70 62 61 62 59 56 56
84 90 96 76 76 77 83 82 82 88 97 98 100 99 89 90 97 96 97 97 98 95 94 90 90 92 94 98 78 65 61 57 55 54 54 61 65 65 67 64 59 60 59 57
89 87 87 81 82 88 92 98 99 100 100 100 99 100 99 97 94 97 99 96 98 90 98 94 97 92 98 84 73 72 64 62 67 70 70 69 74 76 72 71 67 58 58 57
87 92 99 98 96 92 96 100 100 100 100 99 97 85 91 93 94 97 98 98 98 100 96 96 99 94 72 72 72 71 72 67 76 84 90 84 94 84 75 65 59 56 55 52
86 83 90 87 91 100 99 100 97 99 100 95 91 87 91 84 95 96 97 99 100 100 96 96 97 92 79 69 70 74 75 74 71 68 68 83 78 73 74 70 62 62 52 49
92 98 99 99 98 100 100 98 100 100 99 96 95 93 89 90 90 99 98 100 99 100 82 91 95 85 77 75 76 81 80 74 64 63 71 80 74 78 76 72 66 53 49 48
92 100 100 99 100 100 99 99 100 100 100 100 100 99 95 91 96 97 97 100 99 91 100 98 92 77 66 76 82 86 78 71 68 69 67 82 80 72 68 65 63 50 48 47
90 100 98 92 99 99 100 99 100 99 100 100 99 100 98 92 100 95 100 96 90 99 99 95 87 82 81 80 81 82 87 78 75 73 72 75 75 72 59 54 49 48 48 50
97 100 95 99 98 100 100 100 100 100 99 100 100 100 94 100 100 95 99 98 98 94 95 100 94 88 88 87 87 84 81 78 77 74 74 72 66 62 58 52 49 51 51 52
100 99 100 98 99 100 100 100 100 97 96 100 100 100 100 99 99 100 96 91 87 99 98 96 92 92 92 88 86 85 82 80 76 74 72 68 65 60 55 52 54 54 53 53
100 92 90 95 97 99 100 89 97 97 98 100 100 95 86 98 100 99 91 94 99 100 97 96 90 94 91 90 87 84 84 82 76 71 69 67 59 56 57 59 58 54 54 53

GFSNW_925_rhum_051.txt.gz
RH
86 80 83 79 84 93 93 96 99 85 79 93 100 100 86 96 94 83 78 59 59 62 68 71 62 75 59 46 52 64 54 75 94 84 62 58 66 73 65 91 76 94 94 83
84 82 84 84 90 97 92 98 96 78 79 98 96 93 96 97 89 77 56 54 48 52 59 69 57 58 49 45 49 55 60 80 80 82 68 64 78 67 68 70 87 93 94 74
87 85 83 91 92 99 82 94 98 92 92 91 98 98 100 99 77 78 52 48 45 51 61 64 69 66 58 52 54 60 51 75 83 89 78 77 84 71 72 78 98 79 83 63
90 87 84 92 88 85 83 98 99 98 99 97 96 94 96 92 77 64 54 51 52 55 62 64 69 69 68 65 58 56 65 91 81 80 76 74 76 79 76 84 71 90 61 62
90 88 84 86 85 75 84 95 100 97 97 90 84 97 97 95 68 71 58 57 51 57 65 58 69 70 69 72 65 64 71 90 80 93 72 75 83 72 73 73 70 67 66 74
76 83 85 81 85 83 93 87 87 98 94 88 97 97 92 81 66 58 53 57 71 76 71 60 59 54 58 66 75 69 82 82 96 94 66 69 85 73 73 72 75 67 91 76
77 77 80 81 88 86 90 90 95 99 93 87 77 65 64 69 67 63 62 67 74 64 51 54 59 69 74 72 69 70 85 75 93 98 82 88 54 51 59 70 72 77 76 74
78 79 78 81 90 86 87 97 94 97 96 89 77 66 67 70 66 71 78 72 67 61 69 72 82 84 77 82 76 74 67 80 95 89 89 65 55 61 60 74 79 73 78 69
78 80 80 79 82 87 84 94 100 99 99 87 93 78 64 74 75 74 78 72 65 69 83 81 82 91 71 92 89 69 76 78 97 96 94 88 58 54 59 72 94 73 75 83
79 78 79 80 82 82 84 88 90 100 98 88 86 82 76 68 68 78 80 80 74 75 87 90 96 86 61 92 93 97 96 97 99 83 96 76 53 58 71 85 74 67 78 89
77 78 79 78 76 79 86 77 99 94 98 91 82 74 86 82 72 82 85 82 85 91 91 89 86 92 79 68 80 82 85 93 95 88 97 92 46 71 70 61 59 66 82 82
79 79 77 78 79 80 87 79 80 88 98 93 83 78 76 78 71 82 80 80 82 84 91 92 91 84 82 78 82 71 80 76 86 80 74 50 47 52 62 61 66 67 71 89
80 79 76 77 78 82 88 89 80 95 98 95 98 85 71 74 72 70 82 84 74 81 82 88 90 96 81 92 81 72 64 56 72 74 59 58 53 64 63 64 66 62 65 89
79 79 78 80 78 86 84 92 86 89 96 99 88 72 73 78 76 74 74 76 81 83 87 88 92 94 84 90 85 84 73 61 65 68 61 61 62 63 62 66 60 61 60 79
83 82 82 80 82 88 76 74 74 75 95 99 96 79 81 83 82 87 83 79 89 95 99 98 95 85 85 88 90 95 73 73 76 75 57 61 64 64 60 63 62 61 68 89
86 84 81 86 96 77 78 96 100 90 96 100 99 83 88 93 93 90 85 92 92 93 96 94 87 76 81 96 93 67 66 60 59 61 56 63 67 61 59 64 63 64 74 84
86 84 88 96 93 91 88 94 99 100 96 100 99 97 92 92 94 96 98 98 97 97 96 93 90 84 84 92 84 62 54 57 55 55 63 68 71 70 62 64 64 63 62 64
86 92 91 86 78 83 82 74 76 82 98 98 99 99 92 92 97 97 97 99 98 99 95 91 91 88 88 93 80 78 72 69 66 62 61 64 70 71 70 66 63 66 63 61
92 91 79 75 72 87 91 97 100 99 98 100 99 99 93 94 94 95 99 93 99 92 98 92 95 90 99 83 80 79 71 70 68 76 74 75 75 78 75 69 66 65 63 63
88 92 99 99 92 98 96 100 100 100 99 99 99 90 95 95 94 96 98 98 98 100 96 98 99 96 78 76 76 78 81 82 74 76 84 82 90 82 77 72 62 56 57 55
84 90 89 88 92 100 99 100 100 99 100 97 93 91 90 87 96 94 96 99 100 100 99 100 100 99 81 75 79 83 87 86 84 82 72 79 79 81 74 66 59 55 52 50
86 98 99 100 98 100 95 100 100 100 99 97 96 95 92 92 92 99 99 100 100 99 96 100 99 94 74 77 82 85 84 86 79 68 70 79 77 69 68 67 62 55 51 53
98 100 100 100 100 100 100 99 100 100 100 100 100 100 97 92 96 99 98 100 99 98 100 99 100 84 76 82 86 86 87 85 76 76 77 79 80 78 76 78 72 52 49 48
99 98 95 90 99 99 98 100 100 100 100 100 99 100 99 94 100 98 100 97 93 99 98 99 97 92 87 87 84 85 87 91 81 79 80 92 78 73 72 77 71 56 49 51
98 97 95 99 99 100 100 100 100 100 100 100 100 100 98 100 100 96 98 98 98 97 99 99 96 94 94 90 86 87 88 87 85 80 77 77 72 63 59 54 51 50 52 52
99 99 100 98 98 99 100 100 100 98 98 100 100 100 100 97 100 99 95 92 92 100 98 97 94 91 90 87 87 88 86 84 83 78 74 69 65 61 56 53 56 54 54 55
99 86 92 99 99 100 100 92 98 95 99 100 100 99 94 98 99 99 94 95 100 98 94 98 91 93 92 90 90 90 92 89 85 77 75 71 62 57 59 68 70 70 60 54

GFSNW_925_rhum_054.txt.gz
RH
89 86 82 86 91 91 78 90 98 81 84 90 97 100 100 97 97 87 86 62 67 75 73 72 72 76 66 52 56 68 58 81 94 88 65 60 67 76 71 90 73 95 88 74
89 88 84 87 92 97 84 95 95 75 74 99 98 90 99 98 96 86 67 58 53 57 68 72 65 65 50 53 55 66 59 77 92 85 69 68 78 76 71 73 86 94 92 71
89 89 86 85 90 88 80 94 95 90 92 94 99 100 100 98 80 88 54 55 51 58 68 65 71 65 67 53 51 62 59 73 79 86 74 80 87 80 79 81 97 87 86 65
76 81 85 84 88 69 80 96 98 97 92 92 96 94 97 77 78 59 62 57 60 63 80 70 79 71 66 63 61 61 63 87 86 82 76 74 73 76 80 87 72 87 64 68
78 78 83 84 89 66 80 97 98 91 98 89 96 94 96 84 71 70 70 83 63 66 72 67 77 75 74 68 62 68 69 84 76 89 74 81 89 80 79 76 71 70 67 68
78 79 80 84 92 71 91 87 87 99 83 88 96 96 89 86 72 68 68 64 73 77 74 67 60 57 61 66 72 79 74 86 92 92 71 72 90 80 77 73 72 64 78 59
76 79 80 81 90 89 85 90 98 97 92 92 83 75 79 73 72 77 74 72 74 66 52 54 60 71 74 68 70 68 87 76 92 97 83 94 56 59 62 68 62 63 62 68
78 77 76 80 82 88 79 93 100 98 94 93 84 87 74 71 75 82 84 80 74 64 69 76 84 82 73 83 70 72 68 76 91 87 99 71 56 63 67 77 72 70 73 70
79 78 77 77 81 83 82 99 92 99 99 86 92 94 70 79 80 83 80 72 71 70 85 83 82 81 78 86 92 73 79 81 94 94 97 85 59 55 64 68 93 71 74 74
77 77 78 76 78 79 89 85 89 99 98 82 91 91 81 70 72 86 82 76 73 73 88 92 95 85 69 92 84 99 100 100 100 91 87 82 55 51 70 83 70 65 73 82
78 78 78 78 77 80 92 76 92 91 98 89 83 80 88 83 78 84 81 78 82 89 85 80 86 90 82 77 76 88 92 96 94 90 96 93 48 75 72 61 65 66 79 82
80 80 79 77 78 79 87 79 82 78 98 93 85 81 77 82 76 84 81 80 82 81 89 89 89 80 85 81 90 72 88 76 88 79 75 52 48 54 56 64 70 66 73 86
80 79 78 77 77 79 84 86 84 96 97 94 99 91 69 72 75 75 82 86 72 79 82 88 90 92 86 88 88 78 72 61 74 73 62 63 57 56 63 64 66 63 66 86
80 82 79 78 81 79 86 93 85 86 94 100 86 78 77 80 79 78 76 73 82 83 85 86 90 96 83 86 83 88 78 63 66 78 62 59 64 61 62 65 61 61 62 89
78 83 81 77 76 77 83 82 78 77 94 99 95 80 78 86 83 86 82 79 88 92 94 94 93 86 86 88 93 96 80 77 84 82 59 58 60 63 62 65 62 62 78 94
85 84 84 79 85 84 84 95 99 80 79 100 99 79 89 94 91 91 86 90 91 92 94 94 88 74 84 92 92 64 68 66 60 67 58 64 64 62 60 63 62 64 83 85
90 87 87 90 94 98 87 95 100 96 92 100 99 96 91 93 94 96 98 96 96 96 97 97 91 88 86 92 95 64 52 60 65 62 64 67 69 65 63 62 66 67 73 81
90 93 96 88 76 90 92 73 78 85 97 97 100 98 87 93 98 98 96 99 99 99 95 96 96 87 91 98 86 76 78 73 72 76 67 70 73 70 69 67 66 70 72 70
88 89 78 73 73 87 84 98 98 84 95 93 100 99 94 96 94 94 99 95 99 95 98 95 94 94 98 90 82 76 75 83 86 74 72 71 70 76 75 69 70 69 69 67
86 84 98 85 84 94 100 100 100 100 99 100 99 93 95 96 94 94 95 99 98 100 98 98 98 98 82 68 70 76 87 90 90 89 83 79 88 82 80 74 66 62 63 60
82 91 94 87 93 100 99 100 100 99 100 97 95 93 88 89 94 94 95 99 100 99 100 100 100 100 91 72 82 85 90 92 92 90 88 81 74 83 75 71 62 57 55 53
85 94 98 100 99 100 100 100 98 96 98 97 96 93 90 90 93 99 99 100 100 99 99 100 99 100 84 85 88 89 81 86 86 82 82 79 79 75 67 63 59 55 53 54
99 100 100 100 99 99 97 96 97 99 100 100 99 100 98 94 97 100 99 100 99 99 100 99 99 91 83 86 87 86 78 85 85 83 84 75 73 67 66 64 58 55 63 65
98 97 98 98 99 99 97 99 100 100 100 100 99 100 99 95 100 98 100 98 97 99 98 99 98 92 90 88 84 85 91 92 86 85 83 96 88 79 77 77 74 74 68 61
96 100 96 98 97 100 100 100 100 100 99 100 100 100 98 100 100 98 98 98 98 98 99 99 98 91 92 88 85 88 99 97 92 86 80 82 76 79 80 79 78 55 53 54
97 99 99 98 99 99 99 100 100 99 98 100 100 100 100 95 99 100 96 92 92 99 99 95 95 90 89 88 87 89 92 99 92 83 78 80 76 65 63 67 62 55 54 55
94 95 95 98 99 99 100 94 98 92 99 100 100 99 91 99 100 98 97 94 98 98 98 98 92 93 93 92 89 88 91 89 88 83 80 74 65 59 60 71 72 75 71 66

GFSNW_925_rhum_057.txt.gz
RH
84 85 88 83 90 94 74 90 93 71 84 89 98 99 100 98 96 81 90 61 68 78 70 68 72 70 63 55 58 64 61 80 97 84 65 62 67 74 74 86 78 97 91 73
78 77 78 84 91 94 90 93 94 74 77 99 99 98 98 96 96 88 77 60 58 56 65 71 67 66 52 56 57 65 58 78 95 85 68 70 75 75 70 76 84 98 95 63
79 78 82 84 91 93 91 94 95 89 92 92 99 100 100 93 90 90 65 59 56 61 75 69 73 72 70 58 52 60 57 74 78 86 68 81 92 85 80 82 95 88 86 69
76 81 81 85 91 80 84 95 94 98 98 92 94 88 80 79 79 66 66 60 63 70 77 74 82 72 68 64 68 62 64 85 82 75 74 74 76 76 88 84 79 85 70 72
77 77 80 82 89 72 80 96 99 91 97 86 82 84 91 80 81 80 79 81 75 74 70 67 80 73 68 66 62 69 68 88 82 88 73 80 88 80 77 83 77 78 71 72
81 75 78 80 81 81 90 88 90 98 84 93 87 94 90 83 76 69 71 69 75 81 82 66 62 61 66 64 71 80 72 88 90 94 74 75 87 83 81 75 74 66 79 58
83 78 74 80 81 86 88 93 99 95 94 94 90 88 78 85 74 81 81 77 76 67 55 57 63 72 72 70 76 67 81 82 86 95 85 94 59 55 64 70 62 63 54 51
79 78 77 75 79 82 85 93 100 98 90 94 84 92 76 74 78 85 88 83 76 72 67 77 79 77 72 81 69 74 67 75 89 94 96 75 58 72 73 74 71 62 58 55
80 78 78 77 78 80 84 88 92 98 98 84 93 97 84 85 82 83 80 71 73 69 84 81 78 80 76 92 93 75 72 84 95 94 94 88 54 61 64 64 83 62 69 69
79 78 77 77 76 78 88 85 91 100 99 79 85 97 93 80 80 88 85 80 75 70 87 90 93 83 73 89 87 98 100 99 99 83 85 75 58 51 68 74 68 61 68 76
78 81 84 79 78 80 84 84 90 94 98 88 84 82 94 92 80 80 76 75 77 87 81 83 87 86 82 84 76 89 84 91 96 97 97 91 49 70 73 59 63 65 74 78
74 83 85 78 77 75 81 84 84 83 98 94 84 84 80 84 84 85 85 78 80 78 86 87 86 80 84 85 92 74 90 78 84 77 76 53 50 59 54 63 69 66 72 81
79 84 84 78 76 76 79 80 85 84 98 92 98 91 70 76 75 71 87 86 74 79 83 86 89 84 88 90 89 80 74 64 78 75 61 61 55 58 60 63 64 64 64 84
84 79 80 84 74 78 78 84 83 90 95 100 87 81 82 86 82 84 81 77 82 82 84 85 85 88 82 88 84 89 80 68 66 70 69 60 59 64 58 66 62 62 62 86
84 81 84 85 75 78 71 74 73 81 94 100 94 79 72 82 84 85 85 81 87 91 91 90 91 85 86 87 93 98 85 81 88 84 66 66 68 58 62 69 64 64 71 93
82 79 86 83 87 83 93 81 89 76 86 100 100 78 92 96 93 94 91 89 90 91 92 92 87 75 81 97 94 74 68 71 68 71 60 67 67 64 61 62 63 64 79 89
86 88 87 89 91 88 86 87 100 98 86 98 98 98 92 93 95 97 98 96 95 94 95 98 93 90 85 94 90 70 66 77 70 67 72 74 68 68 66 62 67 72 85 85
94 89 90 90 81 88 97 82 84 99 98 98 100 98 84 93 98 98 96 99 99 99 95 95 95 90 94 99 85 84 79 73 76 82 76 76 72 68 68 69 71 78 87 87
86 82 86 79 74 84 81 86 94 95 98 100 100 100 93 97 95 94 99 96 98 94 99 90 95 96 98 83 73 72 74 81 82 84 82 73 72 73 73 70 73 75 76 80
74 96 99 90 81 87 99 100 100 99 99 99 99 89 96 97 96 95 97 98 99 100 98 97 98 96 82 78 75 79 83 88 90 97 90 82 85 81 77 77 71 70 71 69
82 91 97 90 88 100 99 99 99 99 100 98 91 95 89 90 95 93 92 99 100 99 100 100 100 100 97 75 85 85 91 88 93 94 92 90 89 87 78 74 67 65 64 59
85 94 95 100 98 100 98 95 98 94 97 95 98 94 88 89 93 99 99 100 100 99 99 100 97 100 88 89 91 90 89 79 86 83 85 90 89 87 78 69 63 59 56 54
99 100 99 98 95 99 98 98 99 99 99 100 99 100 98 95 97 98 100 100 99 98 100 99 100 92 84 91 92 87 79 88 86 84 81 87 74 71 68 65 60 59 61 62
99 97 98 98 98 99 100 99 98 99 100 100 99 100 99 96 100 98 100 97 98 99 98 98 98 93 90 90 86 87 90 98 93 88 84 94 87 77 67 60 60 67 75 81
98 100 97 99 94 100 100 100 100 100 99 100 100 100 98 100 100 99 99 99 98 95 98 100 98 92 92 88 86 89 97 99 99 97 89 89 80 82 83 80 79 80 79 82
100 100 99 96 96 98 100 100 100 98 97 100 100 100 100 97 99 99 97 96 91 97 98 95 96 91 90 90 90 88 88 96 98 97 86 86 92 78 78 77 72 58 59 61
99 98 94 97 98 94 99 95 99 91 99 100 100 99 99 99 99 99 91 93 96 98 97 98 93 92 93 96 92 91 90 88 93 91 87 80 75 80 79 76 86 74 72 57

GFSNW_925_rhum_060.txt.gz
RH
77 81 80 82 93 95 86 90 87 68 78 89 99 99 100 97 93 86 68 62 72 77 69 73 72 72 62 54 56 66 63 82 95 86 66 62 66 76 72 85 83 97 92 62
78 79 80 84 89 94 98 97 95 66 77 99 98 96 95 92 90 89 62 62 58 56 67 68 66 64 58 56 55 63 62 79 96 89 71 67 77 75 70 75 84 97 84 49
80 77 81 82 87 94 93 94 96 90 91 91 97 92 94 85 87 72 62 63 60 68 76 71 73 72 70 56 52 61 56 74 78 86 67 80 92 87 76 78 94 88 90 67
83 76 80 80 85 80 85 95 95 97 98 95 96 84 84 87 94 71 70 71 68 68 76 76 83 75 68 66 68 64 63 87 78 71 71 74 78 82 86 83 80 85 69 76
84 80 74 82 85 75 81 98 99 88 94 82 92 86 90 89 84 78 82 86 78 70 71 68 81 74 69 69 66 68 68 93 84 87 71 81 89 80 83 84 78 81 73 77
75 80 75 78 80 82 93 91 92 98 83 92 88 96 89 86 74 73 79 73 77 83 82 71 65 66 71 67 73 80 75 88 93 91 80 81 88 84 81 82 80 73 88 61
79 77 77 74 79 84 86 91 99 96 95 92 91 91 84 93 87 88 85 81 75 70 62 61 62 68 71 74 79 65 79 83 88 92 84 92 53 56 65 71 63 69 61 51
80 77 78 76 75 79 87 90 99 95 91 93 82 95 84 76 78 88 88 84 77 77 63 74 75 76 71 78 77 71 61 76 82 90 91 73 64 71 74 70 68 62 61 53
77 77 79 76 76 76 82 89 93 99 98 82 90 96 91 90 84 80 78 70 71 68 82 78 76 80 72 87 90 77 82 85 85 95 87 89 52 62 62 60 94 57 61 59
80 82 78 81 74 73 83 87 85 99 99 74 79 89 95 88 82 87 85 84 77 68 86 88 92 86 74 91 90 95 98 98 96 85 91 72 56 58 61 90 74 58 65 72
81 76 82 82 76 74 78 81 94 91 98 89 84 85 98 89 90 77 75 73 76 84 80 82 87 85 81 85 78 88 90 92 96 94 99 93 49 69 73 60 61 64 68 74
95 74 86 76 83 73 75 80 78 84 96 91 84 80 76 81 88 93 87 77 81 81 87 88 84 83 88 86 90 78 91 82 78 80 76 54 48 60 55 58 64 65 70 71
92 77 80 81 86 80 73 77 76 86 97 88 98 94 74 74 75 73 96 86 80 79 87 85 89 77 87 92 92 80 74 70 75 74 60 65 55 54 56 60 66 63 64 71
90 86 82 84 78 77 83 79 78 86 98 100 90 80 84 90 86 81 79 80 84 82 87 85 80 78 83 88 82 90 82 73 72 74 70 64 61 58 61 62 65 64 62 77
87 83 81 81 82 76 78 73 70 72 93 100 98 85 73 76 90 92 90 86 86 90 88 89 86 85 84 91 94 99 88 83 88 86 67 72 71 60 59 67 67 67 66 83
87 84 89 90 88 91 91 84 78 74 85 100 100 80 92 98 94 95 94 90 90 90 89 86 85 75 75 95 96 69 76 69 65 67 64 72 74 78 66 65 66 64 70 80
83 84 93 90 93 93 91 78 99 100 88 100 100 98 90 95 94 96 97 95 95 93 91 93 87 87 84 90 90 66 85 81 81 77 76 77 69 76 70 62 62 70 81 86
87 94 90 87 89 90 94 72 75 99 99 98 100 98 83 95 99 99 97 99 99 98 93 94 96 95 91 98 82 73 70 78 78 77 78 82 81 73 68 69 73 77 88 90
96 63 94 82 82 88 78 85 92 98 99 100 98 100 94 97 96 94 99 96 94 94 99 96 96 95 95 84 74 73 76 82 89 84 85 84 84 77 73 71 71 76 83 89
59 92 90 92 82 83 94 99 98 99 98 98 99 89 96 98 98 99 95 98 96 100 93 94 98 81 84 78 77 80 82 86 94 97 94 90 92 88 80 75 69 70 75 81
82 92 98 90 89 100 98 100 100 99 100 96 93 93 92 91 97 93 95 99 100 99 99 100 97 100 96 79 82 83 90 92 84 86 93 95 95 94 91 84 74 68 67 70
83 96 94 99 100 100 100 96 100 100 96 92 98 96 92 92 93 95 99 100 100 98 100 100 99 100 85 85 87 90 89 80 87 86 86 84 86 93 93 91 76 66 63 61
96 100 100 99 99 99 98 96 99 99 99 100 99 92 98 97 97 99 100 100 99 100 100 98 98 98 94 87 91 91 80 96 98 92 84 85 90 73 74 78 65 61 58 57
100 99 98 98 98 91 98 98 99 99 100 100 99 100 99 97 100 97 100 97 98 99 100 96 98 97 90 89 88 91 99 97 100 100 94 88 88 78 65 61 61 62 67 71
99 100 97 99 95 98 100 100 100 100 99 100 100 100 98 100 100 99 99 99 96 95 95 98 99 93 92 89 90 92 98 96 97 100 99 96 95 90 83 74 69 71 79 83
99 100 99 94 99 94 98 99 100 99 98 100 100 98 100 97 98 99 98 97 93 92 100 98 95 91 91 93 91 94 97 98 98 96 94 96 96 97 89 82 76 80 85 84
98 97 94 98 98 96 99 98 99 96 99 99 100 98 88 95 99 99 92 93 92 97 98 95 93 91 93 95 93 90 90 89 94 96 90 88 78 76 90 83 90 78 62 63

GFSNW_925_rhum_063.txt.gz
RH
85 78 79 81 88 95 88 87 84 58 68 95 99 99 98 95 92 88 85 62 71 76 70 72 75 73 65 55 54 71 64 82 95 88 66 62 63 74 68 82 82 90 86 48
82 80 77 83 89 97 98 98 95 62 75 99 99 87 85 89 90 80 60 63 59 61 69 70 69 68 63 54 54 62 58 80 92 85 74 68 76 73 68 73 82 94 69 43
83 84 78 83 88 96 88 94 94 92 92 91 97 100 94 87 76 73 65 63 61 68 77 73 71 79 70 57 63 60 56 73 76 82 65 80 92 86 74 77 87 81 84 57
83 82 77 80 86 72 80 95 96 95 98 95 92 88 90 90 95 72 74 70 73 66 75 75 85 74 70 70 67 64 61 86 78 67 73 74 77 85 80 81 78 79 64 72
81 74 78 78 82 70 81 98 97 92 93 89 90 89 91 92 88 82 84 85 83 69 76 73 82 74 71 69 68 66 69 97 82 85 72 80 88 78 83 74 74 74 72 72
83 75 79 77 80 76 92 92 90 99 84 93 90 96 91 91 77 79 83 77 80 85 83 74 64 66 70 67 73 79 74 86 87 89 79 83 92 84 81 82 80 70 86 64
87 77 78 77 78 79 85 91 99 97 93 88 88 91 91 92 90 85 84 82 76 70 63 63 61 71 74 74 76 66 78 81 85 92 82 94 52 57 66 70 67 72 66 55
90 74 78 77 75 77 79 97 98 98 92 89 82 91 92 78 78 88 87 82 79 79 63 73 73 76 67 81 85 70 60 75 86 87 95 69 73 72 76 74 73 62 62 53
94 74 74 78 75 75 73 92 90 99 98 85 88 93 94 95 87 79 76 69 71 66 82 76 75 76 68 90 91 76 80 75 80 97 90 79 52 64 63 63 96 59 57 61
97 78 82 87 76 76 73 86 90 99 99 78 83 86 98 92 86 88 85 85 75 66 83 85 92 81 73 87 88 95 94 97 88 94 96 75 52 52 59 90 84 56 64 70
93 94 71 83 77 74 71 75 86 92 98 90 85 84 95 92 91 91 78 73 76 83 80 81 87 85 82 83 79 85 89 93 92 92 98 88 50 61 76 63 59 60 66 72
91 94 79 77 82 79 75 75 73 74 96 91 84 79 72 74 74 98 91 78 83 81 88 90 88 84 87 86 83 79 90 77 73 72 71 53 48 57 52 54 59 66 69 69
91 92 80 78 79 85 79 73 74 73 93 75 87 94 74 75 73 77 97 88 84 82 85 86 88 72 86 92 88 81 75 72 75 74 60 66 54 54 53 54 64 64 64 66
90 89 88 81 80 80 84 84 78 74 91 100 85 79 82 88 83 80 79 82 85 82 90 86 82 71 83 88 80 87 81 78 78 79 71 65 62 61 62 62 62 65 63 69
92 85 85 80 88 89 84 83 80 74 88 98 98 90 74 82 95 92 89 91 87 90 86 87 84 85 87 94 94 95 90 82 89 88 69 70 70 64 62 67 67 65 66 73
92 90 82 79 83 92 92 83 79 84 70 99 100 88 91 100 99 100 98 94 91 91 90 84 83 76 74 96 94 74 79 76 71 71 70 73 72 78 71 71 69 66 67 74
89 86 83 95 93 92 90 84 97 92 75 99 99 100 85 98 96 98 98 95 94 93 88 90 85 85 84 92 93 70 85 77 72 81 79 76 72 77 78 73 65 71 78 82
94 94 95 84 91 96 99 91 94 94 92 99 100 100 95 97 99 99 97 99 99 94 91 92 94 93 89 98 84 79 72 75 78 81 79 84 85 84 76 68 73 72 80 88
95 83 69 99 87 89 79 81 90 90 99 100 100 100 98 98 96 96 100 94 99 93 99 96 92 92 98 89 75 74 80 86 86 89 86 86 87 86 82 72 70 74 76 87
67 86 89 89 80 77 87 99 99 100 99 100 100 97 100 99 98 98 93 98 98 100 94 94 99 98 85 79 78 79 82 83 88 96 93 92 95 93 88 85 76 70 70 75
83 91 97 88 92 100 98 100 100 100 100 97 95 95 97 93 97 97 95 92 100 99 98 100 99 100 96 80 80 81 85 89 92 86 86 88 93 97 97 93 85 78 71 71
77 88 89 98 100 100 100 99 100 95 89 98 98 95 91 93 94 94 98 100 100 96 99 100 94 98 84 82 84 86 85 80 92 92 89 84 83 86 89 92 95 91 76 67
90 100 96 92 94 99 99 96 99 94 100 100 100 100 97 94 96 97 100 100 99 100 100 95 96 98 94 91 91 92 85 95 94 97 98 89 90 84 72 80 84 79 68 64
99 100 92 99 98 97 96 97 97 99 100 100 99 99 99 97 100 94 100 98 99 99 98 96 99 97 96 89 89 96 94 95 98 98 98 96 97 92 80 64 62 61 61 64
99 100 92 98 93 99 100 100 100 100 99 100 100 99 96 100 100 99 92 100 93 93 94 96 99 94 90 88 97 98 98 97 97 98 97 96 97 98 96 90 74 71 73 74
99 100 99 93 99 96 98 99 100 99 99 100 100 100 96 93 99 99 94 98 95 88 99 97 95 94 92 88 92 95 96 97 99 99 98 91 96 99 100 99 93 86 90 88
82 88 93 98 98 96 97 99 100 99 99 99 100 99 88 98 98 94 96 95 90 96 100 93 91 92 92 91 89 87 88 84 90 94 97 99 91 74 76 92 94 91 75 73

GFSNW_925_rhum_066.txt.gz
RH
89 79 80 81 89 95 90 81 92 57 70 91 98 98 94 86 78 78 79 58 57 60 54 56 57 64 56 50 47 52 56 61 84 79 59 54 52 54 47 66 73 66 60 32
94 77 81 83 88 95 100 82 80 58 85 99 90 74 74 74 68 63 56 55 50 50 54 58 57 59 53 49 50 48 48 64 85 82 64 60 66 59 53 57 71 79 49 34
89 75 80 82 88 92 86 81 94 76 77 78 86 94 93 74 67 61 58 55 49 52 56 52 62 62 59 55 54 58 45 58 72 60 56 64 93 71 60 89 81 58 52 39
89 78 81 81 83 73 83 84 93 87 94 79 80 75 75 71 79 60 58 56 61 53 58 60 67 64 59 56 57 51 47 74 68 61 62 63 69 75 69 82 67 77 45 43
91 81 80 80 81 71 82 86 97 84 80 72 73 78 80 78 76 72 68 68 65 56 58 59 61 57 56 53 54 52 54 84 71 79 65 68 78 67 68 65 57 56 53 53
91 79 81 79 79 78 86 92 92 90 72 75 73 94 89 86 75 72 69 65 62 65 68 63 51 51 51 52 55 60 58 69 73 80 68 70 76 69 66 66 59 55 66 46
92 87 79 78 77 77 98 98 99 85 78 73 80 81 81 78 82 76 73 66 61 57 54 54 47 49 53 52 57 51 60 62 68 72 65 74 50 50 54 59 54 55 50 46
92 86 81 77 78 80 82 100 97 94 84 73 73 78 83 68 65 75 76 68 67 65 58 56 61 61 58 68 62 56 50 56 74 74 69 55 69 64 60 64 74 49 49 46
92 95 74 83 80 79 75 98 97 97 91 70 74 82 81 88 75 64 68 61 62 60 66 63 67 69 58 73 78 65 62 55 59 83 81 64 58 64 56 54 96 58 50 52
90 95 83 71 77 76 70 79 84 97 96 70 72 84 87 85 82 81 73 73 66 60 69 70 72 64 60 64 64 74 72 77 73 67 71 52 41 44 47 82 84 56 53 56
92 92 95 75 79 88 72 72 77 85 92 73 74 71 75 81 88 86 74 70 70 71 69 68 70 66 66 68 66 66 66 72 74 71 73 73 42 62 67 61 52 48 54 56
90 91 92 90 77 82 85 73 70 74 82 70 84 78 77 76 70 80 87 76 76 66 69 73 71 64 68 64 67 67 70 54 52 52 52 44 42 49 43 45 50 54 60 58
92 91 91 89 78 82 83 82 72 72 78 70 71 68 65 67 68 69 83 77 76 77 75 71 73 59 61 61 59 66 63 60 58 60 49 48 42 43 50 48 56 59 58 55
92 92 90 87 83 80 86 90 78 77 73 84 62 69 81 80 88 80 75 77 84 79 82 80 72 62 65 61 61 65 56 62 61 60 52 48 53 53 54 60 60 61 57 54
93 94 91 87 88 88 81 86 87 82 75 88 80 62 64 65 88 87 87 83 87 87 83 80 73 76 70 75 79 77 64 54 57 51 44 52 48 51 61 66 63 68 61 58
96 95 94 86 89 85 82 79 90 95 86 78 86 69 81 96 100 97 94 90 90 89 84 74 73 68 61 77 75 55 61 61 52 55 63 62 58 61 64 66 61 60 58 56
96 85 90 92 92 93 84 69 87 82 83 81 88 91 84 95 98 99 98 95 94 88 83 75 72 76 73 76 76 52 57 59 66 64 64 65 65 66 62 65 62 65 66 66
86 95 96 96 96 96 99 97 89 78 83 92 97 91 98 98 98 99 96 98 98 98 86 91 86 81 75 91 65 61 68 64 64 70 69 69 65 66 67 66 66 68 65 66
89 96 86 91 95 90 80 79 97 88 96 100 100 100 100 88 97 92 98 93 98 90 96 82 80 78 94 80 74 70 67 70 72 70 73 76 78 76 76 74 70 70 67 65
96 76 98 91 83 87 94 99 99 100 99 100 100 97 100 97 94 98 97 89 91 100 86 86 99 99 78 73 72 74 76 78 79 81 81 82 85 82 79 78 75 73 70 69
85 93 88 92 96 97 98 98 100 100 100 95 98 93 99 97 100 98 89 98 98 99 86 98 99 87 91 73 74 76 79 81 81 80 78 78 81 85 83 81 76 76 77 74
81 86 85 97 98 100 100 100 100 100 94 94 98 97 89 94 93 88 95 99 94 95 98 100 91 87 79 74 77 79 78 79 83 89 94 89 83 82 84 88 86 81 80 81
86 96 100 96 97 99 95 94 100 99 97 99 99 100 97 87 89 91 94 100 100 99 100 90 81 91 87 80 80 80 79 83 84 90 96 92 92 93 88 71 66 68 78 80
97 99 95 97 95 93 91 94 94 96 100 100 100 99 97 95 98 91 100 99 99 100 96 90 94 98 94 86 95 99 91 86 90 98 99 98 98 98 100 91 70 62 59 65
100 100 88 92 89 99 100 100 100 99 99 99 99 99 91 98 100 98 100 100 95 88 84 83 90 87 88 96 97 95 96 95 96 98 96 96 98 98 97 99 98 85 75 72
97 95 92 82 94 87 95 100 100 99 99 99 100 100 100 94 94 99 88 94 88 82 95 87 84 79 77 87 94 95 86 83 89 95 98 99 98 98 99 99 99 99 99 98
77 89 74 90 93 78 87 99 100 98 99 98 100 99 91 98 98 94 92 93 84 88 90 84 83 82 76 77 77 74 72 72 79 83 92 91 94 98 98 94 97 99 98 77

GFSNW_925_rhum_069.txt.gz
RH
92 83 82 84 89 91 84 74 90 70 78 85 93 80 75 78 64 69 71 53 43 45 42 46 49 53 49 44 40 45 47 57 80 71 52 49 46 48 42 66 65 58 61 36
94 84 82 84 88 95 91 65 65 64 73 96 80 65 61 61 56 53 49 47 43 39 44 52 48 51 45 43 44 42 43 60 83 74 58 53 60 50 43 49 76 77 47 38
93 85 84 82 87 91 83 69 95 61 56 62 76 84 83 60 55 49 47 44 39 40 44 40 53 55 52 50 46 56 40 50 70 61 58 58 91 59 53 86 80 49 46 33
89 84 83 83 84 81 85 71 86 77 83 72 68 60 57 55 61 48 45 45 46 44 47 48 57 54 52 49 51 43 40 67 61 52 52 54 64 68 61 88 65 76 38 34
89 90 82 82 80 74 73 90 96 81 72 60 59 67 70 65 61 61 54 52 48 42 46 53 52 48 46 45 44 44 44 75 62 80 54 56 70 58 59 60 53 47 42 43
89 95 83 82 82 77 72 77 86 89 65 60 62 81 81 76 64 59 58 57 50 54 60 49 41 41 41 42 46 47 47 58 66 72 60 60 72 60 57 57 50 46 58 41
90 93 84 83 82 81 85 96 98 85 73 58 64 69 68 68 69 69 59 54 51 52 46 44 39 42 44 43 46 43 50 52 57 60 58 73 51 43 47 52 48 45 43 39
86 96 87 80 84 79 72 96 95 92 87 60 59 62 67 59 55 63 62 59 54 52 54 53 53 53 52 55 50 46 42 46 59 67 56 46 61 57 54 59 64 44 46 40
74 88 92 71 83 79 68 90 89 92 94 61 62 68 63 79 61 56 60 52 52 54 56 55 62 68 51 61 69 54 51 46 54 69 75 60 62 60 48 50 85 51 45 48
76 80 91 88 70 87 75 81 88 87 80 54 62 68 72 68 73 70 59 59 59 54 58 65 63 54 44 56 56 66 62 60 65 60 63 49 42 44 43 82 86 53 48 49
78 85 83 95 89 81 83 75 83 72 70 55 47 56 70 63 77 77 71 65 66 63 68 62 57 57 48 53 48 51 54 57 61 58 63 67 51 57 54 61 48 48 51 51
87 75 77 86 92 87 86 74 78 74 74 57 55 56 60 60 61 78 76 76 63 55 61 61 57 54 53 48 61 50 60 46 49 47 50 43 36 45 38 41 48 52 56 52
94 86 90 91 92 83 83 78 80 76 68 61 53 55 50 50 54 70 79 66 66 66 64 64 58 56 48 53 51 49 49 47 49 54 40 39 37 36 47 44 51 55 53 52
96 95 92 92 89 87 84 85 86 82 69 86 53 49 62 70 66 58 60 60 77 74 72 69 58 54 50 49 54 54 49 52 49 48 42 42 41 41 50 54 56 60 57 52
99 96 94 94 87 88 92 88 80 84 78 76 69 52 38 37 54 84 78 66 76 85 80 73 60 60 57 53 62 52 44 47 54 46 40 40 46 48 51 57 59 59 63 56
99 95 96 94 86 90 89 71 86 85 88 99 79 47 58 66 65 79 77 73 79 90 90 67 61 55 56 63 62 43 42 43 40 40 51 50 52 52 56 59 60 57 56 54
97 92 84 90 90 95 78 69 89 85 97 89 80 74 60 65 87 95 94 85 91 88 74 72 64 64 67 61 64 41 41 43 46 52 56 57 52 55 55 55 56 57 58 58
99 98 94 90 96 91 90 84 92 94 80 75 92 78 90 84 95 91 89 97 95 94 71 80 70 62 68 74 52 46 42 50 58 57 60 61 59 57 57 60 60 63 61 57
98 95 99 88 90 91 75 80 94 92 78 98 98 98 100 92 95 77 95 93 99 91 93 79 73 66 80 60 56 53 58 60 60 62 63 65 68 67 66 66 67 65 61 61
99 99 96 99 86 80 90 99 99 100 99 100 99 84 100 98 96 88 98 93 97 100 85 82 95 85 55 62 63 63 66 68 71 75 77 77 77 72 65 67 66 66 66 65
99 98 97 98 90 99 98 100 99 96 97 93 85 81 93 96 100 100 93 100 97 100 85 90 89 82 82 70 70 69 72 73 74 76 75 72 71 75 76 74 69 70 72 70
97 98 99 96 98 100 100 97 99 99 86 89 99 98 95 95 94 99 98 100 99 95 88 98 87 74 72 68 68 72 73 74 76 77 84 85 85 83 82 83 82 79 76 73
98 91 99 93 95 100 96 90 100 97 89 98 99 100 98 94 95 95 95 100 96 99 100 87 71 83 77 71 70 74 72 73 74 81 94 97 93 92 97 96 81 66 61 62
99 98 96 94 89 85 84 92 100 100 100 99 100 100 98 96 95 91 100 94 100 99 95 88 97 100 100 97 100 100 89 81 86 90 94 97 98 98 99 98 99 89 66 61
100 100 88 79 69 91 98 100 100 99 98 100 99 100 98 99 100 99 99 100 95 86 80 82 92 96 98 100 99 93 97 91 91 95 98 99 97 98 98 99 99 99 98 83
100 99 92 74 90 90 93 93 100 99 98 98 100 100 100 99 97 98 90 88 83 85 96 88 80 79 83 92 99 100 87 83 86 88 88 91 95 99 99 98 99 99 99 99
82 82 70 72 88 76 73 81 99 94 98 93 99 99 99 99 94 92 88 90 92 98 88 81 76 75 70 73 71 66 60 59 69 71 79 82 85 85 86 89 97 98 98 99

GFSNW_925_rhum_072.txt.gz
RH
90 88 85 86 91 90 78 80 93 67 78 93 98 80 69 76 61 66 69 57 46 45 43 51 50 62 54 43 44 50 53 68 93 76 54 49 52 60 56 91 76 81 83 53
88 90 86 85 89 97 92 73 72 58 67 94 95 71 72 57 57 51 50 47 43 38 44 54 52 57 45 45 52 53 47 74 89 74 66 55 63 54 48 68 87 86 85 54
89 94 86 85 74 83 89 72 96 75 60 70 77 82 73 57 53 51 44 43 40 38 45 44 53 57 55 49 45 60 50 59 83 88 72 74 84 63 61 87 91 72 70 43
88 94 87 87 60 73 80 76 84 81 82 80 67 69 64 55 63 53 43 44 45 44 47 46 57 54 55 47 47 42 53 72 67 54 53 55 76 72 73 87 74 80 55 42
89 94 86 88 64 67 72 92 96 82 81 56 58 62 64 72 62 62 54 54 46 47 57 58 52 47 46 48 44 44 46 78 69 87 52 55 69 62 64 71 65 58 48 48
89 96 90 88 77 74 74 78 82 94 74 59 61 76 66 75 63 57 55 61 59 58 60 49 45 42 45 46 47 50 52 69 78 85 58 62 81 67 64 64 57 55 66 50
89 93 88 84 84 70 79 92 97 93 85 67 60 62 62 62 62 74 54 58 54 55 48 49 39 43 44 44 45 47 53 56 65 80 61 88 58 45 50 57 52 51 48 42
81 76 92 86 85 69 73 84 89 89 84 67 65 64 64 63 58 62 58 59 57 54 60 62 57 60 52 51 49 46 47 54 68 83 69 51 68 58 55 62 64 49 50 44
85 78 83 89 82 79 71 80 86 92 90 69 55 66 65 76 77 69 61 54 52 56 67 65 68 73 52 61 55 51 52 54 66 82 87 74 72 56 45 46 88 49 47 48
88 82 82 90 88 84 75 77 78 82 87 58 57 68 76 71 76 75 67 61 63 55 72 72 77 64 47 60 59 76 68 63 78 74 78 61 62 57 45 88 91 55 50 51
84 86 78 76 95 93 82 74 77 75 74 61 46 40 63 65 76 85 82 80 77 76 80 73 66 63 52 55 48 53 62 66 62 62 72 78 55 54 64 69 55 56 58 60
94 91 84 70 90 92 85 81 71 73 78 70 59 60 58 52 54 76 81 85 77 72 78 73 67 62 60 58 64 49 71 54 58 56 62 47 51 48 43 45 55 56 60 59
95 100 96 87 93 94 88 84 78 83 81 65 62 60 51 55 52 53 90 79 77 79 81 90 74 69 58 65 63 52 53 49 59 60 47 49 45 48 51 50 60 58 56 54
98 99 100 96 93 92 89 88 82 91 80 88 61 44 46 56 56 50 57 73 66 79 88 90 80 72 53 61 62 66 62 57 59 55 48 45 43 46 62 60 59 61 59 57
99 100 99 93 83 89 87 84 83 87 85 84 76 60 52 47 48 51 52 62 69 89 95 90 83 68 66 63 73 71 54 60 66 62 53 52 64 62 59 59 62 61 64 66
96 100 98 86 78 76 90 84 84 84 86 100 92 54 51 45 54 46 76 78 80 85 95 88 77 59 65 77 79 49 44 44 45 55 55 59 58 60 60 62 62 61 62 60
95 100 94 82 92 93 97 86 94 78 89 100 86 81 58 62 68 74 88 81 89 87 84 89 84 78 74 78 77 48 46 47 47 59 58 62 58 69 60 60 61 60 60 62
100 97 96 94 98 100 99 85 87 88 98 84 94 85 73 83 91 93 87 94 92 92 88 82 84 76 84 90 60 54 50 50 59 62 63 67 62 60 60 66 69 71 72 66
99 96 99 99 97 98 90 82 90 91 97 94 88 95 93 93 92 81 95 93 98 90 95 80 81 81 86 73 61 55 63 67 66 68 68 68 71 72 73 72 72 74 74 68
99 98 99 100 95 87 83 95 99 99 100 100 94 78 96 96 98 100 97 97 100 100 96 90 97 91 61 72 72 75 76 76 72 75 78 78 79 75 70 76 78 78 79 78
98 99 100 99 91 98 98 100 100 99 98 94 88 79 90 94 100 100 91 100 100 98 98 99 99 86 84 79 80 74 75 74 76 76 76 76 78 82 83 84 76 75 76 81
96 97 99 98 94 100 100 99 98 98 82 91 97 100 100 98 97 100 99 99 100 99 91 99 94 89 80 76 77 74 73 75 76 78 82 84 84 85 86 87 88 85 74 67
98 97 100 100 99 99 98 95 98 98 98 100 99 99 99 97 98 98 100 99 99 99 99 91 80 92 82 76 76 80 75 76 81 85 89 91 97 96 98 98 100 98 84 68
92 94 96 97 98 94 95 96 97 99 100 97 98 100 100 98 100 100 100 100 99 98 99 93 99 99 100 98 99 97 98 86 89 93 92 94 98 98 99 98 99 99 98 94
94 98 96 97 87 96 91 96 96 99 99 93 98 99 100 100 100 100 100 99 98 93 92 96 100 99 99 100 100 100 100 100 99 98 96 96 97 96 97 99 99 99 99 99
98 100 96 83 94 93 95 93 97 99 98 98 100 99 98 99 100 98 99 97 98 99 100 99 96 97 97 98 100 100 100 96 92 86 85 85 87 92 98 99 99 99 99 99
93 95 80 88 88 74 70 70 95 90 98 99 99 99 100 99 97 95 92 99 100 99 96 96 84 87 91 93 93 90 65 60 70 70 77 79 70 78 84 93 95 97 99 93

GFSNW_925_rhum_078.txt.gz
RH
76 86 94 91 91 82 70 82 90 70 83 85 94 93 75 71 70 80 82 84 87 58 55 70 72 79 64 54 51 63 62 77 93 83 76 63 78 82 82 93 98 92 87 68
69 84 88 85 85 86 89 91 90 64 83 92 90 67 72 69 66 61 60 62 51 50 55 67 66 61 51 52 52 55 57 83 98 99 94 84 99 87 73 75 83 86 85 64
72 68 47 33 50 63 82 90 87 86 88 82 75 79 73 67 59 66 63 58 55 54 56 61 66 64 57 54 45 54 55 74 74 85 67 82 87 89 90 78 87 76 81 51
66 49 34 34 25 48 72 94 92 87 97 88 84 70 67 64 69 58 64 59 74 73 59 60 64 60 60 50 47 46 52 73 67 62 72 71 74 78 81 77 64 76 55 58
73 59 37 34 32 34 73 92 97 88 98 90 93 74 70 68 67 72 75 77 76 67 71 68 68 61 58 56 48 51 65 84 67 84 58 62 71 75 78 70 60 62 63 60
76 69 54 46 43 40 77 85 84 92 85 90 87 81 72 74 68 70 67 69 78 74 64 63 66 66 58 51 53 61 65 79 83 88 65 68 81 75 82 76 67 60 67 51
73 73 69 55 60 63 76 82 80 82 87 89 84 76 73 75 68 75 64 64 72 58 62 66 63 58 51 50 53 58 70 76 80 88 72 95 50 53 60 69 66 62 53 49
76 81 78 68 55 63 74 74 90 86 93 90 69 70 70 74 72 76 72 64 64 65 68 70 63 67 60 58 58 62 61 73 82 87 88 62 61 60 68 72 70 62 61 52
78 84 86 76 66 72 68 81 74 90 97 76 78 75 70 86 91 83 74 60 61 61 81 88 81 82 59 67 58 63 66 70 78 89 90 86 62 56 50 58 87 60 58 56
89 92 96 94 81 74 87 74 80 82 96 82 67 71 69 57 85 87 82 84 80 67 84 99 98 79 56 71 65 75 75 72 82 82 90 75 56 60 54 84 71 56 58 57
87 88 89 87 91 76 93 75 77 76 94 85 70 59 64 68 76 85 87 87 86 90 91 92 85 83 67 64 61 71 70 81 83 78 73 80 58 52 69 65 60 60 64 63
87 81 93 96 99 93 92 87 75 81 84 81 70 76 74 64 59 76 80 96 89 91 91 89 89 84 74 71 72 59 67 62 67 66 66 49 56 52 50 59 64 62 63 64
87 90 86 90 100 93 93 95 93 87 96 86 87 79 50 54 58 66 74 76 83 85 96 98 95 94 76 80 77 60 57 58 61 59 51 54 58 52 52 50 61 62 60 61
63 65 64 75 94 96 92 97 93 90 97 99 81 53 54 53 55 63 66 60 64 75 87 96 91 94 66 72 66 71 63 60 65 66 57 50 49 58 65 68 67 67 64 61
41 56 72 82 100 96 98 96 93 88 92 97 93 78 62 50 54 51 60 67 70 85 97 98 94 86 77 79 78 76 66 66 73 73 57 58 66 69 67 69 69 67 64 64
58 60 76 94 97 90 95 88 89 95 100 100 98 71 76 55 55 60 63 64 75 85 98 98 88 76 73 87 89 66 59 56 55 56 57 64 70 68 65 72 70 66 65 66
82 90 96 97 90 90 87 86 86 86 95 95 95 90 67 57 74 69 84 68 85 85 84 85 87 87 82 92 92 62 54 54 54 57 66 71 71 74 66 68 66 65 67 69
94 99 95 95 96 92 93 88 96 95 95 92 98 91 81 88 98 92 87 92 90 91 89 88 96 88 88 99 88 74 61 52 60 67 73 66 74 73 75 74 74 76 80 82
94 99 89 94 98 95 86 89 94 98 89 97 88 99 98 84 86 97 94 91 99 89 94 92 87 90 98 86 80 73 65 65 74 83 80 78 78 79 77 75 79 80 83 84
99 89 90 96 89 97 97 88 95 100 100 98 94 85 96 89 94 98 100 96 99 99 88 90 94 91 79 81 83 86 85 83 82 80 81 84 85 83 79 80 80 81 84 86
86 98 95 94 93 92 88 95 94 96 96 92 84 94 96 96 100 99 98 100 99 96 98 88 86 85 95 89 89 87 84 84 85 82 83 84 83 88 88 86 84 85 86 85
84 88 88 86 89 85 91 92 94 93 95 89 96 98 100 100 99 100 99 100 100 99 95 100 90 88 91 87 85 86 87 88 89 84 87 88 89 93 92 91 91 96 99 97
81 86 92 94 90 94 88 96 96 94 100 100 98 90 99 99 100 100 100 99 98 99 99 98 95 91 92 89 91 89 87 87 89 93 92 92 94 98 99 98 99 100 100 98
86 92 98 94 96 91 93 95 96 96 99 97 95 95 97 100 100 100 100 100 100 98 98 95 99 100 99 100 99 98 100 98 93 91 91 95 97 98 99 100 99 100 96 98
95 86 97 100 91 97 99 99 96 96 97 97 97 95 99 96 99 99 99 99 97 97 98 99 99 100 100 99 100 100 100 100 100 98 94 90 90 91 93 94 98 96 98 98
97 91 90 90 91 92 98 95 96 92 97 97 99 97 99 96 99 98 99 97 98 98 99 98 97 99 100 100 100 100 99 100 99 93 83 80 76 70 88 80 84 92 98 98
98 99 92 98 97 92 93 77 81 89 96 87 98 96 88 96 97 100 98 99 99 99 99 97 92 92 97 99 98 99 95 97 85 70 67 72 55 62 60 77 74 78 87 89

GFSNW_925_rhum_081.txt.gz
RH
56 50 74 60 42 58 66 81 84 80 90 86 96 90 71 71 74 84 86 87 90 72 59 71 79 87 83 62 69 86 69 83 98 96 82 71 73 81 86 94 97 89 89 70
49 32 26 34 29 60 80 90 91 68 70 88 92 71 69 74 73 71 75 73 75 56 58 67 67 68 61 56 52 65 68 85 98 92 83 85 89 78 69 77 87 97 86 69
57 43 27 29 32 50 74 89 88 83 88 87 84 85 80 69 66 69 65 69 62 66 54 60 67 66 68 55 46 54 56 76 75 84 66 87 100 95 84 83 92 82 87 65
64 55 39 27 30 32 62 95 97 88 92 90 94 90 79 75 72 61 64 71 76 75 72 64 65 61 59 51 47 55 54 78 73 66 73 73 79 84 94 91 79 81 62 63
68 66 55 41 30 32 67 91 94 92 96 94 93 84 80 76 73 75 75 79 77 74 72 68 68 64 59 57 49 54 64 85 68 82 63 68 73 76 88 88 81 75 65 65
72 67 62 54 38 33 67 90 83 86 83 92 86 86 72 72 65 85 74 82 81 82 71 62 62 65 69 62 56 64 67 82 78 78 68 68 74 75 83 76 69 66 70 53
75 73 69 68 54 45 57 80 89 91 75 70 62 69 69 76 69 77 83 81 79 63 63 66 69 72 64 56 56 61 72 73 78 91 72 83 47 56 62 69 67 67 55 49
76 79 72 68 68 57 61 68 84 92 82 83 74 76 66 70 74 77 78 79 78 71 66 73 68 69 62 61 60 62 64 78 85 89 90 66 56 61 71 75 68 64 61 53
86 89 85 79 66 72 65 75 77 89 94 76 75 82 78 88 77 73 86 71 78 68 85 97 88 94 72 77 66 67 70 73 79 91 90 82 57 60 54 57 81 61 62 60
87 90 87 85 95 84 78 70 79 80 93 82 70 77 77 70 77 81 68 90 87 80 88 100 99 85 59 72 69 83 78 75 79 84 92 76 56 62 59 81 69 57 61 60
86 90 91 96 97 97 85 71 74 79 94 89 75 65 68 72 78 90 77 72 98 94 98 98 95 91 72 66 62 73 74 85 87 81 81 81 56 56 68 64 62 62 63 63
85 90 88 86 98 100 94 88 76 81 86 87 68 70 70 67 70 80 78 87 68 92 96 94 93 88 78 73 77 63 70 64 73 66 65 47 52 54 49 60 64 63 63 67
69 85 82 81 80 99 97 91 91 88 97 89 83 72 53 56 59 68 85 72 71 85 95 98 97 98 80 86 78 63 58 59 61 60 51 53 52 53 54 53 62 63 62 67
30 37 66 67 73 92 99 98 93 89 94 100 86 60 58 62 57 60 71 64 64 65 67 95 98 100 72 76 71 73 63 61 65 67 59 55 51 58 61 68 69 69 66 62
42 53 61 75 92 99 100 94 99 94 83 94 90 76 64 59 57 64 69 73 76 83 81 95 99 94 82 85 83 78 67 67 73 73 57 55 56 61 69 74 71 67 64 65
67 68 71 91 91 89 91 86 86 91 94 100 95 71 74 59 68 67 68 72 79 85 95 93 94 81 81 90 90 67 62 58 56 56 53 65 70 71 67 73 74 68 68 67
72 87 90 88 90 89 84 83 86 92 94 99 89 92 70 56 79 75 86 70 84 84 83 87 85 84 84 98 96 66 57 54 53 55 70 72 72 72 70 71 70 68 71 74
93 94 85 94 88 86 90 96 97 97 98 92 94 93 79 80 92 97 88 89 88 98 91 90 93 87 86 99 85 80 78 68 57 72 69 66 76 79 79 78 76 78 83 84
95 87 90 95 90 88 94 86 89 100 90 95 97 99 95 81 85 93 96 91 100 88 99 98 87 94 98 83 78 73 66 66 64 82 81 79 81 84 80 78 79 81 84 85
98 90 84 97 88 99 92 84 96 99 100 95 96 87 98 90 95 97 100 98 99 99 93 86 95 94 75 92 89 89 86 85 83 82 84 85 85 83 80 83 84 84 85 85
90 95 85 96 95 89 92 96 95 91 87 82 85 92 94 94 95 96 94 97 99 99 92 98 96 92 92 90 88 90 88 88 89 86 86 85 83 87 87 87 87 90 91 90
79 83 82 81 83 85 92 94 94 91 92 88 96 96 95 99 99 99 95 100 100 97 97 100 97 81 91 89 88 92 92 91 93 86 87 89 91 93 92 93 96 99 100 97
79 77 89 84 93 92 86 96 87 90 97 94 98 94 90 97 100 100 100 99 98 99 100 98 99 99 100 98 100 98 87 88 91 90 90 90 95 98 98 98 99 95 93 93
85 91 100 92 99 87 94 93 94 92 94 99 98 98 92 94 97 100 100 99 100 98 98 95 100 99 99 100 100 100 100 99 92 90 90 93 94 94 93 91 98 98 98 98
95 90 89 99 92 96 98 99 95 95 98 96 95 95 98 99 100 100 99 98 97 98 98 99 99 99 100 99 100 100 100 100 100 99 97 90 82 80 90 95 94 90 98 97
94 92 96 86 97 96 100 97 96 96 88 93 97 98 99 97 99 98 96 98 97 98 99 99 99 100 100 100 100 100 100 100 100 99 85 77 68 62 85 70 71 76 95 97
100 100 91 97 98 93 96 89 86 91 91 87 97 91 94 95 98 94 96 93 99 99 99 100 99 95 94 99 99 97 96 98 95 78 63 67 56 53 58 73 64 71 79 77

GFSNW_925_rhum_084.txt.gz
RH
44 32 27 31 31 41 66 78 84 91 96 89 96 92 70 66 78 83 88 90 90 87 66 94 100 100 94 85 75 91 82 85 97 97 90 79 77 83 83 92 94 89 91 77
52 40 32 30 29 38 74 88 89 78 87 88 92 81 73 73 74 74 84 88 85 64 63 71 72 84 62 67 82 78 70 86 98 98 84 85 91 82 81 81 89 95 92 73
57 50 42 34 27 30 63 84 79 80 88 90 91 98 90 79 62 77 68 78 72 70 61 62 72 98 76 64 60 63 57 76 77 84 66 82 99 94 82 81 98 85 89 72
62 54 48 40 30 24 45 92 95 83 88 87 98 97 90 86 76 68 65 79 92 85 79 72 69 65 81 64 51 58 60 82 72 68 69 84 86 91 91 88 75 81 70 72
68 60 56 49 37 27 52 79 84 92 96 89 96 88 90 78 76 83 94 86 96 81 84 71 71 64 62 61 53 56 66 83 69 82 73 72 78 84 91 85 75 85 75 74
73 66 59 54 50 39 56 87 86 92 77 78 78 84 67 68 70 63 74 73 98 98 80 63 60 65 72 64 59 65 69 80 76 74 70 66 69 73 86 84 82 80 88 62
76 72 61 57 56 54 47 80 86 82 67 73 58 68 71 70 72 81 64 67 94 92 88 74 72 75 70 60 59 63 71 72 77 93 71 76 45 58 64 74 72 74 68 53
79 76 71 65 60 63 54 65 75 88 80 73 72 74 75 75 69 72 61 85 87 88 96 84 80 77 64 64 65 64 67 79 88 90 88 65 57 65 70 75 64 66 68 60
84 82 82 83 84 80 65 69 72 87 88 77 71 85 84 90 88 84 66 63 84 93 90 98 96 98 77 82 71 68 72 74 79 91 89 75 52 64 57 57 80 57 66 63
80 80 86 92 94 91 81 70 77 77 91 82 75 87 85 72 86 96 82 80 95 92 92 100 98 83 61 76 76 84 79 76 87 79 88 78 56 56 62 82 67 64 60 65
85 90 92 96 99 100 96 75 81 74 90 88 78 74 74 80 84 92 83 78 89 97 99 100 100 96 77 67 63 74 78 86 88 81 91 86 47 59 69 61 65 65 63 59
86 90 84 86 90 93 97 88 82 83 85 87 75 75 76 72 69 79 80 90 82 96 100 99 100 98 100 79 79 64 70 66 74 74 75 51 48 60 53 61 64 64 63 69
91 69 68 86 85 98 92 88 86 93 96 88 84 67 58 58 64 68 90 82 78 92 90 99 100 97 87 97 90 65 60 59 64 63 52 55 53 57 56 56 62 63 64 69
28 33 56 61 59 90 98 92 95 89 95 95 84 66 63 62 61 69 77 66 71 71 76 88 98 100 84 80 74 78 63 62 67 69 61 58 54 58 61 66 67 69 68 65
35 42 59 64 76 91 93 97 97 93 85 95 91 73 59 53 52 59 76 79 80 84 86 95 94 94 90 88 87 84 70 66 70 71 58 56 57 56 68 73 72 68 65 66
63 62 67 80 82 96 88 86 82 87 86 92 97 74 75 60 52 71 77 82 83 84 92 94 95 84 93 90 93 69 66 61 60 57 53 65 71 71 68 72 74 70 74 73
66 81 87 82 82 85 80 82 80 90 93 93 95 89 70 58 72 79 86 78 87 89 88 92 87 86 81 91 82 69 66 59 56 56 67 70 74 73 72 76 76 74 78 80
87 86 82 87 86 79 85 95 88 91 94 78 92 91 80 73 93 92 90 90 93 88 90 91 92 85 90 97 82 77 79 78 81 68 69 71 81 82 83 80 76 80 85 85
86 87 86 84 77 84 98 91 99 98 84 94 94 100 96 81 84 90 95 92 98 89 97 94 91 92 96 81 82 78 85 81 74 81 80 80 83 86 82 79 81 82 85 86
83 85 80 96 88 90 87 94 95 98 97 84 90 89 95 88 92 94 92 99 94 97 90 88 98 96 83 94 91 92 90 89 81 79 80 83 86 84 84 90 90 89 90 90
86 93 88 100 94 92 89 96 95 90 82 80 82 88 96 92 97 94 91 98 95 99 92 98 98 93 92 89 90 93 92 91 91 89 88 85 82 89 87 90 91 93 94 94
78 82 84 82 82 79 76 95 96 82 92 89 94 93 96 96 100 100 95 99 98 92 99 99 98 89 96 97 96 95 90 88 90 86 88 90 92 93 93 97 98 94 93 92
72 75 92 86 93 89 90 100 84 93 92 98 98 95 83 92 100 100 100 99 93 99 99 98 99 99 97 99 100 100 98 92 91 93 92 91 95 96 97 97 96 99 98 96
85 89 100 90 99 86 93 91 91 90 91 97 98 88 91 90 100 100 99 89 98 98 97 97 98 98 98 100 100 100 100 100 100 99 88 89 89 91 91 87 88 96 94 98
92 85 86 99 90 97 96 97 97 96 97 99 91 89 95 98 100 100 99 96 97 98 98 99 97 99 100 100 100 100 100 100 100 97 100 98 78 67 82 92 80 78 94 96
94 94 96 88 96 98 100 93 98 97 91 95 96 96 99 97 98 98 94 97 96 97 99 99 99 99 99 100 100 100 100 100 100 99 96 77 65 57 82 64 65 68 84 85
99 100 92 95 98 93 98 96 90 92 89 94 97 95 92 96 92 91 93 96 98 99 99 100 99 99 98 99 100 97 96 97 98 84 64 61 59 49 54 64 55 58 72 75

GFSNW_925_rhum_087.txt.gz
RH
48 42 35 30 25 38 65 77 77 99 90 95 96 94 76 68 78 85 82 92 88 98 88 94 100 100 100 74 70 91 83 88 96 93 88 83 86 84 76 86 94 87 83 58
52 45 36 30 26 27 61 82 88 91 97 95 97 86 84 76 74 75 88 90 88 78 71 96 92 99 74 79 75 84 76 87 96 96 84 89 100 84 77 81 86 92 84 65
52 46 41 33 22 23 47 75 74 74 88 90 90 93 87 92 69 79 86 84 85 81 71 66 89 100 82 81 80 72 66 78 76 83 66 81 99 91 79 79 94 90 85 65
54 52 47 39 23 22 34 87 94 89 83 78 93 87 85 70 72 68 69 89 97 99 94 71 79 100 98 85 73 70 68 94 71 73 69 83 84 89 91 88 77 80 66 69
60 55 45 42 34 27 47 73 80 90 89 86 84 78 77 71 64 72 72 90 81 95 99 100 100 84 100 98 75 75 66 81 69 82 78 75 80 84 88 86 80 79 79 78
64 58 49 46 42 37 56 86 91 83 69 70 65 75 66 72 72 65 66 70 82 91 99 97 96 76 71 68 77 75 70 78 77 79 73 68 66 70 87 86 83 73 83 59
68 64 55 52 50 51 48 74 78 75 66 69 63 68 70 77 74 83 69 71 86 92 85 82 87 86 74 66 65 62 70 70 75 90 70 75 43 59 65 79 76 80 75 66
71 73 66 60 59 64 56 65 68 81 79 73 68 73 81 82 76 75 68 66 82 84 93 98 81 82 66 72 80 69 66 75 87 83 84 60 60 65 68 68 60 64 73 68
74 79 75 76 76 78 65 66 62 80 86 76 68 84 85 91 96 87 72 65 74 91 99 97 93 96 76 84 77 68 73 73 76 87 86 69 50 65 57 58 74 57 66 67
81 76 80 85 90 85 76 72 68 72 89 80 78 83 85 76 86 96 84 81 93 95 100 99 97 84 64 79 77 81 81 78 84 74 77 73 57 56 61 74 66 68 63 64
84 87 89 93 92 82 88 77 77 72 91 86 79 75 77 82 88 95 81 82 87 89 97 100 99 94 86 72 67 74 78 84 88 83 83 83 47 61 68 60 63 66 69 60
88 85 82 82 97 86 81 77 86 78 86 88 81 81 79 72 70 82 87 85 89 95 91 94 98 96 100 89 81 66 72 68 74 74 73 53 47 63 54 58 66 64 64 69
88 92 88 84 83 96 86 71 87 92 96 89 77 66 64 66 76 71 86 85 78 78 87 94 96 99 88 97 98 70 60 61 66 64 53 56 53 54 61 59 62 63 68 68
94 50 63 66 82 100 88 77 84 86 93 95 78 66 67 71 69 71 71 70 74 72 84 91 95 95 95 91 80 82 66 65 69 71 61 59 53 56 58 68 67 68 72 69
24 40 42 63 79 96 90 86 90 88 80 89 90 68 62 57 61 67 74 84 85 89 86 93 98 90 91 91 89 92 74 68 72 68 60 61 60 69 66 72 73 70 68 72
27 40 60 78 95 78 91 88 84 88 82 91 96 72 70 60 59 68 83 84 87 88 92 92 92 84 96 88 94 72 68 65 63 62 57 62 68 73 70 74 75 74 78 77
54 63 84 90 88 87 80 78 77 89 87 88 93 86 68 60 75 82 89 83 88 89 90 95 89 83 87 85 80 65 68 67 74 65 63 71 74 75 78 79 80 79 82 83
82 94 88 83 80 78 82 94 85 85 84 79 96 89 73 72 86 95 88 91 93 94 93 93 93 86 89 94 77 78 79 82 74 81 72 74 82 82 84 80 78 83 87 86
100 94 84 74 71 86 97 97 89 90 78 97 92 98 93 79 85 92 97 91 98 86 96 94 94 94 93 83 93 91 92 94 92 86 81 81 84 88 83 81 83 85 88 88
85 75 74 96 96 89 91 92 94 97 93 80 85 91 96 88 93 90 98 100 98 99 87 90 96 95 89 93 92 94 93 91 90 83 82 86 87 86 88 92 92 93 94 93
80 90 98 96 95 92 86 92 91 87 83 78 84 89 97 87 99 96 91 100 99 99 94 98 97 95 96 96 99 92 93 92 91 90 90 90 84 90 91 93 95 93 93 93
76 87 90 92 88 79 84 95 94 77 90 91 94 93 96 94 99 99 99 100 100 94 98 100 91 99 98 98 99 99 97 88 90 90 93 93 95 95 96 94 90 92 92 94
68 76 91 85 92 97 91 99 90 86 96 97 97 96 86 94 100 100 100 99 95 99 99 96 98 99 96 98 100 100 97 95 98 99 100 98 94 94 94 92 92 92 93 96
84 89 99 89 97 92 90 87 90 90 97 98 98 96 95 93 100 99 100 89 100 98 97 97 99 98 98 98 100 100 100 100 100 99 97 79 76 83 90 92 89 78 88 94
89 84 86 99 89 98 96 96 98 99 95 98 96 93 87 94 99 94 99 98 97 97 96 98 99 97 98 99 100 100 100 100 100 98 100 99 91 62 79 78 66 66 81 82
91 91 93 93 96 99 98 94 93 97 95 96 96 90 99 93 98 98 94 97 94 94 99 98 99 98 98 100 100 100 100 100 100 100 98 85 73 54 74 63 59 58 70 76
98 100 92 95 97 95 98 86 93 91 92 95 98 92 90 94 94 95 90 96 93 98 98 100 99 98 97 97 100 96 98 98 100 98 80 56 58 47 52 61 48 49 62 71

GFSNW_925_rhum_090.txt.gz
RH
42 37 30 26 23 43 71 75 75 97 92 86 88 68 59 68 61 65 76 86 98 99 90 88 100 100 96 48 53 67 62 93 93 97 76 61 90 69 56 68 81 69 60 39
43 36 29 19 19 33 60 58 75 91 95 82 67 55 62 68 53 64 64 89 91 96 100 81 84 100 87 57 59 68 67 88 94 98 92 88 94 80 61 63 73 79 49 38
42 41 27 21 19 24 38 47 76 52 62 61 63 77 64 54 43 61 48 92 72 76 96 64 78 100 93 72 63 73 72 70 73 64 57 69 99 78 63 87 84 63 56 42
46 40 30 26 21 25 29 58 76 72 52 52 60 70 58 55 60 51 52 56 58 98 91 94 96 99 97 89 82 82 69 86 67 67 64 66 72 75 74 86 67 77 47 53
48 40 38 29 26 27 49 55 68 71 59 62 53 54 52 60 62 62 60 67 66 88 95 100 100 100 100 100 90 95 76 81 64 75 64 66 71 69 69 67 62 58 56 53
50 44 43 37 31 32 56 92 87 57 59 52 50 59 60 62 63 53 54 61 75 81 93 73 75 81 93 77 91 74 68 71 70 77 64 58 58 52 67 68 66 58 71 48
55 48 48 44 40 38 46 74 72 51 50 48 53 59 64 65 65 74 59 56 66 65 63 71 70 79 80 64 57 56 59 57 61 64 58 53 43 49 54 58 58 60 56 53
60 55 54 54 53 54 54 61 67 61 56 54 57 63 66 64 61 67 63 56 58 68 88 94 73 67 64 65 63 58 54 56 65 63 56 48 60 59 56 56 56 52 55 50
66 65 67 67 66 64 61 65 60 70 58 55 57 67 68 71 64 58 61 54 60 85 97 87 80 77 60 68 69 58 58 55 58 69 68 52 54 54 50 51 67 55 55 51
66 72 73 77 82 74 69 71 67 72 68 63 65 66 68 66 68 71 65 62 86 67 85 90 83 66 58 63 61 66 64 65 69 61 64 49 44 52 53 66 66 56 60 55
66 76 82 86 84 77 72 75 73 71 68 69 68 64 70 70 71 63 57 64 69 81 82 87 92 80 70 64 55 59 56 59 62 63 64 66 42 58 63 53 54 60 62 53
69 78 88 95 93 82 75 86 80 77 72 75 78 77 76 69 63 68 69 70 77 92 79 77 85 80 97 75 63 56 60 50 50 50 46 42 40 52 48 49 56 58 59 60
76 85 85 85 94 89 78 76 85 83 77 72 62 60 66 66 77 71 63 67 71 70 70 80 84 98 92 78 76 69 52 50 49 54 47 45 44 43 44 51 56 58 59 58
83 88 88 78 90 96 79 76 84 80 80 64 60 68 68 68 67 72 75 67 70 66 63 71 76 91 94 91 72 68 54 55 54 52 48 45 47 50 49 58 64 61 61 61
85 93 74 64 94 93 80 83 89 82 75 64 64 64 68 63 67 74 78 76 75 73 72 74 75 74 87 84 77 69 55 54 53 52 50 52 47 58 59 61 65 64 62 64
89 51 52 72 98 81 82 81 86 82 78 76 62 69 63 62 69 72 77 78 76 74 75 70 67 64 71 78 75 57 55 54 53 57 51 52 51 64 64 66 66 65 64 65
45 60 69 96 81 87 82 67 79 87 79 76 71 58 57 62 73 76 75 80 75 72 71 75 70 64 76 75 62 61 59 59 58 59 65 59 65 65 69 67 72 74 74 76
60 80 100 90 86 77 90 96 82 78 80 69 80 67 60 69 72 88 76 78 80 80 74 77 76 64 68 69 59 65 67 68 63 68 68 67 70 71 74 73 71 74 74 74
97 99 95 79 71 85 90 92 88 78 73 82 79 80 80 68 75 80 96 78 88 77 86 81 80 79 87 64 80 76 79 82 81 79 73 74 74 78 76 74 74 74 79 79
92 78 77 97 97 87 93 86 85 81 78 74 76 78 80 77 80 78 78 98 88 94 75 78 96 78 79 87 95 86 83 85 85 89 78 82 84 79 78 80 79 80 84 85
75 91 98 100 94 84 83 87 86 79 82 75 74 75 78 82 86 86 82 94 92 94 83 90 85 82 93 97 99 100 100 97 84 82 82 83 77 76 80 85 85 83 84 84
76 91 96 99 94 81 82 88 87 79 79 80 83 80 82 85 88 88 87 93 97 82 96 100 79 89 84 87 99 100 100 100 99 94 95 93 90 88 86 82 82 86 87 87
72 87 97 87 88 92 92 96 92 91 85 85 88 90 81 93 92 92 87 92 86 98 99 84 82 88 85 91 94 97 96 96 96 99 98 98 99 95 88 82 79 78 78 88
88 93 98 92 95 86 83 74 80 77 86 88 90 84 79 80 87 88 93 78 96 91 94 86 86 92 94 96 95 98 97 100 100 100 98 93 68 74 84 85 73 69 74 86
94 92 88 96 82 93 87 90 94 92 87 86 86 81 76 91 88 84 88 93 91 84 85 84 85 95 98 98 98 100 100 100 100 97 97 99 99 83 89 87 67 64 75 76
94 93 94 87 89 99 94 96 98 90 88 85 81 83 85 81 84 95 90 90 88 81 92 85 87 91 94 94 99 100 100 100 100 100 99 93 85 72 64 62 56 51 57 72
95 97 82 85 88 91 85 81 81 85 79 87 96 98 98 88 92 90 78 86 81 89 93 94 91 83 81 82 87 97 97 98 99 99 99 98 70 59 60 57 51 47 47 59

GFSNW_925_rhum_093.txt.gz
RH
38 38 31 31 35 56 81 55 67 92 91 76 65 56 47 56 42 43 60 84 96 99 100 91 100 95 75 39 36 57 79 92 93 98 72 52 66 74 54 68 64 60 62 41
42 35 28 29 25 46 56 33 62 85 88 66 60 40 47 39 42 53 45 75 75 56 99 96 97 100 80 52 45 76 79 87 95 99 91 86 86 76 72 52 76 74 59 42
43 34 28 30 22 35 62 33 79 45 39 40 47 55 53 46 39 46 48 52 54 59 64 82 94 100 86 55 54 78 75 95 97 76 66 64 95 76 55 85 77 46 46 38
38 35 29 32 24 33 51 41 64 45 40 41 42 46 47 50 54 44 41 47 52 98 77 59 80 100 98 82 78 81 85 99 61 56 55 56 70 68 61 91 61 71 44 43
38 34 35 30 27 31 44 37 55 42 38 44 41 41 44 53 56 53 50 57 59 73 81 92 95 94 100 100 90 96 69 81 59 70 57 57 65 58 60 59 55 51 49 49
38 38 39 33 29 32 43 62 60 42 46 41 41 46 50 55 54 47 48 56 60 72 71 58 61 66 75 91 95 82 61 60 64 74 56 52 66 58 59 58 54 53 65 48
40 41 41 37 34 38 49 57 45 39 35 33 41 50 52 53 56 64 52 50 55 53 56 66 67 66 67 62 57 51 53 50 52 52 49 57 44 40 45 52 46 48 50 46
43 43 45 41 40 41 48 63 50 39 32 36 48 51 53 50 49 55 54 48 49 57 82 72 59 61 59 55 52 49 48 48 52 57 45 46 57 54 49 53 54 48 50 46
47 49 52 52 52 48 51 66 69 52 34 42 47 52 54 54 49 49 52 47 54 74 90 68 67 65 52 55 58 50 50 49 54 56 61 47 50 47 44 45 63 51 52 49
51 53 58 62 62 60 56 75 67 56 43 50 51 49 52 53 53 55 50 57 76 62 74 76 81 60 50 55 52 54 54 54 60 51 56 43 40 47 46 69 84 55 55 49
58 56 66 73 70 68 68 80 69 67 48 58 57 56 56 55 54 52 50 61 68 75 71 71 74 78 60 60 47 50 50 52 53 52 58 58 38 54 60 51 48 53 54 47
64 62 69 82 79 74 70 80 74 75 56 64 68 65 68 64 57 60 52 61 69 75 72 70 73 78 86 65 67 47 55 46 54 48 47 39 35 40 39 43 47 54 54 52
71 71 78 87 85 79 76 82 82 72 58 60 52 52 61 68 69 63 65 56 63 62 62 67 74 84 76 65 79 64 45 42 46 48 43 41 40 39 40 40 52 55 54 54
73 75 89 94 97 85 72 82 87 75 60 50 55 62 58 69 69 71 66 60 58 57 54 64 65 79 88 80 85 68 52 49 47 45 42 41 45 48 45 50 57 56 55 56
76 86 86 87 100 89 76 93 94 89 70 51 55 56 63 62 63 64 69 66 63 62 62 67 65 59 71 78 72 62 46 52 54 79 49 49 43 43 54 54 58 57 57 59
84 87 86 97 96 84 79 76 90 76 80 64 57 58 55 54 64 65 65 68 65 63 63 60 55 48 56 63 64 51 50 48 52 56 48 49 46 50 58 59 60 58 58 58
94 83 90 99 89 77 82 69 89 85 81 66 66 54 51 56 68 68 67 70 65 66 62 66 61 53 67 64 57 62 50 50 51 51 57 51 58 63 63 61 65 67 67 68
74 87 97 93 81 77 91 94 78 80 71 62 77 60 57 62 70 82 69 71 68 67 62 63 66 55 55 63 43 55 60 62 55 62 64 63 59 63 68 66 65 67 68 67
91 100 94 84 77 88 95 80 80 71 75 75 73 82 84 63 65 70 91 77 88 70 76 67 66 65 76 54 63 69 73 77 77 74 70 66 68 68 70 69 68 68 72 72
97 83 80 94 99 80 80 84 78 77 75 69 71 64 78 67 68 74 81 94 86 93 72 71 90 70 53 79 90 94 90 88 84 88 79 80 76 75 70 70 70 72 75 77
79 82 96 100 90 78 76 86 82 76 84 71 63 62 70 73 78 75 70 86 86 86 85 84 72 68 76 80 81 92 99 97 98 92 79 76 78 76 74 78 75 74 75 76
79 88 97 94 88 79 81 84 84 83 72 72 74 72 71 79 79 83 79 80 94 78 91 98 75 65 74 74 84 85 98 98 100 97 97 97 96 93 81 75 74 77 78 74
73 81 91 82 90 89 89 90 88 86 78 80 85 89 73 84 89 86 84 93 77 82 94 73 67 83 77 77 84 88 88 96 98 98 98 98 99 99 99 96 76 62 62 70
81 94 85 85 92 81 82 72 81 77 81 85 76 79 73 70 90 80 84 66 86 89 89 76 76 90 86 82 89 90 88 97 97 99 98 95 72 74 75 70 58 56 59 72
97 95 78 92 85 92 89 90 90 84 77 78 76 76 68 85 85 73 84 91 80 69 73 76 82 96 96 93 98 98 100 97 96 98 96 97 99 98 99 97 77 60 64 67
98 91 92 87 90 94 93 96 95 88 76 70 71 79 78 80 78 87 83 79 81 74 89 81 82 92 95 88 92 100 100 99 99 99 98 99 99 98 90 92 82 70 60 70
95 96 83 90 93 89 84 77 83 72 70 83 88 95 82 80 85 83 70 80 77 92 88 81 76 72 67 71 68 81 96 97 98 99 99 99 99 98 89 64 60 53 50 50

GFSNW_925_rhum_096.txt.gz
RH
37 36 38 36 42 61 80 62 92 90 90 93 83 79 46 44 39 42 50 80 89 74 88 98 100 90 70 37 34 55 85 98 96 86 62 55 65 71 73 96 73 93 88 57
37 36 37 38 38 59 62 54 75 84 85 87 81 44 44 37 43 49 48 63 54 56 88 99 94 99 72 60 42 95 85 96 99 99 94 81 83 72 71 72 85 82 94 57
39 36 33 37 37 39 80 50 91 65 70 43 47 61 51 46 44 42 42 45 52 71 64 68 94 100 81 66 68 76 78 95 99 98 75 79 94 75 68 90 93 61 95 48
39 35 31 34 39 35 71 51 80 54 65 52 40 41 44 48 54 42 40 48 59 91 80 71 84 93 96 73 76 76 81 100 97 58 55 63 75 82 72 83 72 79 55 46
41 33 31 39 33 43 61 56 67 50 41 42 44 46 50 52 55 50 48 57 59 72 81 85 92 85 90 98 78 86 80 96 63 82 55 58 70 66 64 66 62 58 55 56
37 34 33 39 30 40 47 55 52 52 48 42 44 52 50 52 51 46 45 54 62 67 66 60 58 62 68 80 90 88 70 93 78 91 56 54 78 64 65 60 54 56 70 53
37 33 35 35 32 38 46 49 41 52 46 40 41 45 49 50 52 60 49 48 56 59 60 69 72 71 67 68 73 78 66 60 60 73 56 76 51 43 52 56 50 48 51 50
40 37 37 37 35 38 56 50 49 53 42 42 45 49 49 48 49 58 50 47 53 60 80 88 70 73 65 60 51 52 52 64 67 77 58 56 59 54 51 58 59 50 53 52
40 40 41 45 44 46 44 59 57 60 49 49 42 50 50 55 51 58 53 46 54 69 86 77 72 80 52 71 66 51 52 58 71 75 77 63 61 50 46 46 78 54 57 58
37 44 43 51 48 44 40 60 58 62 62 52 49 54 56 52 57 63 52 59 79 72 84 69 75 69 48 62 55 64 65 63 76 72 74 57 48 49 47 80 91 60 59 52
48 50 53 54 57 48 55 75 64 68 66 64 52 52 54 60 59 65 60 68 80 86 80 73 66 76 75 78 48 52 54 65 67 66 66 72 48 56 69 59 55 57 61 53
54 55 62 62 62 58 54 78 65 65 74 76 62 65 65 62 60 68 56 67 70 71 74 80 75 80 86 65 72 48 64 56 66 58 62 44 37 40 39 42 48 60 61 59
63 71 72 69 68 63 66 73 66 60 69 68 62 59 64 64 65 62 79 68 59 60 67 72 78 90 86 74 82 70 50 46 56 52 49 47 51 48 45 44 62 62 60 59
85 79 79 80 77 71 58 68 76 65 66 70 71 59 62 64 67 67 66 64 57 59 66 65 66 81 82 80 89 83 64 57 55 53 57 54 56 56 61 56 59 61 63 65
91 92 91 97 83 77 65 72 83 76 77 70 71 53 62 60 60 63 68 64 64 62 71 76 73 64 78 74 74 82 55 66 78 92 61 60 54 54 62 64 62 64 66 70
93 88 95 100 92 76 64 90 76 64 73 79 76 62 55 54 63 64 63 64 62 66 62 65 63 50 65 81 67 64 60 57 56 63 61 64 62 57 68 66 66 65 67 69
89 91 100 100 83 69 91 86 90 72 65 80 82 74 55 61 64 69 74 69 66 67 62 76 64 65 77 75 72 66 63 66 63 66 68 64 68 75 71 67 70 69 70 70
95 100 100 89 70 74 85 88 80 66 67 71 93 83 72 62 84 85 74 69 67 73 75 66 75 66 70 77 52 67 76 74 64 75 73 74 71 67 70 68 69 71 77 73
100 99 86 72 71 90 96 74 66 63 77 94 88 92 97 71 75 84 88 80 93 78 82 70 70 68 77 66 75 85 89 86 86 82 79 77 79 77 72 72 71 72 78 78
94 77 79 98 99 78 74 74 85 91 88 80 90 74 97 79 72 80 90 92 91 98 83 79 90 74 69 87 82 82 86 94 91 97 88 88 87 84 75 73 75 77 80 80
75 91 98 100 79 79 82 92 92 90 95 85 76 76 93 78 78 78 66 86 94 90 93 91 86 68 85 86 79 80 90 97 96 91 96 87 90 95 89 79 77 79 80 80
77 91 90 88 95 88 88 92 90 90 86 80 89 86 91 82 73 75 87 81 92 84 88 97 73 78 81 80 81 84 88 90 90 96 98 97 97 98 98 97 97 99 89 69
80 87 97 90 95 95 96 93 95 94 88 91 91 89 84 88 78 87 76 80 93 83 94 87 70 91 84 80 78 81 85 90 90 92 96 92 98 100 98 98 99 98 88 70
90 93 98 92 99 90 87 87 93 93 89 86 89 91 75 73 80 70 86 68 84 97 98 82 95 94 91 80 82 91 89 90 92 92 90 91 86 96 88 73 69 62 72 74
96 93 78 96 95 97 98 98 95 92 80 86 91 92 78 76 79 71 79 96 75 67 84 94 98 98 94 89 86 94 99 95 94 92 91 92 97 98 99 99 92 73 66 82
94 91 96 87 92 99 98 97 97 88 85 92 92 91 94 89 81 85 75 71 87 86 98 98 96 96 98 92 87 84 90 97 94 98 97 96 99 96 94 95 97 98 95 71
96 98 85 95 92 94 95 89 89 78 88 97 95 91 86 91 79 78 81 88 92 100 98 96 86 86 85 88 87 90 85 86 89 99 98 99 99 100 100 98 91 69 60 50

GFSNW_925_rhum_102.txt.gz
RH
100 97 94 94 78 87 98 92 97 93 89 86 92 83 56 44 46 49 75 75 76 85 88 89 85 97 85 77 61 96 86 81 98 85 78 70 70 73 88 90 89 98 88 70
100 88 94 94 94 92 91 87 95 95 88 86 88 51 49 45 53 51 54 57 67 63 85 96 68 88 72 83 78 85 83 92 90 84 79 74 85 79 77 84 86 98 90 72
100 90 93 91 89 65 61 74 89 87 88 65 69 70 54 59 45 49 49 61 69 74 84 80 90 98 81 79 82 80 84 91 91 81 67 79 95 85 81 82 92 97 96 81
99 92 93 55 73 67 53 78 80 71 81 67 64 60 55 61 60 48 51 69 70 78 85 76 88 92 92 67 72 78 85 93 94 82 78 78 79 82 84 84 86 96 82 75
97 79 83 47 63 94 62 77 73 63 60 56 58 59 57 65 61 55 60 71 64 74 86 89 89 82 93 86 83 85 87 94 83 87 62 76 84 79 81 78 68 83 80 72
98 92 60 48 74 63 69 70 60 56 60 58 63 66 66 63 62 52 54 62 65 77 77 71 65 68 74 75 90 87 82 92 92 90 66 62 82 78 81 72 61 62 76 60
98 79 48 45 44 44 36 49 60 55 61 57 58 59 55 65 62 64 57 53 60 64 66 79 82 86 85 77 76 82 95 83 82 87 64 77 55 47 56 62 56 56 55 52
96 70 45 46 40 51 32 43 53 58 64 61 62 62 62 65 62 59 59 56 55 66 81 92 94 96 90 80 85 83 92 84 85 84 80 61 63 64 59 58 73 60 65 62
88 59 47 46 41 49 37 47 52 58 62 58 54 64 64 77 76 67 60 56 62 70 74 96 83 90 76 80 71 72 78 77 83 87 85 74 66 54 50 50 89 68 62 57
82 63 49 41 41 45 38 56 54 55 77 70 56 64 72 66 73 80 67 64 79 75 93 81 91 70 72 77 76 78 80 80 84 83 86 67 53 54 52 64 72 65 56 56
86 56 46 45 47 41 41 64 61 53 87 80 68 64 64 71 73 76 68 82 85 92 85 71 70 83 82 82 67 60 70 80 82 83 84 83 53 57 70 66 60 67 58 58
76 53 46 45 38 42 42 63 53 48 81 84 68 71 68 62 62 76 80 78 81 88 91 85 80 76 88 79 68 70 69 68 76 69 71 54 63 56 60 52 53 68 63 62
78 58 60 56 46 48 40 54 49 47 82 79 77 77 66 57 63 62 82 84 70 78 79 82 86 70 78 86 90 90 71 64 66 64 74 73 73 68 73 72 67 67 68 64
84 68 68 51 52 49 43 48 53 43 79 86 81 66 69 68 60 61 64 68 67 72 80 82 78 78 80 74 87 88 78 74 74 81 70 67 64 73 79 76 68 72 76 78
85 94 74 58 52 46 48 57 62 54 59 90 87 68 65 67 67 65 60 63 77 86 83 86 85 76 76 70 78 90 79 79 86 90 80 81 81 80 77 79 77 74 75 80
90 90 79 58 49 55 38 57 55 44 45 86 88 75 62 66 68 67 67 67 77 83 83 84 75 64 73 89 69 72 68 72 73 71 72 70 68 68 73 81 75 75 76 76
94 89 81 62 60 52 83 66 61 60 46 84 89 86 67 73 74 72 74 64 77 80 82 82 85 78 81 92 94 72 80 76 86 89 85 76 71 78 76 79 74 76 79 81
91 88 76 66 54 66 72 69 59 51 61 77 93 96 87 73 75 82 77 79 79 82 80 85 83 81 85 90 75 81 87 83 88 91 89 92 90 86 87 76 77 77 83 80
91 88 73 57 67 83 71 57 50 53 55 92 83 91 92 73 82 89 88 83 95 85 88 85 81 84 92 75 72 88 89 85 85 83 76 84 90 89 83 88 80 80 84 81
90 73 79 99 92 64 64 57 72 87 89 88 94 90 96 84 80 85 94 91 87 99 88 81 89 91 72 73 78 85 87 86 87 91 86 85 81 80 87 91 80 81 82 82
79 98 99 90 88 78 85 94 81 93 80 88 93 88 94 85 87 84 75 96 92 96 86 88 96 95 80 91 91 88 88 88 90 91 88 86 90 96 97 91 94 97 99 98
80 84 82 86 88 94 90 90 96 93 74 94 95 96 96 94 81 75 83 85 88 85 88 79 86 77 85 95 91 91 90 90 88 87 88 90 92 99 98 98 98 99 99 99
69 88 99 93 99 97 99 88 95 99 96 98 99 99 94 90 81 73 79 75 94 86 81 83 90 83 94 92 92 90 87 86 87 90 92 91 90 92 97 99 98 97 93 80
96 98 98 97 99 96 90 82 88 93 94 91 93 98 94 87 90 72 84 80 93 92 96 97 91 90 92 92 90 87 87 83 82 86 88 88 88 92 93 73 65 64 74 69
99 98 96 99 96 99 99 99 96 97 81 90 93 93 82 92 87 82 90 89 80 90 94 89 92 94 93 95 92 86 83 78 85 80 90 91 90 92 91 91 94 78 66 73
99 98 99 93 96 100 99 96 96 88 82 90 91 95 93 92 91 88 87 89 91 83 90 93 99 97 94 92 89 89 78 78 82 84 91 93 94 93 94 96 96 95 95 96
98 99 94 95 95 96 98 90 91 85 85 94 92 80 79 91 95 96 89 89 87 88 96 99 98 98 98 94 92 88 86 84 81 82 82 84 94 98 100 100 92 96 98 92

GFSNW_925_rhum_105.txt.gz
RH
96 86 98 100 93 85 81 91 98 100 96 91 93 87 61 48 49 55 74 74 68 79 85 84 78 98 87 76 77 85 84 82 98 82 70 75 69 74 87 90 90 94 89 75
96 87 100 100 78 83 87 89 98 100 91 88 88 54 53 47 55 52 58 60 65 65 83 84 60 88 70 83 77 86 83 87 92 79 78 72 87 79 79 84 86 94 88 77
86 98 100 96 78 78 62 79 94 94 91 70 68 68 59 59 46 51 53 67 70 75 84 82 95 98 74 78 82 78 83 96 88 84 67 75 94 87 83 82 93 92 94 75
91 100 100 92 89 69 53 78 78 73 84 72 68 59 61 66 60 49 54 71 73 84 88 83 88 93 78 70 74 77 86 99 100 84 74 80 78 81 84 86 86 90 89 74
95 100 97 96 75 85 57 77 79 64 66 65 67 58 63 65 62 58 61 75 65 68 84 88 88 80 88 92 79 79 83 92 90 85 68 78 86 80 81 78 87 85 82 75
99 100 96 92 84 86 65 69 55 56 64 63 63 70 67 65 62 55 57 67 75 78 74 69 67 70 75 78 86 86 82 89 92 83 68 67 81 69 81 75 64 80 80 66
100 100 96 69 60 66 48 56 52 57 63 60 58 63 59 70 61 66 60 58 66 65 67 79 83 86 82 80 79 81 93 87 86 88 64 79 59 53 63 67 64 57 57 56
97 97 91 73 61 84 52 46 50 62 70 63 64 64 69 70 62 63 61 58 57 66 84 89 83 89 83 75 83 90 90 90 85 83 81 60 69 66 74 65 76 70 66 62
98 92 92 75 61 78 50 57 37 60 63 62 58 69 67 79 76 69 65 63 67 74 72 94 85 90 76 82 74 82 91 87 85 88 84 78 64 55 51 53 89 69 60 58
97 75 84 88 68 56 46 58 41 53 78 75 57 69 71 70 73 81 71 69 81 77 96 85 91 80 72 81 80 85 84 84 84 85 90 72 52 58 56 66 66 66 56 57
92 80 90 62 54 53 37 66 50 53 89 86 76 66 71 74 74 78 71 83 86 94 80 83 85 85 84 81 68 65 73 82 86 85 87 83 58 60 70 65 66 74 60 59
94 87 70 46 59 54 36 58 54 49 82 86 72 73 71 65 61 80 83 76 85 88 88 87 84 82 94 82 79 70 73 70 79 72 73 68 75 74 75 76 59 72 66 61
93 75 53 58 69 50 44 51 50 50 82 81 79 80 67 61 64 63 83 87 76 81 82 89 89 74 86 89 86 88 76 73 70 75 76 78 79 72 81 80 76 73 75 67
72 58 52 68 65 47 41 43 46 44 77 85 83 68 72 71 62 61 63 71 73 77 84 86 86 85 79 87 85 87 80 76 79 83 71 69 70 82 82 82 79 77 78 83
71 86 74 65 50 45 40 46 57 44 57 91 90 71 66 71 63 62 61 65 80 86 82 85 84 85 78 79 82 88 81 79 87 84 80 79 79 80 78 81 83 80 79 78
87 76 71 55 47 48 34 55 50 46 50 86 90 78 66 72 67 68 73 72 84 88 84 86 83 71 76 87 84 69 76 77 78 77 78 75 71 72 80 82 84 81 81 74
88 79 73 51 53 45 70 58 61 47 44 84 90 86 74 76 74 74 80 72 84 83 87 85 86 82 80 89 93 70 81 83 87 89 80 76 82 86 91 89 82 78 81 84
88 77 66 58 52 58 65 66 61 52 55 77 93 95 91 75 74 85 78 83 87 83 88 87 84 84 89 96 79 77 85 91 92 90 88 87 89 85 85 87 82 80 84 83
88 82 58 46 53 74 61 54 49 48 53 87 84 95 98 76 88 90 86 88 94 88 87 87 81 86 94 76 74 87 90 86 86 85 79 77 84 88 86 90 84 83 84 83
76 66 72 93 84 62 54 47 63 82 87 89 86 88 94 89 83 90 94 92 95 97 86 85 91 92 72 69 69 78 88 87 87 85 85 84 84 79 84 91 83 83 84 85
72 97 99 88 82 73 80 88 74 86 74 89 96 89 94 82 90 93 82 97 96 96 84 89 95 98 84 78 86 89 89 88 88 82 83 84 86 90 89 85 93 98 99 99
74 78 81 85 87 95 86 90 94 85 67 97 96 96 96 96 82 86 84 90 88 94 85 83 88 78 75 93 93 94 91 90 92 90 85 87 87 96 98 98 97 99 99 99
80 86 94 84 94 97 98 97 92 98 97 99 98 98 94 91 80 75 82 84 98 82 90 92 88 81 91 94 94 94 91 90 84 88 87 86 87 88 92 97 98 99 96 88
96 99 98 95 99 97 93 90 90 90 95 92 97 100 93 89 91 77 89 81 92 95 98 98 92 84 93 94 92 93 94 90 85 81 85 84 86 87 86 88 71 67 82 74
99 97 97 99 96 99 99 98 98 99 82 91 94 94 83 95 91 85 90 94 90 87 95 90 89 91 93 95 94 92 92 89 88 76 84 86 86 89 89 88 89 83 64 68
99 97 97 94 97 100 99 98 97 91 80 94 90 93 94 94 91 95 91 90 91 84 90 91 98 96 94 94 91 91 84 82 80 78 81 83 92 94 89 90 96 98 98 91
97 98 90 94 95 97 99 91 93 79 83 86 91 76 73 92 96 96 89 90 85 88 93 96 99 92 92 93 91 89 86 84 80 80 78 79 78 89 98 100 96 95 96 98

GFSNW_925_rhum_108.txt.gz
RH
90 90 87 83 90 97 84 89 98 100 93 92 93 89 67 52 55 65 72 74 75 65 80 82 87 96 88 76 85 84 85 82 98 83 68 80 73 78 90 90 89 94 90 80
85 96 74 91 99 69 86 97 98 100 94 91 91 58 56 48 56 55 63 66 64 67 73 78 71 95 70 85 86 95 89 89 91 72 64 68 86 85 85 82 86 93 88 76
86 95 87 90 95 70 61 90 98 99 96 75 67 68 60 62 48 53 62 73 70 72 79 85 92 97 72 77 80 76 80 90 86 95 86 76 90 85 90 82 93 95 92 68
85 88 96 90 99 70 50 77 88 83 97 82 72 59 62 65 61 51 60 74 74 85 94 88 88 96 72 69 69 74 85 96 88 83 75 80 83 83 86 92 87 83 78 70
85 87 99 90 85 85 60 78 87 67 68 72 67 61 66 63 62 60 60 73 74 75 85 82 90 72 80 92 76 83 81 92 89 83 71 79 91 87 83 83 84 84 78 74
80 98 99 88 81 94 66 64 51 58 67 66 66 70 70 63 63 56 56 70 79 78 75 68 71 74 79 78 82 85 83 88 90 80 68 73 81 69 81 76 69 77 72 64
84 97 81 95 80 88 53 55 51 59 62 61 58 66 61 69 58 66 63 62 70 69 74 79 81 83 80 82 81 81 90 88 86 88 61 85 61 59 60 70 70 62 59 63
99 100 87 86 99 74 44 46 49 64 70 65 65 66 76 74 67 66 63 61 64 70 84 84 81 86 80 77 81 90 88 90 86 83 82 61 72 69 85 83 84 75 67 62
86 99 98 77 93 85 49 54 44 62 66 65 61 75 71 80 78 71 71 69 73 76 72 85 88 90 78 86 82 88 95 86 86 90 84 81 68 56 53 62 88 70 60 59
85 99 99 77 88 96 52 63 48 57 84 80 59 71 68 70 71 79 75 75 82 78 94 87 92 84 73 86 85 89 85 86 83 86 91 72 54 63 60 67 63 75 58 60
98 99 88 83 94 91 52 64 51 57 93 89 81 69 72 77 76 81 75 85 88 95 80 84 88 85 84 82 70 72 76 84 87 88 89 86 69 64 65 65 68 75 67 62
97 99 83 70 75 56 52 56 57 51 83 88 77 77 76 73 61 82 85 76 87 88 89 88 86 84 96 82 85 73 76 72 81 73 75 75 78 80 79 83 71 78 72 68
100 95 71 54 74 57 51 50 51 51 82 81 81 82 69 65 67 65 82 87 80 83 83 89 88 78 87 90 86 87 79 74 75 81 80 78 81 75 81 84 81 80 82 75
100 84 65 55 67 62 47 46 47 44 73 83 85 70 73 71 64 62 63 74 75 80 85 87 88 86 81 88 84 87 81 75 80 82 75 73 73 80 82 82 82 84 82 86
80 68 50 60 65 53 42 40 50 42 56 90 91 73 70 68 62 64 64 67 80 85 81 85 84 88 81 86 84 90 84 78 88 87 77 76 78 85 79 80 84 85 89 81
57 54 67 61 60 45 33 56 48 45 48 86 92 79 76 72 65 68 74 76 87 89 85 89 87 76 78 88 88 69 78 78 77 82 77 78 72 83 86 82 80 81 83 85
74 69 59 54 50 40 58 56 58 50 45 84 91 89 78 78 74 80 82 78 89 85 89 87 87 83 79 86 91 66 81 84 86 87 77 76 83 85 91 89 84 81 82 84
77 66 62 58 48 54 63 67 57 47 54 77 95 95 87 74 85 90 86 87 88 88 90 91 85 87 90 96 79 71 84 90 90 89 88 87 88 85 87 87 85 82 85 85
90 83 74 48 43 67 58 53 51 50 50 85 86 95 98 79 93 89 88 88 94 92 87 87 79 85 93 71 74 84 93 87 83 90 84 84 86 84 84 91 92 87 82 83
89 78 61 89 76 56 50 45 59 79 86 85 89 88 97 90 89 95 93 94 96 94 82 89 95 92 74 70 72 74 88 86 90 91 90 88 86 78 76 83 78 88 88 87
91 95 98 89 77 64 76 83 72 80 73 90 95 89 98 84 91 96 83 98 97 94 83 91 94 96 87 78 76 81 88 89 85 78 78 76 75 79 82 85 90 99 99 99
75 78 79 82 87 94 71 88 89 77 62 99 96 95 94 95 84 89 92 90 92 95 85 90 96 81 70 86 90 93 92 91 93 89 89 86 86 91 93 96 96 99 99 100
80 85 94 89 91 96 90 98 97 94 98 99 99 99 93 91 82 90 87 89 96 79 90 88 88 80 84 91 95 96 92 90 91 90 84 84 85 85 87 94 97 98 97 93
94 96 98 92 98 95 93 92 89 90 96 95 96 99 92 89 90 91 86 80 88 97 95 94 91 84 89 94 94 94 97 94 90 90 88 84 83 83 86 86 83 70 82 88
100 99 97 99 96 97 99 98 99 99 83 92 94 94 83 96 93 82 90 97 92 93 90 89 90 88 94 96 94 94 94 94 93 86 84 81 78 82 86 85 87 89 76 67
100 98 98 96 98 100 99 99 100 94 80 93 89 95 93 96 92 97 93 90 92 81 91 92 98 96 95 94 93 93 90 89 85 78 77 80 80 89 86 86 89 92 95 97
98 98 90 96 98 98 99 93 93 81 84 91 92 72 70 92 98 96 88 90 84 88 90 96 98 90 93 92 92 91 89 88 84 81 82 80 78 75 95 98 91 93 93 94

GFSNW_925_rhum_111.txt.gz
RH
93 82 87 96 95 100 82 85 98 100 89 96 93 90 66 56 60 69 72 72 75 67 84 77 94 91 87 76 87 91 86 82 96 85 73 84 75 86 90 86 88 90 84 88
96 83 92 96 99 96 88 97 98 100 85 98 94 65 59 51 58 60 65 71 67 66 71 79 76 97 68 82 90 88 88 89 87 70 60 65 84 83 87 81 84 96 88 77
90 78 92 98 81 94 66 92 99 100 99 72 68 69 62 64 50 55 64 74 70 71 75 87 85 97 70 76 77 72 74 90 88 95 88 84 90 83 88 83 87 89 87 68
89 84 88 73 85 83 62 83 97 87 96 96 73 60 62 66 63 54 67 75 75 87 96 88 86 93 73 62 66 74 80 88 96 80 79 81 87 88 87 95 87 83 77 73
86 91 89 89 88 100 87 90 93 68 77 85 74 66 69 64 62 63 65 75 78 78 86 78 86 72 79 93 78 81 82 91 84 81 82 79 81 83 82 83 80 83 76 77
84 93 90 87 81 96 75 70 54 61 71 73 68 74 72 62 64 59 58 72 80 76 75 70 72 76 80 78 83 86 87 87 84 82 69 74 80 70 80 75 78 71 82 69
90 95 97 92 80 87 54 52 52 63 73 63 60 67 61 68 56 69 66 67 72 70 75 78 77 78 79 80 83 86 90 88 85 86 60 85 61 65 60 74 81 72 70 70
93 92 84 98 87 75 51 51 50 65 74 69 68 68 76 74 70 68 67 65 70 75 84 84 82 87 82 86 90 88 89 88 89 80 84 63 71 69 81 71 91 79 72 64
93 100 97 98 89 60 51 56 48 63 66 67 64 78 70 79 80 74 77 73 77 77 79 85 88 90 78 88 86 88 93 84 83 87 82 82 71 60 59 65 94 76 61 66
94 100 98 86 77 67 51 59 49 59 84 84 63 75 71 70 70 81 79 82 83 78 93 88 93 86 75 90 89 91 86 86 82 88 90 73 55 63 63 67 68 81 62 66
84 92 99 98 94 85 55 65 51 60 95 91 84 74 71 74 75 77 77 86 88 96 83 84 91 85 85 83 72 76 78 84 87 89 88 84 73 69 64 62 68 78 72 67
80 99 80 91 90 89 55 57 57 56 87 91 80 81 78 73 63 85 87 74 87 89 88 89 89 88 96 82 85 75 77 71 78 72 72 70 80 81 81 84 78 83 80 76
87 100 90 89 80 76 49 52 54 54 86 84 81 83 71 65 69 69 82 88 80 84 81 89 87 78 88 93 86 86 80 76 78 80 80 79 79 79 83 84 83 84 85 80
91 99 92 66 75 54 41 45 49 45 77 84 87 72 73 70 66 64 64 74 78 82 87 87 87 87 83 88 81 86 83 78 81 83 80 76 72 80 82 82 83 83 81 85
98 96 79 51 57 49 41 41 45 42 53 91 91 75 72 71 65 67 66 68 80 84 79 84 82 92 86 90 86 92 87 82 88 84 78 75 77 84 77 78 81 84 86 82
96 90 55 62 66 48 36 54 48 46 47 87 90 79 78 72 67 69 76 78 88 89 85 89 89 79 80 90 89 70 78 78 75 81 81 81 87 86 88 83 83 82 83 86
72 62 52 54 54 42 56 53 58 48 43 83 91 93 80 78 76 82 84 80 90 85 90 88 86 87 81 86 90 62 81 84 87 83 79 82 81 88 88 88 85 83 83 84
68 70 65 53 46 48 58 61 52 46 52 77 96 95 86 74 89 87 90 86 86 91 92 93 86 89 91 95 77 67 86 91 91 89 81 81 90 86 88 87 88 83 84 84
66 55 50 46 41 65 60 54 52 47 50 87 88 96 98 83 94 90 88 87 93 93 87 87 80 84 89 66 73 82 93 88 88 93 92 91 87 88 86 88 87 91 91 86
63 53 60 80 79 62 55 48 57 78 87 83 90 88 94 91 90 96 94 93 96 93 82 91 98 92 72 67 69 72 87 84 89 94 94 90 89 85 80 81 79 82 89 90
85 94 90 83 70 57 73 80 69 78 76 86 93 89 97 87 92 96 85 98 97 91 82 93 94 94 86 77 76 81 86 88 84 74 77 81 81 85 82 82 90 95 99 98
82 73 74 73 85 92 66 77 83 79 62 98 95 93 92 94 85 91 95 90 91 85 85 95 97 82 70 82 79 88 90 90 89 83 86 84 86 87 87 88 93 98 99 99
73 81 95 89 92 98 89 74 90 89 97 98 99 98 93 92 83 93 88 90 92 84 90 93 88 79 78 87 92 96 92 89 92 91 85 85 87 83 82 92 95 95 96 94
89 93 99 92 97 94 89 88 90 88 97 96 96 98 91 87 90 89 88 81 91 89 99 87 90 86 86 93 94 96 97 94 93 91 89 87 84 84 79 78 82 79 82 91
100 98 86 99 95 96 99 98 99 99 86 91 95 94 84 97 93 81 92 93 90 93 87 87 89 89 94 96 95 95 96 95 94 92 92 87 82 80 80 80 82 84 85 73
100 99 98 97 98 100 99 100 99 96 83 93 89 93 90 94 91 97 90 88 88 77 91 92 96 95 96 94 93 93 92 92 90 88 85 80 79 77 75 79 82 85 88 90
98 98 93 96 98 98 98 94 93 84 85 87 91 69 65 92 97 94 87 86 81 88 91 96 98 88 94 93 93 92 91 91 87 84 81 80 80 80 89 96 78 86 89 92

GFSNW_925_rhum_114.txt.gz
RH
87 84 96 92 84 93 90 93 100 100 90 92 84 82 52 54 55 62 62 62 61 59 63 63 88 81 70 66 80 73 72 69 83 84 61 74 67 77 75 78 71 72 62 91
85 88 95 88 83 83 91 98 98 100 96 87 90 57 57 49 56 61 60 64 60 58 63 68 62 96 58 66 79 73 70 73 75 67 67 61 67 65 72 66 70 86 70 86
86 87 90 90 85 88 91 93 99 99 95 67 57 60 58 57 51 53 54 61 60 62 61 66 62 92 60 67 66 70 66 69 88 81 79 77 88 69 67 81 73 64 68 62
89 86 78 89 87 82 86 85 91 82 96 94 63 55 51 57 56 52 59 64 66 78 72 68 66 77 62 54 63 65 62 88 74 68 67 68 73 71 64 88 65 77 62 64
82 90 80 90 79 80 81 81 92 76 73 71 74 57 54 51 55 54 59 62 64 70 73 66 70 62 72 80 57 66 61 80 70 74 56 53 63 63 57 62 58 58 55 64
82 84 82 86 80 96 88 71 64 48 73 74 72 52 50 48 51 55 52 57 66 69 63 60 58 59 62 64 70 65 67 66 66 75 59 60 65 72 68 63 62 57 65 62
84 83 92 91 86 95 67 56 50 48 62 64 61 52 47 49 50 54 63 59 59 64 58 64 62 62 63 61 68 67 71 69 64 59 50 67 60 58 61 68 68 59 59 56
86 82 86 82 91 87 53 47 46 48 56 48 54 52 55 59 58 61 60 61 64 59 69 64 68 66 65 70 74 72 71 67 60 57 61 63 61 62 75 68 77 62 54 52
84 91 99 97 94 87 51 47 46 49 49 50 49 56 49 54 59 60 70 69 70 72 68 68 69 66 65 68 71 71 69 62 58 62 64 67 58 54 55 56 79 63 53 56
99 81 94 96 91 68 42 54 51 55 59 68 57 50 45 50 51 58 66 73 77 71 73 70 69 64 64 65 64 68 61 59 64 61 65 57 49 54 55 56 71 68 57 60
99 97 87 68 50 42 40 65 54 58 69 77 74 64 54 54 51 47 65 66 77 80 74 63 70 62 64 65 62 63 57 56 57 64 67 70 59 60 54 59 64 67 62 62
98 96 72 61 59 52 42 63 58 57 68 77 83 83 81 76 63 61 74 63 73 67 62 65 65 66 78 61 56 64 58 52 53 52 53 66 71 69 69 63 65 71 67 66
94 95 80 84 71 72 40 53 54 56 62 67 63 72 72 66 70 71 61 67 66 69 66 62 64 62 59 59 59 63 64 63 56 64 68 68 68 70 72 70 70 72 73 68
98 91 84 85 69 77 44 43 47 45 56 58 72 71 71 71 68 66 65 68 72 67 62 62 63 62 70 60 62 65 57 62 59 64 70 68 66 66 70 71 70 70 69 74
97 98 96 89 75 60 39 39 45 45 48 68 70 71 73 72 69 70 70 64 62 59 57 58 60 71 69 71 69 67 61 60 56 52 51 50 53 63 66 65 69 72 72 71
98 97 82 56 53 39 35 54 47 46 47 67 67 71 70 74 71 68 68 68 66 63 61 65 67 67 63 64 57 44 54 57 51 53 54 63 64 67 68 66 70 72 72 76
98 81 56 55 48 40 57 52 54 47 43 66 80 80 69 77 72 72 66 70 69 62 69 68 67 70 69 66 56 41 54 58 67 60 65 75 71 67 73 73 76 79 77 77
93 76 56 58 48 43 55 56 48 43 54 62 86 87 75 73 70 68 77 66 66 72 73 76 69 72 74 73 50 53 60 68 72 66 63 58 66 73 76 78 77 76 72 72
61 61 51 43 40 63 61 53 46 41 46 77 76 85 88 74 79 76 77 72 68 78 67 68 70 62 69 48 49 56 72 72 71 75 72 72 71 74 76 76 78 76 75 75
55 45 48 76 78 68 55 44 60 70 78 71 74 72 88 75 76 81 77 79 75 78 66 76 78 64 49 48 47 47 66 65 72 80 86 80 77 75 71 69 65 67 73 81
60 84 83 80 66 53 68 66 64 61 67 73 79 73 84 76 77 76 71 90 85 79 70 78 72 66 61 63 54 55 64 68 66 62 59 61 57 65 68 69 70 77 84 88
79 69 66 66 80 83 62 66 72 70 54 86 80 79 76 81 75 77 85 83 87 70 75 85 73 52 59 67 61 65 67 68 67 65 64 66 67 67 66 69 75 83 90 98
74 77 91 85 89 94 83 71 73 80 90 90 90 93 81 83 76 83 78 84 79 74 88 77 64 62 66 71 67 76 71 71 73 75 74 75 79 79 77 80 83 87 90 93
93 100 96 93 90 83 86 74 80 84 88 90 85 93 79 74 80 78 78 72 79 91 90 72 60 72 71 76 73 82 83 77 80 81 82 79 79 78 77 79 80 82 84 92
100 99 84 92 84 93 93 92 93 93 82 82 85 84 72 84 86 72 87 94 92 79 71 64 68 74 89 90 90 89 92 92 91 89 89 88 86 84 81 80 78 78 82 81
100 100 99 93 96 100 98 96 94 91 78 81 78 84 83 78 79 90 85 72 71 68 81 76 72 79 90 86 86 89 90 91 91 91 89 86 86 85 81 76 80 82 79 84
99 97 87 90 93 93 90 83 80 74 73 81 83 73 64 83 87 81 70 77 71 76 74 73 75 73 80 83 83 87 89 90 90 90 88 85 80 82 86 90 83 83 83 86

GFSNW_925_rhum_117.txt.gz
RH
90 82 81 90 85 89 84 92 100 99 80 86 71 74 42 49 48 54 52 52 52 50 48 52 82 80 58 58 68 71 59 70 93 75 51 56 68 70 66 93 67 69 61 96
81 84 83 80 93 71 89 97 98 99 100 85 83 50 51 44 50 53 53 55 52 47 52 62 57 90 48 52 66 80 64 70 94 75 52 50 68 54 57 57 66 70 71 94
82 81 88 84 84 82 88 97 100 99 96 64 53 50 49 53 47 50 46 51 50 50 51 49 58 91 49 55 57 67 67 64 84 80 74 73 87 54 59 87 77 75 85 78
80 83 80 86 86 78 84 87 86 77 97 74 49 43 42 48 52 46 48 55 56 66 60 52 54 73 56 47 51 54 55 77 58 54 58 53 56 56 51 69 54 79 65 66
78 81 78 83 78 87 83 70 77 70 65 57 56 47 43 43 47 47 51 58 52 58 62 62 58 54 66 70 49 53 49 67 60 62 48 49 65 58 55 54 50 53 55 64
78 80 79 86 74 86 87 62 61 47 64 63 59 43 39 40 42 49 46 45 57 60 54 49 45 46 48 55 59 57 56 56 60 66 51 50 57 71 62 58 55 52 68 57
80 81 78 88 82 85 72 53 47 41 53 51 50 42 39 39 43 48 51 48 52 57 47 50 48 47 50 50 55 55 58 56 55 50 44 60 59 54 58 62 60 50 50 49
81 80 79 93 88 88 88 58 38 36 42 41 47 42 38 45 49 53 54 56 56 47 59 55 58 56 60 59 58 58 56 54 50 52 54 57 57 56 67 81 69 49 48 45
86 81 77 85 86 85 71 65 46 38 38 42 37 42 41 44 48 58 65 59 59 65 58 56 57 55 50 53 59 56 54 50 52 52 59 59 49 51 49 49 83 53 49 50
83 83 86 81 88 87 59 66 42 42 45 56 42 40 38 36 43 51 59 63 72 64 58 55 58 48 54 50 49 51 46 45 51 49 55 54 45 48 48 63 80 55 52 52
91 96 85 90 84 89 57 73 48 55 51 64 60 53 42 45 40 46 55 57 65 70 65 52 52 48 49 51 50 49 46 45 43 48 50 64 50 53 55 60 60 54 54 55
96 87 92 97 77 68 38 60 68 65 56 68 68 70 70 66 59 49 58 56 59 53 54 52 50 50 64 46 40 50 47 46 46 49 55 60 59 60 59 50 55 60 58 59
83 64 53 51 41 36 35 62 66 51 51 56 52 61 65 67 70 72 54 54 57 58 58 51 52 52 46 42 42 44 49 47 46 53 57 59 59 62 60 57 61 63 63 59
74 70 70 58 53 36 35 53 48 51 40 44 61 62 62 71 68 67 64 59 61 54 51 50 49 52 58 45 53 52 45 51 45 50 55 57 57 55 59 62 61 62 62 64
83 93 79 67 63 40 32 37 45 45 51 50 56 60 66 65 63 62 61 56 54 50 50 48 48 53 55 53 56 49 48 43 46 37 38 40 42 51 58 60 62 62 63 64
74 89 83 73 60 42 35 50 47 44 62 52 56 60 59 62 60 58 57 58 54 50 50 49 52 58 58 52 40 27 37 37 34 40 39 41 44 53 54 55 60 60 59 65
93 87 77 71 57 38 53 54 61 43 49 54 70 63 59 66 60 59 55 55 55 52 54 55 53 59 65 56 44 27 37 44 51 44 56 65 61 61 59 58 62 71 65 66
94 87 70 54 45 44 60 50 44 42 51 50 80 76 62 63 54 57 62 55 54 57 56 62 58 60 62 65 39 37 40 48 54 54 52 46 52 55 62 64 66 66 64 62
85 62 54 49 41 54 68 47 43 40 58 69 68 80 82 63 63 62 64 60 62 64 57 54 62 49 64 43 34 40 48 58 60 54 58 59 62 62 65 65 66 65 60 63
64 54 54 66 75 54 48 51 55 65 67 58 60 59 80 66 62 66 68 66 61 86 56 63 69 55 40 35 36 33 46 51 57 70 75 67 65 64 61 62 57 57 60 70
53 75 76 85 57 58 56 66 65 55 69 58 62 58 74 69 72 66 58 82 76 81 67 67 65 54 48 46 41 37 47 52 58 52 53 54 50 55 54 56 58 61 66 70
76 66 62 59 71 68 72 73 68 70 58 72 70 70 66 72 64 68 73 83 82 74 64 75 69 42 48 53 45 43 50 55 57 54 52 52 50 50 53 56 60 68 75 85
64 79 89 75 84 90 80 72 71 77 78 86 82 86 71 74 69 74 75 86 75 62 86 72 60 61 57 56 51 51 52 57 58 56 56 58 62 59 60 64 66 72 76 82
86 100 98 93 95 76 84 69 83 76 83 85 76 82 70 64 77 73 80 64 70 84 83 67 53 71 66 60 57 62 67 63 64 68 68 67 67 68 67 68 70 75 74 82
100 100 99 97 76 91 92 94 88 89 76 77 78 78 64 77 83 65 79 88 86 68 71 63 70 81 89 84 77 82 86 81 85 80 81 80 76 73 71 72 72 74 76 77
100 100 100 88 92 93 94 94 95 83 77 82 76 85 85 79 75 81 83 68 71 78 87 74 66 76 88 82 83 91 96 96 96 93 89 86 86 85 83 80 80 80 79 81
100 99 90 84 95 92 84 75 72 69 70 89 89 81 73 74 79 75 65 78 81 89 76 69 69 69 76 80 81 89 90 90 91 87 82 82 83 84 85 87 83 79 81 83

GFSNW_925_rhum_120.txt.gz
RH
96 88 82 79 81 82 80 93 99 98 82 91 79 83 44 52 47 52 49 49 55 49 47 51 86 86 60 57 62 84 79 78 97 86 51 60 65 98 65 95 96 99 95 98
84 84 79 83 82 81 85 98 98 94 95 94 81 52 48 44 48 51 49 54 50 46 50 64 59 93 47 55 61 73 72 84 94 84 64 58 76 59 55 66 76 94 96 98
82 80 84 87 75 78 81 97 100 98 96 77 61 51 50 53 47 50 46 52 48 49 49 47 56 96 51 50 56 63 71 67 84 98 100 89 90 56 64 84 88 91 94 88
80 79 85 83 77 76 80 90 93 83 100 82 58 43 42 51 54 47 46 55 56 80 59 50 55 79 66 49 46 56 60 78 59 57 57 64 70 65 66 72 68 93 77 78
76 81 87 78 76 75 78 77 82 71 76 68 57 48 43 43 48 47 54 58 52 56 64 66 57 56 67 68 52 51 51 70 61 64 51 62 74 77 69 87 96 65 76 76
74 79 78 79 75 72 77 56 58 63 62 62 61 51 41 40 44 49 48 48 59 59 60 50 50 48 50 54 62 65 59 66 73 71 50 51 81 90 69 65 58 60 81 66
78 79 83 76 72 79 67 51 51 55 65 57 57 40 38 43 50 54 51 51 56 58 46 49 50 46 49 49 56 56 69 60 63 76 48 80 62 56 61 61 58 53 55 59
80 82 83 78 74 71 68 57 54 54 50 49 46 40 40 51 53 58 61 61 59 50 60 70 63 66 63 59 57 59 59 66 67 74 73 66 62 60 63 68 73 58 59 54
78 78 88 83 78 70 83 63 46 50 53 62 44 42 45 56 61 63 67 58 59 68 76 66 64 73 50 66 69 55 57 60 70 62 71 76 64 55 50 55 84 59 60 62
78 78 88 85 76 78 64 54 42 52 61 63 61 51 46 44 47 69 64 66 76 65 79 68 86 65 54 59 52 60 61 55 63 61 75 62 50 52 50 70 82 60 62 66
86 76 76 84 78 60 58 57 48 56 67 71 62 61 62 53 53 63 64 69 76 85 78 66 65 67 60 58 50 52 53 59 59 60 60 80 52 54 71 74 64 63 67 67
90 81 76 76 83 64 56 60 58 52 73 76 66 67 66 66 64 73 63 63 63 79 78 66 60 64 81 57 61 51 61 59 63 65 72 65 60 70 61 58 67 67 70 66
84 83 76 80 73 69 60 50 50 50 68 70 66 63 63 63 66 67 75 66 63 63 66 73 67 70 63 60 55 46 52 48 58 64 67 71 69 63 60 62 72 71 68 65
92 76 73 70 73 60 42 44 51 58 51 62 72 59 62 64 64 62 60 62 60 61 64 68 66 75 66 66 66 66 58 58 53 64 64 64 64 67 69 70 67 69 71 71
59 54 49 44 44 40 34 36 44 55 65 64 71 58 64 61 60 59 58 57 62 66 70 68 68 64 69 62 68 70 62 58 64 60 59 62 64 66 66 71 70 66 68 71
81 69 63 45 35 36 47 72 43 48 47 72 75 63 59 60 58 58 59 61 65 66 71 67 65 62 76 78 61 37 49 40 45 47 52 51 60 67 63 64 67 64 68 70
79 86 76 55 37 32 56 67 59 41 52 71 84 77 64 64 60 63 66 58 68 71 69 72 70 71 79 78 71 36 47 50 53 63 66 69 65 74 63 66 66 68 66 68
90 92 78 60 44 46 55 45 42 43 54 64 93 86 74 62 66 76 71 71 68 71 74 74 76 75 80 88 61 36 43 57 59 67 58 59 66 70 71 68 71 76 74 72
92 83 64 50 45 60 64 44 40 38 64 92 84 91 95 70 72 73 78 73 88 77 79 69 72 73 86 64 55 48 51 66 70 68 60 68 73 76 79 76 75 73 71 69
77 53 50 72 67 53 45 52 71 76 79 73 81 74 96 78 76 82 87 78 82 93 80 78 86 83 52 50 45 45 52 63 69 80 79 76 78 80 79 77 72 69 68 74
50 79 84 71 55 52 68 87 87 81 86 76 72 73 94 79 90 92 71 96 91 94 87 83 92 85 65 51 49 45 56 62 68 59 66 66 70 73 70 69 63 63 65 74
60 61 54 55 77 83 79 82 82 84 74 81 89 83 88 86 76 89 84 93 91 91 79 89 93 74 56 56 51 50 62 67 72 58 67 61 56 58 59 64 67 69 72 80
59 76 91 82 90 86 90 70 85 90 89 92 92 94 91 86 86 91 89 93 93 74 94 93 83 77 65 63 59 57 66 68 68 62 59 58 58 56 60 67 67 74 80 84
91 97 79 85 94 91 88 90 91 92 93 88 90 94 91 82 93 91 91 82 85 95 97 79 88 81 72 69 64 67 77 75 74 75 71 73 70 70 67 69 72 77 80 82
100 100 98 98 87 97 98 98 95 94 87 86 90 93 83 92 93 81 90 94 97 87 78 85 93 87 89 86 80 82 84 84 85 81 83 79 74 73 72 70 70 73 75 76
100 100 99 93 97 98 99 98 98 94 84 86 94 90 95 89 90 94 89 85 76 73 89 96 90 91 95 86 88 92 91 89 90 85 82 80 79 78 75 74 74 74 74 76
100 99 99 96 98 96 95 90 90 79 88 95 96 94 70 89 96 94 84 86 81 97 94 92 77 78 86 90 94 95 94 94 91 87 84 82 78 80 83 90 82 79 76 78

GFSNW_925_rhum_123.txt.gz
RH
85 79 78 77 79 81 74 93 99 92 83 93 91 93 54 51 50 53 53 54 56 59 55 66 93 83 67 57 63 84 85 96 98 94 60 70 70 84 78 95 93 96 98 98
82 80 78 77 74 71 85 98 98 81 86 94 91 52 54 54 53 54 53 59 53 50 52 73 85 96 56 59 62 77 72 88 93 76 63 72 97 64 66 66 78 97 97 98
79 82 83 81 75 69 75 97 99 98 89 93 84 54 54 59 50 52 50 56 58 56 54 50 78 91 57 54 58 59 72 76 94 98 100 93 93 81 79 81 94 91 98 92
83 79 82 70 69 68 71 93 96 87 99 84 76 53 46 59 56 50 50 58 68 78 65 56 74 79 69 57 53 56 72 82 86 73 64 79 91 95 96 94 98 97 95 89
77 77 72 74 74 66 66 90 91 86 94 84 66 54 46 54 49 59 57 66 62 65 74 67 71 64 72 70 64 60 59 71 65 63 62 72 95 80 77 84 70 78 85 89
75 77 73 74 72 70 71 59 62 74 70 69 71 65 44 53 52 50 53 60 65 75 68 59 55 54 58 57 65 75 71 72 80 77 57 56 84 93 70 68 66 68 92 83
71 72 75 69 68 62 67 56 62 73 75 74 67 45 49 62 59 59 65 69 68 62 54 59 54 52 52 55 60 63 76 72 73 82 59 92 69 61 63 72 67 64 66 77
69 75 71 60 65 65 55 54 63 70 69 63 50 50 58 63 64 68 74 71 65 75 67 81 71 75 66 64 60 62 67 74 74 75 86 73 71 63 62 72 80 70 71 68
70 73 74 62 65 68 71 56 55 66 69 69 70 52 53 69 72 73 71 60 61 75 89 79 70 82 55 66 65 58 61 68 76 68 80 80 67 58 52 56 90 69 73 79
73 73 75 68 72 71 69 52 48 59 79 76 71 60 56 55 68 82 71 68 80 69 88 80 88 74 57 67 58 59 63 65 67 71 80 70 56 54 52 74 83 69 73 80
73 76 80 76 75 72 61 50 53 53 88 79 70 70 70 64 71 78 71 72 82 89 82 77 77 77 70 66 54 54 60 66 68 68 69 71 56 57 69 71 68 73 74 76
79 76 79 79 76 59 55 47 52 50 77 79 66 66 66 66 67 76 75 73 74 87 86 83 78 73 87 67 66 57 61 59 62 66 64 69 66 68 65 70 76 74 76 74
89 78 74 79 75 63 63 48 49 49 84 83 76 70 61 62 65 66 75 80 72 73 76 85 80 74 75 70 69 55 56 56 65 66 64 73 73 67 66 75 81 78 72 71
90 89 76 73 82 76 62 47 51 59 67 76 74 60 62 61 63 62 60 65 66 69 77 80 80 84 71 77 66 72 64 62 64 71 70 69 72 73 78 79 79 80 76 71
99 95 79 74 78 78 52 47 51 56 64 70 80 64 61 61 60 61 62 64 70 80 77 79 76 79 73 77 76 86 69 65 70 72 70 72 72 77 77 80 80 80 80 79
81 70 72 74 74 54 52 69 43 53 52 76 66 69 64 61 60 60 58 63 73 78 78 78 78 70 75 86 80 55 61 57 51 50 58 58 64 77 75 78 78 75 79 76
50 45 42 39 39 44 55 60 56 45 54 73 88 82 72 64 63 72 76 67 77 78 80 77 79 78 79 87 87 47 52 56 59 67 68 71 74 82 76 72 71 70 74 73
78 64 54 56 48 45 47 43 43 48 54 74 92 89 81 64 77 82 82 80 82 79 79 82 79 82 86 91 72 53 55 68 72 69 58 68 74 78 80 75 80 82 82 80
87 83 60 60 51 53 47 42 40 41 67 85 87 80 81 78 81 84 82 84 90 83 77 81 80 80 86 58 55 64 63 70 71 73 72 80 80 84 85 83 85 84 84 81
85 60 55 72 61 48 45 61 71 81 82 83 78 87 89 82 86 89 90 88 88 90 84 82 87 82 56 56 56 51 55 70 76 80 83 84 87 86 87 85 82 81 78 78
63 66 76 62 50 46 73 84 77 79 71 82 81 84 92 82 88 90 83 94 94 92 80 82 90 92 77 61 58 54 59 72 70 68 70 74 77 84 85 84 77 72 76 81
50 56 51 52 73 82 63 76 81 82 66 83 84 83 89 85 85 90 85 90 92 72 83 93 90 70 63 60 59 56 70 78 77 70 76 76 76 75 76 75 73 70 70 76
48 66 79 71 80 68 68 57 80 92 91 94 93 93 89 84 89 94 92 94 90 81 98 90 75 74 66 64 61 65 75 78 75 75 69 64 70 64 66 73 68 72 79 82
84 82 67 80 90 90 85 80 83 87 95 93 93 94 92 90 95 93 92 80 88 100 100 73 81 82 69 72 67 79 83 81 77 79 74 73 71 71 65 66 73 79 85 86
100 100 96 93 88 97 99 98 93 95 91 92 89 91 79 94 91 88 91 96 98 84 71 77 87 84 87 85 77 83 85 84 81 82 80 79 77 79 78 74 74 75 78 84
100 100 100 96 96 98 100 100 98 94 87 90 93 90 94 90 91 98 96 81 73 64 87 87 94 93 93 79 80 86 88 84 84 82 80 80 80 81 77 74 72 70 68 73
100 99 99 96 98 93 96 92 91 86 83 88 92 89 69 86 96 98 85 85 77 89 94 92 80 69 80 86 85 89 89 88 86 84 82 80 75 73 81 90 78 74 73 72

GFSNW_925_rhum_129.txt.gz
RH
70 74 79 79 80 75 64 83 96 69 73 86 92 88 59 49 58 56 57 58 64 73 74 79 92 79 72 54 70 88 80 99 98 98 72 69 81 94 90 95 88 85 98 94
69 71 75 73 68 64 74 95 96 72 74 89 90 55 58 58 62 60 61 65 57 50 64 83 77 92 64 61 66 72 75 91 94 81 75 68 95 81 79 78 87 94 98 94
70 73 72 69 74 76 70 91 89 87 93 92 68 60 61 62 50 57 58 63 59 54 68 71 78 84 62 60 59 60 73 86 89 94 98 90 90 83 81 86 94 95 98 96
85 79 77 76 73 73 68 92 93 81 81 84 68 56 54 57 60 55 59 64 68 69 67 67 70 72 70 58 61 73 71 97 91 92 93 81 86 85 79 88 88 97 94 98
86 79 73 74 71 67 66 88 92 91 93 83 59 62 54 58 61 60 64 70 73 66 70 69 70 70 73 73 68 68 69 79 70 89 80 77 84 87 78 78 78 76 80 95
80 79 79 76 65 61 67 77 72 74 82 76 62 61 51 57 54 62 70 66 71 71 68 66 64 64 69 65 70 76 75 75 83 75 66 64 76 82 82 80 78 80 93 82
83 81 78 77 72 52 54 65 64 77 82 75 65 52 64 76 65 66 70 68 63 58 76 71 64 63 61 60 68 72 75 75 79 83 63 67 60 67 70 76 77 78 75 76
80 80 75 72 71 70 54 65 60 72 75 71 60 63 68 61 70 74 68 67 65 78 75 73 72 74 62 62 64 64 72 80 75 79 87 71 68 70 68 74 71 77 78 81
75 79 75 70 71 71 61 59 61 63 70 64 71 63 58 69 75 72 68 60 64 70 86 77 69 79 62 62 57 69 75 74 72 80 82 74 56 61 58 61 76 74 73 80
66 70 74 76 77 69 60 54 61 52 77 78 70 61 61 66 77 78 79 68 76 70 80 79 88 71 62 74 65 58 65 69 72 80 82 68 58 61 54 64 61 75 79 81
57 62 72 77 77 63 53 53 51 54 80 78 71 70 66 67 78 76 68 72 77 89 78 79 80 81 75 73 62 58 60 68 76 78 72 55 61 62 65 56 76 78 83 85
46 56 68 72 74 59 48 46 50 48 63 70 70 66 65 66 69 82 81 76 78 86 86 88 85 80 93 73 68 60 70 61 61 63 58 50 65 58 60 75 77 77 80 83
62 53 56 68 72 64 59 48 53 55 77 73 71 68 62 64 66 68 79 81 80 79 82 88 85 75 83 79 80 62 59 66 71 64 53 68 73 70 72 75 72 76 75 83
81 73 64 60 63 66 62 62 52 59 67 65 55 62 61 60 63 64 64 70 74 79 86 84 84 88 74 76 70 80 65 70 70 75 67 71 75 79 76 76 74 77 78 78
88 90 79 64 66 73 71 58 46 56 61 65 67 64 59 61 62 64 67 72 78 85 80 83 79 84 85 84 85 93 76 73 64 54 57 56 58 74 79 84 82 79 80 79
90 89 88 66 70 78 59 70 48 52 55 66 52 62 68 64 64 64 63 70 82 85 84 83 86 79 76 79 80 61 72 69 51 34 52 67 64 74 82 83 84 83 82 77
98 95 84 66 71 73 50 54 50 52 61 67 72 66 69 68 69 78 82 77 83 82 84 88 83 81 85 87 84 37 51 61 65 56 72 65 78 79 86 80 80 80 78 78
99 83 75 79 72 50 46 43 46 49 57 73 86 76 60 68 74 72 90 82 85 82 78 88 87 86 93 96 64 58 51 58 65 69 71 58 71 82 88 81 87 89 87 86
88 73 55 54 55 63 58 49 47 47 56 80 85 76 64 82 85 88 81 88 90 83 86 78 78 75 85 56 54 53 54 61 59 70 75 76 77 85 87 87 90 87 89 89
61 65 69 85 65 60 56 70 70 77 79 85 80 82 87 80 89 87 89 91 83 86 80 86 94 87 58 51 52 47 47 65 76 79 80 84 83 88 87 84 81 79 83 86
74 75 85 70 60 56 68 76 76 74 75 83 80 85 85 82 82 85 84 93 95 90 74 91 89 82 66 58 67 61 53 66 80 62 55 64 64 83 86 87 87 83 81 83
66 65 56 57 71 78 61 77 76 83 65 83 86 87 85 90 89 87 90 92 92 84 85 93 86 61 51 59 64 64 62 68 80 73 68 74 74 80 85 84 88 82 74 73
57 62 66 66 78 66 68 63 76 86 90 94 96 94 87 93 89 94 93 98 91 83 97 87 77 68 62 78 76 66 63 65 74 77 71 71 72 75 79 85 78 76 75 73
90 99 96 86 87 88 81 76 80 81 93 96 93 97 90 89 95 91 86 77 89 100 95 63 79 66 75 84 81 74 72 74 76 80 78 78 82 84 78 76 75 76 80 76
99 96 92 89 82 95 98 97 96 97 93 92 90 94 84 96 90 94 89 95 98 86 70 74 78 77 88 81 79 84 86 87 86 83 85 83 80 84 83 78 74 74 74 76
100 99 99 97 96 99 99 100 98 96 91 92 92 97 92 85 88 98 94 79 73 66 86 83 88 88 87 73 70 80 90 94 92 87 82 78 83 85 81 78 78 75 72 77
100 99 99 97 98 93 98 96 87 89 86 88 93 83 62 87 97 97 87 83 75 80 82 89 81 78 74 73 73 73 77 83 90 86 81 78 76 80 84 93 86 77 73 71

GFSNW_925_rhum_132.txt.gz
RH
90 95 96 82 75 69 65 80 85 62 64 83 91 89 62 51 62 58 59 61 69 76 76 81 91 78 73 62 74 99 95 100 98 94 86 71 82 91 84 91 83 92 96 88
82 86 81 75 78 78 72 93 90 65 67 84 89 55 60 59 62 62 64 65 59 56 70 80 75 90 62 60 66 77 78 90 93 73 65 68 86 83 83 82 84 95 98 90
88 82 81 79 77 78 70 87 87 83 92 89 64 61 63 63 53 57 61 65 58 59 72 71 78 83 60 62 60 58 73 86 87 91 83 93 93 85 79 86 95 95 97 96
82 75 70 72 65 64 68 92 93 82 80 83 64 58 55 57 67 59 65 62 73 69 70 69 72 72 70 58 64 76 75 86 80 87 91 82 85 87 84 89 85 91 83 95
77 73 72 68 57 59 66 86 92 89 90 77 56 63 57 62 62 70 68 69 74 66 72 70 74 70 74 75 70 70 70 84 84 88 83 75 78 80 80 82 80 78 81 88
76 73 74 70 64 52 69 80 72 71 82 74 60 62 58 60 56 66 73 68 69 72 71 66 64 67 70 71 74 75 75 80 86 85 69 67 73 76 81 79 79 84 92 79
71 72 70 65 66 55 57 71 67 75 79 68 64 59 70 79 76 66 69 68 62 66 75 75 69 72 70 69 68 75 75 75 81 86 62 67 48 69 69 78 76 77 78 77
61 65 65 60 62 63 53 67 63 74 73 70 62 66 67 62 68 75 71 65 68 77 74 73 70 72 65 62 66 67 74 79 75 79 84 59 68 70 78 80 66 75 76 80
56 58 56 55 57 59 52 56 63 63 69 62 64 61 60 69 73 71 65 60 65 70 84 74 68 80 61 65 58 75 72 77 78 82 82 64 48 63 60 60 76 72 72 75
52 54 52 52 52 53 42 48 52 51 75 76 70 61 61 71 77 77 79 72 80 70 79 78 88 72 65 77 67 61 68 70 78 80 87 68 52 64 61 66 49 74 73 76
48 48 48 49 51 49 36 45 45 48 79 77 73 68 66 73 79 75 68 69 76 89 76 79 80 83 76 78 66 64 61 68 80 80 77 50 63 66 70 53 74 76 79 77
61 55 52 50 51 42 35 41 50 47 59 66 68 65 63 62 65 83 83 76 79 86 84 89 86 81 95 76 71 62 75 60 57 67 60 44 67 55 59 74 79 79 81 83
74 68 61 61 60 52 46 43 48 49 74 69 72 72 63 65 67 67 77 83 81 84 83 87 86 86 85 82 86 65 62 67 71 63 52 62 67 69 71 77 73 77 76 84
86 78 73 70 64 65 63 56 48 52 65 61 51 63 62 60 64 68 67 68 79 80 89 87 88 90 75 80 71 81 62 73 70 76 67 66 71 78 75 78 73 79 79 82
85 92 85 73 76 73 70 66 46 55 48 46 65 61 58 63 64 67 70 74 80 86 83 85 80 85 88 88 89 96 80 74 57 38 44 46 39 66 80 83 83 82 83 84
82 84 93 90 84 80 76 62 47 48 57 67 58 58 68 67 67 68 69 75 84 86 84 84 87 80 82 85 74 53 74 70 52 32 40 61 58 66 80 81 84 83 83 78
81 86 87 95 84 85 54 50 48 53 60 67 70 63 70 69 70 80 84 80 85 84 84 88 85 82 87 89 83 40 40 58 65 59 70 64 71 54 83 81 80 78 77 76
86 91 95 99 92 89 58 50 47 54 58 73 85 72 58 71 79 75 90 85 87 84 80 88 88 86 94 96 69 60 57 56 63 71 74 58 64 73 85 82 88 90 88 89
99 100 94 96 66 59 57 52 51 54 58 79 86 72 64 82 86 87 88 88 90 84 87 80 82 80 86 62 58 54 47 48 52 63 71 76 72 72 86 88 90 87 89 89
88 76 72 87 73 66 62 69 71 76 76 84 79 76 84 79 89 89 87 92 80 82 79 88 95 86 69 59 56 62 61 58 58 67 72 79 81 80 85 88 84 82 82 86
70 78 88 79 72 63 69 79 81 76 80 84 81 80 85 83 81 83 80 91 94 87 74 92 88 86 69 51 55 63 70 69 62 64 59 65 72 77 84 88 87 86 83 85
70 68 62 65 71 78 67 81 76 84 65 82 87 89 85 90 89 86 95 90 92 79 86 96 93 65 48 51 71 78 73 70 64 75 78 69 75 74 82 84 87 84 78 76
60 64 66 71 82 72 74 72 78 88 89 95 96 96 90 96 89 94 93 90 89 83 99 87 81 69 60 65 79 75 74 71 69 71 78 73 72 72 80 86 78 79 80 74
88 98 99 91 92 90 82 76 81 82 94 96 92 97 90 88 96 90 80 78 89 100 95 66 78 66 55 76 73 75 72 74 78 79 77 81 79 78 73 77 74 80 86 78
100 100 97 98 86 94 97 96 97 98 93 91 91 95 83 96 91 91 88 96 98 85 68 76 77 67 83 85 75 78 81 81 85 84 86 84 78 82 79 71 75 80 80 81
100 100 99 95 93 97 100 100 97 95 88 89 92 95 89 83 86 98 88 74 71 64 86 83 85 81 84 70 68 77 83 87 87 84 86 86 84 86 81 72 76 80 81 83
100 99 98 95 97 92 94 96 86 90 88 85 93 76 59 86 96 96 84 80 74 80 81 88 73 60 66 73 76 75 68 71 74 77 76 80 80 80 87 92 83 82 80 78